[[{"header":{"parameterUnit":"m.s-1","parameterCategory":1,"la1":30.6,"la2":28.766,"lo1":-90.7593,"lo2":-88.6598,"dy":0.0162,"dx":0.0183,"nx":116,"ny":114,"refTime":"2023-08-08T06:00:00:Z","depth":0,"parameterNumber":2,"parameterNumberName":"U-component_of_WINDS"},"data":[0.0,0.0,0.0,0.0,0.0,0.0,0.0,0.0,0.0,0.0,0.0,0.0,0.0,0.0,0.0,0.0,0.0,0.0,0.0,0.0,0.0,0.0,0.0,0.0,0.0,0.0,0.0,0.0,0.0,0.0,0.0,0.0,0.0,0.0,0.0,0.0,0.0,0.0,0.0,0.0,0.0,0.0,0.0,0.0,0.0,0.0,0.0,0.0,0.0,0.0,0.0,0.0,0.0,0.0,0.0,0.0,0.0,0.0,0.0,0.0,0.0,0.0,0.0,0.0,0.0,0.0,0.0,0.0,0.0,0.0,0.0,0.0,0.0,0.0,0.0,0.0,0.0,0.0,0.0,0.0,0.0,0.0,0.0,0.0,0.0,0.0,0.0,0.0,0.0,0.0,0.0,0.0,0.0,0.0,0.0,0.0,0.0,0.0,0.0,0.0,0.0,0.0,0.0,0.0,0.0,0.0,0.0,0.0,0.0,0.0,0.0,0.0,0.0,0.0,0.0,0.0,0.0,0.0,0.0,0.0,0.0,0.0,0.0,0.0,0.0,0.0,0.0,0.0,0.0,0.0,0.0,0.0,0.0,0.0,0.0,0.0,0.0,0.0,0.0,0.0,0.0,0.0,0.0,0.0,0.0,0.0,0.0,0.0,0.0,0.0,0.0,0.0,0.0,0.0,0.0,0.0,0.0,0.0,0.0,0.0,0.0,0.0,0.0,0.0,0.0,0.0,0.0,0.0,0.0,0.0,0.0,0.0,0.0,0.0,0.0,0.0,0.0,0.0,0.0,0.0,0.0,0.0,0.0,0.0,0.0,0.0,0.0,0.0,0.0,0.0,0.0,0.0,0.0,0.0,0.0,0.0,0.0,0.0,0.0,0.0,0.0,0.0,0.0,0.0,0.0,0.0,0.0,0.0,0.0,0.0,0.0,0.0,0.0,0.0,0.0,0.0,0.0,0.0,0.0,0.0,0.0,0.0,0.0,0.0,0.0,0.0,0.0,0.0,0.0,0.0,0.0,0.0,0.0,0.0,0.0,0.0,0.0,0.0,0.0,0.0,0.0,0.0,0.0,0.0,0.0,0.0,0.0,0.0,0.0,0.0,0.0,0.0,0.0,0.0,0.0,0.0,0.0,0.0,0.0,0.0,0.0,0.0,0.0,0.0,0.0,0.0,0.0,0.0,0.0,0.0,0.0,0.0,0.0,0.0,0.0,0.0,0.0,0.0,0.0,0.0,0.0,0.0,0.0,0.0,0.0,0.0,0.0,0.0,0.0,0.0,0.0,0.0,0.0,0.0,0.0,0.0,0.0,0.0,0.0,0.0,0.0,0.0,0.0,0.0,0.0,0.0,0.0,0.0,0.0,0.0,0.0,0.0,0.0,0.0,0.0,0.0,0.0,0.0,0.0,0.0,0.0,0.0,0.0,0.0,0.0,0.0,0.0,0.0,0.0,0.0,0.0,0.0,0.0,0.0,0.0,0.0,0.0,0.0,0.0,0.0,0.0,0.0,0.0,0.0,0.0,0.0,0.0,0.0,0.0,0.0,0.0,0.0,0.0,0.0,0.0,0.0,0.0,0.0,0.0,0.0,0.0,0.0,0.0,0.0,0.0,0.0,0.0,0.0,0.0,0.0,0.0,0.0,0.0,0.0,0.0,0.0,0.0,0.0,0.0,0.0,0.0,0.0,0.0,0.0,0.0,0.0,0.0,0.0,0.0,0.0,0.0,0.0,0.0,0.0,0.0,0.0,0.0,0.0,0.0,0.0,0.0,0.0,0.0,0.0,0.0,0.0,0.0,0.0,0.0,0.0,0.0,0.0,0.0,0.0,0.0,0.0,0.0,0.0,0.0,0.0,0.0,0.0,0.0,0.0,0.0,0.0,0.0,0.0,0.0,0.0,0.0,0.0,0.0,0.0,0.0,0.0,0.0,0.0,0.0,0.0,0.0,0.0,0.0,0.0,0.0,0.0,0.0,0.0,0.0,0.0,0.0,0.0,0.0,0.0,0.0,0.0,0.0,0.0,0.0,0.0,0.0,0.0,0.0,0.0,0.0,0.0,0.0,0.0,0.0,0.0,0.0,0.0,0.0,0.0,0.0,0.0,0.0,0.0,0.0,0.0,0.0,0.0,0.0,0.0,0.0,0.0,0.0,0.0,0.0,0.0,0.0,0.0,0.0,0.0,0.0,0.0,0.0,0.0,0.0,0.0,0.0,0.0,0.0,0.0,0.0,0.0,0.0,0.0,0.0,0.0,0.0,0.0,0.0,0.0,0.0,0.0,0.0,0.0,0.0,0.0,0.0,0.0,0.0,0.0,0.0,0.0,0.0,0.0,0.0,0.0,0.0,0.0,0.0,0.0,0.0,0.0,0.0,0.0,0.0,0.0,0.0,0.0,0.0,0.0,0.0,0.0,0.0,0.0,0.0,0.0,0.0,0.0,0.0,0.0,0.0,0.0,0.0,0.0,0.0,0.0,0.0,0.0,0.0,0.0,0.0,0.0,0.0,0.0,0.0,0.0,0.0,0.0,0.0,0.0,0.0,0.0,0.0,0.0,0.0,0.0,0.0,0.0,0.0,0.0,0.0,0.0,0.0,0.0,0.0,0.0,0.0,0.0,0.0,0.0,0.0,0.0,0.0,0.0,0.0,0.0,0.0,0.0,0.0,0.0,0.0,0.0,0.0,0.0,0.0,0.0,0.0,0.0,0.0,0.0,0.0,0.0,0.0,0.0,0.0,0.0,0.0,0.0,0.0,0.0,0.0,0.0,0.0,0.0,0.0,0.0,0.0,0.0,0.0,0.0,0.0,0.0,0.0,0.0,0.0,0.0,0.0,0.0,0.0,0.0,0.0,0.0,0.0,0.0,0.0,0.0,0.0,0.0,0.0,0.0,0.0,0.0,0.0,0.0,0.0,0.0,0.0,0.0,0.0,0.0,0.0,0.0,0.0,0.0,0.0,0.0,0.0,0.0,0.0,0.0,0.0,0.0,0.0,0.0,0.0,0.0,0.0,0.0,0.0,0.0,0.0,0.0,0.0,0.0,0.0,0.0,0.0,0.0,0.0,0.0,0.0,0.0,0.0,0.0,0.0,0.0,0.0,0.0,0.0,0.0,0.0,0.0,0.0,0.0,0.0,0.0,0.0,0.0,0.0,0.0,0.0,0.0,0.0,0.0,0.0,0.0,0.0,0.0,0.0,0.0,0.0,0.0,0.0,0.0,0.0,0.0,0.0,0.0,0.0,0.0,0.0,0.0,0.0,0.0,0.0,0.0,0.0,0.0,0.0,0.0,0.0,0.0,0.0,0.0,0.0,0.0,0.0,0.0,0.0,0.0,0.0,0.0,0.0,0.0,0.0,0.0,0.0,0.0,0.0,0.0,0.0,0.0,0.0,0.0,0.0,0.0,0.0,0.0,0.0,0.0,0.0,0.0,0.0,0.0,0.0,0.0,0.0,0.0,0.0,0.0,0.0,0.0,0.0,0.0,0.0,0.0,0.0,0.0,0.0,0.0,0.0,0.0,0.0,0.0,0.0,0.0,0.0,0.0,0.0,0.0,0.0,0.0,0.0,0.0,0.0,0.0,0.0,0.0,0.0,0.0,0.0,0.0,0.0,0.0,0.0,0.0,0.0,0.0,0.0,0.0,0.0,0.0,0.0,0.0,0.0,0.0,0.0,0.0,0.0,0.0,0.0,0.0,0.0,0.0,0.0,0.0,0.0,0.0,0.0,0.0,0.0,0.0,0.0,0.0,0.0,0.0,0.0,0.0,0.0,0.0,0.0,0.0,0.0,0.0,0.0,0.0,0.0,0.0,0.0,0.0,0.0,0.0,0.0,0.0,0.0,0.0,0.0,0.0,0.0,0.0,0.0,0.0,0.0,0.0,0.0,0.0,0.0,0.0,0.0,0.0,0.0,0.0,0.0,0.0,0.0,0.0,0.0,0.0,0.0,0.0,0.0,0.0,0.0,0.0,0.0,0.0,0.0,0.0,0.0,0.0,0.0,0.0,0.0,0.0,0.0,0.0,0.0,0.0,0.0,0.0,0.0,0.0,0.0,0.0,0.0,0.0,0.0,0.0,0.0,0.0,0.0,0.0,0.0,0.0,0.0,0.0,0.0,0.0,0.0,0.0,0.0,0.0,0.0,0.0,0.0,0.0,0.0,0.0,0.0,0.0,0.0,0.0,0.0,0.0,0.0,0.0,0.0,0.0,0.0,0.0,0.0,0.0,0.0,0.0,0.0,0.0,0.0,0.0,0.0,0.0,0.0,0.0,0.0,0.0,0.0,0.0,0.0,0.0,0.0,0.0,0.0,0.0,0.0,0.0,0.0,0.0,0.0,0.0,0.0,0.0,0.0,0.0,0.0,0.0,0.0,0.0,0.0,0.0,0.0,0.0,0.0,0.0,0.0,0.0,0.0,0.0,0.0,0.0,0.0,0.0,0.0,0.0,0.0,0.0,0.0,0.0,0.0,0.0,0.0,0.0,0.0,0.0,0.0,0.0,0.0,0.0,0.0,0.0,0.0,0.0,0.0,0.0,0.0,0.0,0.0,0.0,0.0,0.0,0.0,0.0,0.0,0.0,0.0,0.0,0.0,0.0,0.0,0.0,0.0,0.0,0.0,0.0,0.0,0.0,0.0,0.0,0.0,0.0,0.0,0.0,0.0,0.0,0.0,0.0,0.0,0.0,0.0,0.0,0.0,0.0,0.0,0.0,0.0,0.0,0.0,0.0,0.0,0.0,0.0,0.0,0.0,0.0,0.0,0.0,0.0,0.0,0.0,0.0,0.0,0.0,0.0,0.0,0.0,0.0,0.0,0.0,0.0,0.0,0.0,0.0,0.0,0.0,0.0,0.0,0.0,0.0,0.0,0.0,0.0,0.0,0.0,0.0,0.0,0.0,0.0,0.0,0.0,0.0,0.0,0.0,0.0,0.0,0.0,0.0,0.0,0.0,0.0,0.0,0.0,0.0,0.0,0.0,0.0,0.0,0.0,0.0,0.0,0.0,0.0,0.0,0.0,0.0,0.0,0.0,0.0,0.0,0.0,0.0,0.0,0.0,0.0,0.0,0.0,0.0,0.0,0.0,0.0,0.0,0.0,0.0,0.0,0.0,0.0,0.0,0.0,0.0,0.0,0.0,0.0,0.0,0.0,0.0,0.0,0.0,0.0,0.0,0.0,0.0,0.0,0.0,0.0,0.0,0.0,0.0,0.0,0.0,0.0,0.0,0.0,0.0,0.0,0.0,0.0,0.0,0.0,0.0,0.0,0.0,0.0,0.0,0.0,0.0,0.0,0.0,0.0,0.0,0.0,0.0,0.0,0.0,0.0,0.0,0.0,0.0,0.0,0.0,0.0,0.0,0.0,0.0,0.0,0.0,0.0,0.0,0.0,0.0,0.0,0.0,0.0,0.0,0.0,0.0,0.0,0.0,0.0,0.0,0.0,0.0,0.0,0.0,0.0,0.0,0.0,0.0,0.0,0.0,0.0,0.0,0.0,0.0,0.0,0.0,0.0,0.0,0.0,0.0,0.0,0.0,0.0,0.0,0.0,0.0,0.0,0.0,0.0,0.0,0.0,0.0,0.0,0.0,0.0,0.0,0.0,0.0,0.0,0.0,0.0,0.0,0.0,0.0,0.0,0.0,0.0,0.0,0.0,0.0,0.0,0.0,0.0,0.0,0.0,0.0,0.0,0.0,0.0,0.0,0.0,0.0,0.0,0.0,0.0,0.0,0.0,0.0,0.0,0.0,0.0,0.0,0.0,0.0,0.0,0.0,0.0,0.0,0.0,0.0,0.0,0.0,0.0,0.0,0.0,0.0,0.0,0.0,0.0,0.0,0.0,0.0,0.0,0.0,0.0,0.0,0.0,0.0,0.0,0.0,0.0,0.0,0.0,0.0,0.0,0.0,0.0,0.0,0.0,0.0,0.0,0.0,0.0,0.0,0.0,0.0,0.0,0.0,0.0,0.0,0.0,0.0,0.0,0.0,0.0,0.0,0.0,0.0,0.0,0.0,0.0,0.0,0.0,0.0,0.0,0.0,0.0,0.0,0.0,0.0,0.0,0.0,0.0,0.0,0.0,0.0,0.0,0.0,0.0,0.0,-0.845,-0.845,0.0,0.0,0.0,0.0,0.0,0.0,0.0,0.0,0.0,0.0,0.0,0.0,0.0,0.0,0.0,0.0,0.0,0.0,0.0,0.0,0.0,0.0,0.0,0.0,0.0,0.0,0.0,0.0,0.0,0.0,0.0,0.0,0.0,0.0,0.0,0.0,0.0,0.0,0.0,0.0,0.0,0.0,0.0,0.0,0.0,0.0,0.0,0.0,0.0,0.0,0.0,0.0,0.0,0.0,0.0,0.0,0.0,0.0,0.0,0.0,0.0,0.0,0.0,0.0,0.0,0.0,0.0,0.0,0.0,0.0,0.0,0.0,0.0,0.0,0.0,0.0,0.0,0.0,0.0,0.0,0.0,0.0,0.0,0.0,0.0,0.0,0.0,0.0,0.0,0.0,0.0,0.0,0.0,0.0,0.0,0.0,0.0,0.0,0.0,0.0,0.0,0.0,0.0,0.0,0.0,0.0,0.0,0.0,0.0,0.0,0.0,0.0,0.0,0.0,-0.8568,-0.8568,0.0,0.0,0.0,0.0,0.0,0.0,0.0,0.0,0.0,0.0,0.0,0.0,0.0,0.0,0.0,0.0,0.0,0.0,0.0,0.0,0.0,0.0,0.0,0.0,0.0,0.0,0.0,0.0,0.0,0.0,0.0,0.0,0.0,0.0,0.0,0.0,0.0,0.0,0.0,0.0,0.0,0.0,0.0,0.0,0.0,0.0,0.0,0.0,0.0,0.0,0.0,0.0,0.0,0.0,0.0,0.0,0.0,0.0,0.0,0.0,0.0,0.0,0.0,0.0,0.0,0.0,0.0,0.0,0.0,0.0,0.0,0.0,0.0,0.0,0.0,0.0,0.0,0.0,0.0,0.0,0.0,0.0,0.0,0.0,0.0,0.0,0.0,0.0,0.0,0.0,0.0,0.0,0.0,0.0,0.0,0.0,0.0,0.0,0.0,0.0,0.0,0.0,0.0,0.0,0.0,0.0,0.0,0.0,-0.8568,-0.8568,-0.8568,-0.8568,-0.8568,-0.8568,-0.8568,-0.8568,-0.8568,-0.8568,0.0,0.0,0.0,0.0,0.0,0.0,0.0,0.0,0.0,0.0,0.0,0.0,0.0,0.0,0.0,0.0,0.0,0.0,0.0,0.0,0.0,0.0,0.0,0.0,0.0,0.0,0.0,0.0,0.0,0.0,0.0,0.0,0.0,0.0,0.0,0.0,0.0,0.0,0.0,0.0,0.0,0.0,0.0,0.0,0.0,0.0,0.0,0.0,0.0,0.0,0.0,0.0,0.0,0.0,0.0,0.0,0.0,0.0,0.0,0.0,0.0,0.0,0.0,0.0,0.0,0.0,0.0,0.0,0.0,0.0,0.0,0.0,0.0,0.0,0.0,0.0,0.0,0.0,0.0,0.0,0.0,0.0,0.0,0.0,0.0,0.0,-0.8311,-0.9141,0.0,0.0,0.0,0.0,0.0,0.0,0.0,0.0,0.0,0.0,0.0,0.0,0.0,-0.8556,-0.8532,-0.8556,-0.8568,-0.8568,-0.8568,-0.8568,-0.8568,-0.8568,-0.8568,-0.8568,-0.8568,0.0,-0.8568,-0.8568,0.0,0.0,0.0,0.0,0.0,0.0,0.0,0.0,0.0,0.0,0.0,0.0,0.0,0.0,0.0,0.0,0.0,0.0,0.0,0.0,0.0,0.0,0.0,0.0,0.0,0.0,0.0,0.0,0.0,0.0,0.0,0.0,0.0,0.0,0.0,0.0,0.0,0.0,0.0,0.0,0.0,0.0,0.0,0.0,0.0,0.0,0.0,0.0,0.0,0.0,0.0,0.0,0.0,0.0,0.0,0.0,0.0,0.0,0.0,0.0,0.0,0.0,0.0,0.0,0.0,0.0,0.0,0.0,0.0,0.0,0.0,0.0,0.0,0.0,0.0,0.0,0.0,0.0,0.0,0.0,0.0,0.0,0.0,0.0,0.0,-0.8032,-0.8255,-0.8887,-0.8484,-0.8211,0.0,0.0,0.0,0.0,0.0,0.0,0.0,0.0,0.0,-0.8568,-0.8568,-0.8568,-0.8568,-0.8568,-0.8617,-0.871,-0.871,-0.8763,-0.8865,-0.8865,-0.8865,-0.8865,-0.8865,-0.8774,-0.8659,-0.8649,-0.8568,-0.8568,0.0,0.0,0.0,0.0,-0.7944,-0.7764,0.0,0.0,0.0,0.0,0.0,0.0,0.0,0.0,0.0,0.0,0.0,0.0,0.0,0.0,0.0,0.0,0.0,0.0,0.0,0.0,0.0,0.0,0.0,0.0,0.0,0.0,0.0,0.0,0.0,0.0,0.0,0.0,0.0,0.0,0.0,0.0,0.0,0.0,0.0,0.0,0.0,0.0,0.0,0.0,0.0,0.0,0.0,0.0,0.0,0.0,0.0,0.0,0.0,0.0,0.0,0.0,0.0,0.0,0.0,0.0,0.0,0.0,0.0,0.0,0.0,0.0,0.0,0.0,0.0,0.0,0.0,0.0,0.0,0.0,0.0,0.0,0.0,-0.8379,-0.834,-0.8877,-0.8616,-0.8418,0.0,0.0,0.0,0.0,0.0,0.0,-0.8568,-0.8568,-0.8584,-0.8629,-0.8633,-0.8633,-0.8633,-0.8633,-0.8674,-0.8755,-0.8755,-0.8852,-0.9027,-0.9027,-0.9051,-0.9096,-0.9096,-0.8905,-0.8687,-0.8623,-0.8609,-0.852,-0.8333,-0.8244,-0.8154,-0.78,-0.7624,-0.7534,0.0,0.0,0.0,0.0,0.0,0.0,0.0,0.0,0.0,0.0,0.0,0.0,0.0,0.0,0.0,0.0,0.0,0.0,0.0,0.0,0.0,0.0,0.0,0.0,0.0,0.0,0.0,0.0,0.0,0.0,0.0,0.0,0.0,0.0,0.0,0.0,0.0,0.0,0.0,0.0,0.0,0.0,0.0,0.0,0.0,0.0,0.0,0.0,0.0,0.0,0.0,0.0,0.0,0.0,0.0,0.0,0.0,0.0,0.0,0.0,0.0,0.0,0.0,0.0,0.0,0.0,0.0,0.0,0.0,0.0,0.0,0.0,0.0,0.0,0.0,0.0,0.0,0.0,0.0,-0.9772,-0.9078,0.0,0.0,0.0,0.0,-0.8568,-0.8568,-0.8568,-0.8568,-0.8568,-0.8641,-0.8804,-0.8808,-0.8808,-0.8808,-0.8808,-0.8731,-0.858,-0.858,-0.867,-0.8836,-0.8836,-0.893,-0.9096,-0.9096,-0.8905,-0.8707,-0.8691,-0.859,-0.8314,-0.8314,-0.8314,-0.8314,-0.8314,-0.8128,-0.7851,0.0,0.0,0.0,0.0,0.0,0.0,0.0,0.0,0.0,0.0,0.0,0.0,0.0,0.0,0.0,0.0,0.0,0.0,0.0,0.0,0.0,0.0,0.0,0.0,0.0,0.0,0.0,0.0,0.0,0.0,0.0,0.0,0.0,0.0,0.0,0.0,0.0,0.0,0.0,0.0,0.0,0.0,0.0,0.0,0.0,0.0,0.0,0.0,0.0,0.0,0.0,0.0,0.0,0.0,0.0,0.0,0.0,0.0,0.0,0.0,0.0,0.0,0.0,0.0,0.0,0.0,0.0,0.0,0.0,0.0,0.0,0.0,0.0,0.0,0.0,0.0,0.0,0.0,0.0,-0.8999,-0.8828,0.0,-0.8568,-0.8568,-0.8568,-0.8568,-0.867,-0.8731,-0.8731,-0.8844,-0.8938,-0.8999,-0.8999,-0.8999,-0.8999,-0.8999,-0.9023,-0.9072,-0.9072,-0.9169,-0.934,-0.934,-0.928,-0.915,-0.915,-0.8952,-0.8556,-0.8556,-0.8431,-0.8243,-0.8153,-0.8059,-0.8059,-0.7875,-0.7782,-0.7691,0.0,0.0,0.0,0.0,0.0,0.0,0.0,0.0,0.0,0.0,0.0,0.0,0.0,0.0,0.0,0.0,0.0,0.0,0.0,0.0,0.0,0.0,0.0,0.0,0.0,0.0,0.0,0.0,0.0,0.0,0.0,0.0,0.0,0.0,0.0,0.0,0.0,0.0,0.0,0.0,0.0,0.0,-1.4088,0.0,0.0,0.0,0.0,0.0,0.0,0.0,0.0,0.0,0.0,0.0,0.0,0.0,0.0,0.0,0.0,0.0,0.0,0.0,0.0,0.0,0.0,0.0,0.0,0.0,0.0,0.0,0.0,0.0,0.0,0.0,0.0,0.0,0.0,-0.8568,-0.8568,-0.8568,-0.8568,-0.8568,-0.8568,-0.8621,-0.8653,-0.8653,-0.8816,-0.8913,-0.8913,-0.9031,-0.9125,-0.9181,-0.9181,-0.9181,-0.9181,-0.9181,-0.9214,-0.9271,-0.9271,-0.936,-0.9535,-0.9535,-0.9375,-0.9236,-0.9236,-0.8935,-0.8432,-0.8432,-0.8307,-0.8218,-0.803,-0.7934,-0.7934,-0.7746,-0.7746,-0.7746,0.0,0.0,0.0,0.0,0.0,0.0,0.0,0.0,0.0,0.0,0.0,0.0,0.0,0.0,0.0,0.0,0.0,0.0,0.0,0.0,0.0,0.0,0.0,0.0,0.0,0.0,0.0,0.0,0.0,0.0,0.0,0.0,0.0,0.0,0.0,0.0,0.0,0.0,0.0,0.0,0.0,0.0,-1.4088,0.0,0.0,0.0,0.0,0.0,0.0,0.0,0.0,0.0,0.0,0.0,0.0,0.0,0.0,0.0,0.0,0.0,0.0,0.0,0.0,0.0,0.0,0.0,0.0,0.0,0.0,0.0,0.0,0.0,0.0,0.0,0.0,0.0,-0.8568,-0.8568,-0.8568,-0.8572,-0.8576,-0.8576,-0.8584,-0.8731,-0.8828,-0.8828,-0.9003,-0.9104,-0.9104,-0.9108,-0.919,-0.936,-0.9364,-0.9364,-0.9372,-0.9372,-0.9291,-0.9133,-0.9133,-0.9218,-0.938,-0.938,-0.9381,-0.9252,-0.9153,-0.8851,-0.8446,-0.8446,-0.8251,-0.8052,-0.8041,-0.8038,-0.8038,-0.8045,-0.8052,-0.8055,0.0,0.0,0.0,0.0,0.0,0.0,0.0,0.0,0.0,0.0,0.0,0.0,0.0,0.0,0.0,0.0,0.0,0.0,0.0,0.0,0.0,0.0,0.0,0.0,0.0,0.0,0.0,0.0,0.0,0.0,0.0,0.0,0.0,0.0,0.0,0.0,0.0,0.0,0.0,0.0,0.0,0.0,-1.4088,0.0,0.0,0.0,0.0,0.0,0.0,0.0,0.0,0.0,0.0,0.0,0.0,0.0,0.0,0.0,0.0,0.0,0.0,0.0,0.0,0.0,0.0,0.0,0.0,0.0,0.0,0.0,0.0,0.0,0.0,0.0,-0.8568,-0.8568,-0.8568,-0.8568,-0.8613,-0.8735,-0.8751,-0.8804,-0.8938,-0.8995,-0.9019,-0.9019,-0.9181,-0.9283,-0.9283,-0.9409,-0.9502,-0.9551,-0.9551,-0.9612,-0.9738,-0.9738,-0.9782,-0.9872,-0.9872,-0.9892,-0.9941,-0.9737,-0.9457,-0.9297,-0.9094,-0.8781,-0.8464,-0.8464,-0.8464,-0.834,-0.8123,-0.8038,-0.8055,-0.8167,-0.8272,-0.836,0.0,0.0,0.0,0.0,0.0,0.0,0.0,0.0,0.0,0.0,0.0,0.0,0.0,0.0,0.0,0.0,0.0,0.0,0.0,0.0,0.0,0.0,0.0,0.0,0.0,0.0,0.0,0.0,0.0,0.0,0.0,0.0,0.0,0.0,0.0,0.0,0.0,0.0,0.0,0.0,0.0,0.0,-1.4088,-1.4088,-1.4088,-1.4088,-1.4088,-1.4088,-1.4088,-1.4088,0.0,0.0,0.0,0.0,0.0,0.0,0.0,0.0,0.0,0.0,0.0,0.0,0.0,0.0,0.0,0.0,0.0,0.0,0.0,0.0,0.0,0.0,0.0,0.0,-0.8625,-0.8674,-0.8674,-0.8674,-0.871,-0.8808,-0.8889,-0.8978,-0.9088,-0.9161,-0.9206,-0.9206,-0.9437,-0.9575,-0.9575,-0.975,-0.9851,-0.9851,-0.9851,-0.99,-0.9998,-1.0002,-1.0054,-1.016,-1.016,-1.016,-0.9951,-0.9743,-0.9537,-0.9122,-0.9017,-0.8699,-0.8482,-0.8482,-0.8482,-0.8465,0.0,0.0,0.0,0.0,-0.8411,-0.8482,0.0,0.0,0.0,0.0,0.0,0.0,0.0,0.0,0.0,0.0,0.0,0.0,0.0,0.0,0.0,0.0,0.0,0.0,0.0,0.0,0.0,0.0,0.0,0.0,0.0,0.0,0.0,0.0,0.0,0.0,0.0,0.0,0.0,0.0,0.0,0.0,0.0,0.0,0.0,0.0,0.0,0.0,-1.4088,-1.4088,-1.4088,-1.4088,-1.4088,-1.4088,-1.4088,-1.4088,0.0,0.0,0.0,0.0,0.0,0.0,0.0,0.0,0.0,0.0,0.0,0.0,0.0,0.0,0.0,0.0,0.0,0.0,0.0,0.0,0.0,0.0,0.0,0.0,-0.8828,-0.8852,-0.8852,-0.8869,-0.8881,-0.8881,-0.9027,-0.9141,-0.9181,-0.9324,-0.9421,-0.9445,-0.9738,-0.9916,-0.9916,-1.0071,0.0,0.0,0.0,-1.0172,-1.0193,-1.0193,-1.0201,-1.0221,-1.0221,-1.0011,-0.9801,-0.9696,-0.9384,-0.8966,-0.8966,-0.8751,-0.8533,-0.8533,-0.8533,-0.853,-0.8496,-0.8492,-0.8509,-0.8509,-0.852,-0.8533,0.0,0.0,0.0,0.0,0.0,0.0,0.0,0.0,0.0,0.0,0.0,0.0,0.0,0.0,0.0,0.0,0.0,0.0,0.0,0.0,0.0,0.0,0.0,0.0,0.0,0.0,0.0,0.0,0.0,0.0,0.0,0.0,0.0,0.0,0.0,0.0,0.0,0.0,0.0,0.0,0.0,0.0,-1.4088,-1.4088,-1.4088,-1.4088,-1.4088,-1.4088,-1.4088,-1.4088,-1.4088,-1.4088,-1.4088,0.0,0.0,0.0,0.0,0.0,0.0,0.0,0.0,0.0,0.0,0.0,0.0,0.0,0.0,0.0,0.0,0.0,0.0,0.0,0.0,-0.9745,-0.9375,-0.9043,-0.9043,-0.9165,-0.925,-0.925,-0.9283,-0.9417,-0.9705,-0.9762,-0.9843,-0.9994,-1.0071,-1.0107,-1.0107,-1.0144,-1.016,-1.016,-1.016,-1.0233,-1.0379,-1.0162,-1.0226,-1.059,-1.0155,0.0,-1.0155,-0.9723,-0.9395,-0.929,-0.9071,-0.8852,-0.8852,-0.8852,-0.8852,-0.8825,-0.8577,-0.8557,-0.8665,-0.8665,-0.8743,-0.8852,0.0,0.0,0.0,0.0,0.0,0.0,0.0,0.0,0.0,0.0,0.0,0.0,0.0,0.0,0.0,0.0,0.0,0.0,0.0,0.0,0.0,0.0,0.0,0.0,0.0,0.0,0.0,0.0,0.0,0.0,0.0,0.0,0.0,0.0,0.0,0.0,0.0,0.0,0.0,0.0,0.0,0.0,-1.4088,-1.4088,-1.4088,-1.4088,-1.4088,-1.4088,-1.4088,-1.4088,-1.4088,-1.4088,-1.4088,-1.4088,-1.4088,0.0,0.0,0.0,0.0,0.0,0.0,0.0,0.0,0.0,0.0,0.0,0.0,0.0,0.0,-1.0362,-1.0009,0.0,-0.9596,-0.9592,-0.9384,-0.9259,-0.9352,-0.9413,-0.9489,-0.9502,-0.9567,-0.9726,-0.9998,-1.0022,-1.0063,-0.9943,-1.014,-1.0188,-1.0079,-1.0269,-1.0428,-1.0214,-1.0214,-1.015,-1.0132,-1.0016,-1.0058,-1.0253,-0.9926,-0.9816,-0.9816,-0.9489,-0.9268,-0.9158,-0.894,-0.894,-0.894,-0.894,-0.894,-0.8923,-0.8771,-0.8757,-0.8825,-0.8825,-0.8872,-0.894,0.0,0.0,0.0,0.0,0.0,0.0,0.0,0.0,0.0,0.0,0.0,0.0,0.0,0.0,0.0,0.0,0.0,0.0,0.0,0.0,0.0,0.0,0.0,0.0,0.0,0.0,0.0,0.0,0.0,0.0,0.0,0.0,0.0,0.0,0.0,0.0,0.0,0.0,0.0,0.0,0.0,0.0,-1.3997,-1.3997,-1.3997,-1.3997,-1.3997,-1.4004,-1.3997,-1.3997,-1.3997,-1.3997,-1.3997,-1.3997,-1.3997,-1.3997,-1.3997,0.0,0.0,0.0,0.0,0.0,0.0,0.0,0.0,-1.2398,-1.2089,-1.0963,-1.0785,-1.0666,-1.0215,-1.003,-0.9809,-0.9378,-0.9344,-0.9425,-0.9506,-0.9447,-0.9493,-0.9593,-0.9673,-0.9907,-1.0088,-1.0108,-1.0015,-0.9734,-1.0083,-1.0158,-0.9935,-1.0284,-1.0472,-1.0257,-1.0147,-1.0036,-0.9816,-0.9706,-0.9706,-0.9816,-0.9706,-0.9596,-0.9379,-0.9379,-0.9158,-0.894,-0.894,-0.894,-0.894,-0.894,-0.894,-0.8937,-0.9154,-0.9265,-0.9265,-0.9265,-0.9265,-0.9265,0.0,0.0,0.0,0.0,0.0,0.0,0.0,0.0,0.0,0.0,0.0,0.0,0.0,0.0,0.0,0.0,0.0,0.0,0.0,0.0,0.0,0.0,0.0,0.0,0.0,0.0,0.0,0.0,0.0,0.0,0.0,0.0,0.0,0.0,0.0,0.0,0.0,0.0,0.0,0.0,0.0,0.0,-1.3737,-1.3737,-1.3737,-1.3737,-1.3737,-1.3652,-1.3483,-1.3483,-1.3483,-1.3483,-1.3483,-1.3483,-1.3483,-1.3483,0.0,-1.3483,-1.3483,-1.3652,-1.3822,-1.3997,-1.3913,-1.3476,0.0,-1.236,-1.2164,-1.1191,-1.0467,-1.0242,-1.0968,-0.9849,-0.9091,-0.9922,-0.951,-0.9184,-0.9354,-0.9291,-0.9343,-0.9466,-0.9478,-0.9467,-0.9518,-0.9533,-0.9596,-0.9749,-0.9889,-0.9896,-0.9786,-0.9915,-0.9926,-0.9816,-0.9816,-0.9816,-0.9816,-0.9599,-0.9599,-0.9816,-0.9268,-0.9158,-0.9379,-0.9047,-0.8937,-0.894,-0.894,-0.894,-0.894,-0.894,-0.894,-0.9047,-1.0131,-1.0457,-1.0457,-1.0457,-1.0457,-1.0672,0.0,0.0,0.0,0.0,0.0,0.0,0.0,0.0,0.0,0.0,0.0,0.0,0.0,0.0,0.0,0.0,0.0,0.0,0.0,0.0,0.0,0.0,0.0,0.0,0.0,0.0,0.0,0.0,0.0,0.0,0.0,0.0,0.0,0.0,0.0,0.0,0.0,0.0,0.0,0.0,0.0,0.0,-1.3913,-1.3737,-1.3652,-1.3568,-1.3568,-1.3483,0.0,0.0,-1.3398,-1.3398,-1.3398,-1.3398,-1.3398,-1.3398,-1.3398,0.0,-1.3398,-1.3483,-1.3606,-1.3853,-1.3812,-1.3678,-1.3322,-1.3266,-1.3159,-1.2524,-1.1905,-1.1397,-1.1296,-1.0408,-0.9746,-0.9717,-0.9381,-0.928,-0.944,-0.9253,-0.9208,-0.9476,-0.9222,-0.9208,-0.9595,-0.9708,-0.9629,-0.9592,-0.9706,-0.9706,-0.9599,-0.9706,-0.9706,-0.9599,-0.9599,-0.9489,-0.9268,-0.9158,-0.9158,-0.9268,-0.9047,-0.894,-0.9158,-0.894,-0.894,-0.894,-0.894,-0.894,-0.8937,-0.9699,-0.9915,-1.0021,-1.1219,-1.1655,-1.1655,-1.1655,-1.1655,-1.176,0.0,0.0,0.0,0.0,0.0,0.0,0.0,0.0,0.0,0.0,0.0,0.0,0.0,0.0,0.0,0.0,0.0,0.0,0.0,0.0,0.0,0.0,0.0,0.0,0.0,0.0,0.0,0.0,0.0,0.0,0.0,0.0,0.0,0.0,0.0,0.0,0.0,0.0,0.0,0.0,0.0,0.0,-1.3997,-1.3737,-1.3568,-1.3398,-1.3398,-1.3307,0.0,0.0,-1.3222,-1.3222,-1.3222,-1.3222,-1.3222,-1.3222,-1.3222,-1.3222,-1.3307,-1.3363,-1.3471,-1.376,-1.3781,-1.3806,-1.3929,-1.3944,-1.372,-1.325,-1.2702,-1.1958,-1.1072,-1.045,-0.9754,-0.9177,-0.9184,-0.9133,-0.9287,-0.9204,-0.9138,-0.9254,-0.9047,-0.9047,-0.9485,-0.9596,-0.9489,-0.9268,-0.9485,-0.9489,-0.9268,-0.9485,-0.9489,-0.9268,-0.9268,-0.9158,-0.894,-0.894,-0.894,-0.894,-0.894,-0.894,-0.894,-0.894,-0.894,-0.8937,-0.9265,-0.9372,-0.9482,-1.0676,-1.1219,-1.1324,-1.2417,-1.2852,-1.296,-1.3285,-1.3176,-1.296,0.0,0.0,0.0,0.0,0.0,0.0,0.0,0.0,0.0,0.0,0.0,0.0,0.0,0.0,0.0,0.0,0.0,0.0,0.0,0.0,0.0,0.0,0.0,0.0,0.0,0.0,0.0,0.0,0.0,0.0,0.0,0.0,0.0,0.0,0.0,0.0,0.0,0.0,0.0,0.0,0.0,0.0,-1.3737,-1.3737,-1.3568,-1.3398,-1.3398,0.0,0.0,0.0,-1.2705,-1.2705,-1.2705,-1.2705,0.0,-1.2705,-1.2705,-1.279,-1.3052,-1.333,-1.3536,-1.3717,-1.3843,-1.3876,-1.3882,-1.3897,-1.3608,-1.2559,-1.1873,-1.1075,-1.0074,-0.9098,-0.8635,-0.8679,-0.8703,-0.8757,-0.891,-0.8933,-0.8933,-0.8937,-0.894,-0.894,-0.8937,-0.8937,-0.8937,-0.894,-0.894,-0.8937,-0.894,-0.894,-0.8937,-0.894,-0.894,-0.894,-0.894,-0.894,-0.894,-0.894,-0.894,-0.894,-0.894,-0.894,-0.894,-0.8937,-1.0131,-1.0672,-1.0781,-1.1869,-1.2304,-1.2417,-1.3619,-1.4164,-1.4272,-1.5351,-1.5131,-1.4277,0.0,0.0,0.0,0.0,0.0,0.0,0.0,0.0,0.0,0.0,0.0,0.0,0.0,0.0,0.0,0.0,0.0,0.0,0.0,0.0,0.0,0.0,0.0,0.0,0.0,0.0,0.0,0.0,0.0,0.0,0.0,0.0,0.0,0.0,0.0,0.0,0.0,0.0,0.0,0.0,0.0,0.0,-1.3997,-1.3997,-1.3737,-1.3398,0.0,0.0,0.0,0.0,0.0,0.0,-1.2705,-1.2705,-1.2705,-1.2705,-1.2705,-1.2747,-1.3021,-1.3136,-1.3377,-1.3731,-1.389,-1.3914,-1.409,-1.42,-1.3874,-1.2805,-1.1983,-1.1084,-0.9981,-0.9102,-0.8533,-0.8686,-0.871,-0.8764,-0.8916,-0.894,-0.894,-0.894,-0.894,-0.894,-0.894,-0.894,-0.894,-0.894,-0.894,-0.894,-0.894,-0.894,-0.894,-0.894,-0.894,-0.894,-0.894,-0.894,-0.894,-0.894,-0.9695,-1.0131,-1.0131,-1.0895,-1.1223,-1.1223,-1.1655,-1.1869,-1.1869,-1.3073,-1.3619,-1.3727,-1.4917,-1.5351,-1.5351,-1.5779,-1.5672,-1.5351,0.0,0.0,0.0,0.0,0.0,0.0,0.0,0.0,0.0,0.0,0.0,0.0,0.0,0.0,0.0,0.0,0.0,0.0,0.0,0.0,0.0,0.0,0.0,0.0,0.0,0.0,0.0,0.0,0.0,0.0,0.0,0.0,0.0,0.0,0.0,0.0,0.0,0.0,0.0,0.0,0.0,0.0,-1.3913,-1.3913,-1.3652,0.0,0.0,0.0,0.0,0.0,0.0,-1.2705,-1.2705,-1.2705,-1.2705,-1.2705,-1.2777,-1.2892,-1.3073,-1.326,-1.3483,-1.3821,-1.3978,-1.4087,-1.4256,-1.4004,-1.3414,-1.2339,-1.1439,-1.0483,-0.9478,-0.8795,-0.8513,-0.8611,-0.8676,-0.8747,-0.8845,-0.8903,-0.894,-0.894,-0.894,-0.894,-0.894,-0.894,-0.894,-0.894,-0.894,-0.894,-0.894,-0.894,-0.894,-0.894,-0.894,-0.894,-0.894,-0.894,-0.9154,-0.9588,-1.0347,-1.0891,-1.1324,-1.2091,-1.2417,-1.2413,-1.2852,-1.3073,-1.3176,-1.4266,-1.4815,-1.4922,-1.5565,-1.5891,-1.5891,-1.5891,-1.5891,-1.5891,0.0,0.0,0.0,0.0,0.0,0.0,0.0,0.0,0.0,0.0,0.0,0.0,0.0,0.0,0.0,0.0,0.0,0.0,0.0,0.0,0.0,0.0,0.0,0.0,0.0,0.0,0.0,0.0,0.0,0.0,0.0,0.0,0.0,0.0,0.0,0.0,0.0,0.0,0.0,0.0,0.0,0.0,-1.3633,-1.3476,0.0,0.0,0.0,0.0,0.0,0.0,0.0,-1.2705,-1.2705,-1.2705,-1.2705,-1.2723,-1.2916,-1.3133,-1.3157,-1.3525,-1.3912,-1.3924,-1.4117,-1.4298,-1.4298,-1.3511,-1.2436,-1.1365,-1.0441,-0.9466,-0.8459,-0.8474,-0.8567,-0.8573,-0.8697,-0.88,-0.8814,-0.8835,-0.893,-0.8937,-0.894,-0.894,-0.894,-0.894,-0.894,-0.894,-0.894,-0.894,-0.894,-0.894,-0.894,-0.894,-0.894,-0.894,-0.894,-0.8937,-0.9588,-1.0781,-1.0891,-1.1437,-1.2526,-1.2521,-1.263,-1.2635,-1.3835,-1.4277,-1.4385,-1.5458,-1.5891,-1.5891,-1.5891,-1.5891,-1.5891,-1.5891,-1.5891,-1.5891,0.0,0.0,0.0,0.0,0.0,0.0,0.0,0.0,0.0,0.0,0.0,0.0,0.0,0.0,0.0,0.0,0.0,0.0,0.0,0.0,0.0,0.0,0.0,0.0,0.0,0.0,0.0,0.0,0.0,0.0,0.0,0.0,0.0,0.0,0.0,0.0,0.0,0.0,0.0,0.0,0.0,0.0,-1.3195,0.0,0.0,0.0,0.0,0.0,0.0,0.0,0.0,0.0,-1.2705,-1.2705,-1.2747,-1.2958,-1.3067,-1.3212,-1.3598,-1.3803,-1.3954,-1.4147,-1.425,-1.4298,-1.4298,-1.3511,-1.2436,-1.1365,-1.0332,-0.9283,-0.8296,-0.8721,-0.9388,-0.9418,-0.9476,-0.9592,-0.9846,-0.928,-0.8811,-0.8923,-0.894,-0.894,-0.894,-0.894,-0.894,-0.894,-0.894,-0.894,-0.894,-0.894,-0.894,-0.894,-0.894,-0.894,-0.894,-0.9805,-1.0781,-1.1978,-1.2856,-1.3511,-1.3727,-1.4589,-1.5018,-1.5018,-1.5351,-1.5458,-1.5458,-1.5785,-1.5891,-1.5891,-1.5891,-1.5891,-1.5891,-1.5891,-1.5891,-1.5891,0.0,0.0,0.0,0.0,0.0,0.0,0.0,0.0,0.0,0.0,0.0,0.0,0.0,0.0,0.0,0.0,0.0,0.0,0.0,0.0,0.0,0.0,0.0,0.0,0.0,0.0,0.0,0.0,0.0,0.0,0.0,0.0,0.0,0.0,0.0,0.0,0.0,0.0,0.0,0.0,0.0,0.0,0.0,0.0,0.0,0.0,0.0,0.0,0.0,0.0,0.0,-1.2705,-1.2705,-1.2705,-1.2759,-1.3043,-1.3206,-1.3387,-1.3797,-1.399,-1.4016,-1.3674,-1.3613,-1.3613,-1.3613,-1.2829,-1.2047,-1.1853,-1.0681,-0.941,-0.8825,-0.8825,-0.8954,-0.8948,-0.9127,-0.924,-0.9429,-0.9051,-0.8743,-0.8828,-0.8899,-0.894,-0.894,-0.894,-0.894,-0.894,-0.894,-0.894,-0.894,-0.894,-0.894,-0.894,-0.894,-0.9154,-0.9699,-1.0895,-1.1982,-1.3181,-1.384,-1.4487,-1.4922,-1.5571,-1.5891,-1.5891,-1.5891,-1.5891,-1.5891,-1.5891,-1.5891,-1.5891,-1.5891,-1.5891,-1.5891,-1.5998,-1.6111,-1.6105,0.0,0.0,0.0,0.0,0.0,0.0,0.0,0.0,0.0,0.0,0.0,0.0,0.0,0.0,0.0,0.0,0.0,0.0,0.0,0.0,0.0,0.0,0.0,0.0,0.0,0.0,0.0,0.0,0.0,0.0,0.0,0.0,0.0,0.0,0.0,0.0,0.0,0.0,0.0,0.0,0.0,0.0,0.0,0.0,0.0,0.0,0.0,0.0,0.0,0.0,-1.2875,-1.2705,-1.2705,-1.2705,-1.2759,-1.3043,-1.3308,-1.3574,-1.3833,-1.3998,-1.3902,-1.2926,-1.2635,-1.2522,-1.2496,-1.1736,-1.1258,-1.2109,-1.076,-0.941,-0.941,-0.8726,-0.8237,-0.8237,0.0,-0.8449,-0.847,-0.8611,-0.8686,-0.871,-0.8845,-0.894,-0.894,-0.894,-0.894,-0.894,-0.894,-0.894,-0.894,-0.9047,-0.9154,-0.9375,-0.9375,-0.9915,-1.1109,-1.2087,-1.329,-1.4385,-1.4385,-1.4922,-1.5891,-1.5891,-1.5891,-1.5891,-1.5891,-1.5891,-1.5891,-1.5891,-1.5891,-1.5998,-1.5998,-1.5998,-1.5992,-1.6318,-1.6324,-1.643,0.0,0.0,0.0,0.0,0.0,0.0,0.0,0.0,0.0,0.0,-1.6132,-1.5768,0.0,0.0,0.0,0.0,0.0,0.0,0.0,0.0,0.0,0.0,0.0,0.0,0.0,0.0,0.0,0.0,0.0,0.0,0.0,0.0,0.0,0.0,0.0,0.0,0.0,0.0,0.0,0.0,0.0,0.0,0.0,0.0,0.0,0.0,0.0,0.0,0.0,0.0,-1.2875,-1.2705,-1.2966,-1.2881,-1.2759,-1.3043,-1.3308,-1.3574,-1.3833,-1.3423,-1.2926,-1.2732,-1.2047,-1.1414,-1.123,-1.0559,0.0,-0.9987,-0.9116,-0.8233,-0.8233,-0.8825,-0.9312,-0.9312,-0.9339,-0.941,-0.956,-0.8927,-0.8567,-0.8696,-0.8845,-0.894,-0.894,-0.894,-0.894,-0.894,-0.894,-0.894,-0.894,-0.9805,-1.0785,-1.1764,-1.1764,-1.2417,-1.3619,-1.3835,-1.4487,-1.5571,-1.5571,-1.5678,-1.5891,-1.5891,-1.5891,-1.5891,-1.5891,-1.5891,-1.5891,-1.5891,-1.5998,-1.6217,-1.6217,-1.6318,-1.6518,-1.663,-1.6624,-1.663,0.0,0.0,0.0,0.0,0.0,0.0,0.0,0.0,-1.6436,-1.6318,-1.6188,-1.5957,-1.5603,-1.5051,0.0,0.0,0.0,0.0,0.0,0.0,0.0,0.0,0.0,0.0,0.0,0.0,-1.5324,-1.5134,0.0,0.0,0.0,-1.5564,-1.5668,0.0,0.0,0.0,0.0,0.0,0.0,0.0,0.0,0.0,0.0,0.0,0.0,0.0,0.0,0.0,0.0,0.0,-1.3052,-1.279,-1.3052,-1.2881,-1.2667,-1.2411,-1.2483,-1.266,-1.3048,-1.2853,-1.2486,-1.2022,-1.1472,-1.088,-1.0305,0.0,0.0,-1.0114,-0.9482,-0.8825,-0.8825,-0.8825,0.0,-0.8726,-0.8726,-0.8752,-0.8833,-0.8582,-0.8428,-0.8574,-0.8726,-0.9064,-0.9798,-0.9265,-0.9154,-0.9805,-0.9805,-0.9805,-0.9805,-1.1004,-1.1869,-1.2413,-1.296,-1.3619,-1.4169,-1.4815,-1.5351,-1.5891,-1.5891,-1.5891,-1.5891,-1.5998,-1.5998,-1.5891,-1.6205,-1.6205,-1.6105,-1.6311,-1.6418,-1.653,-1.653,-1.663,-1.673,-1.6955,-1.6955,-1.6955,0.0,0.0,0.0,0.0,0.0,0.0,0.0,-1.6522,-1.6436,-1.6244,-1.62,-1.6144,-1.5957,-1.5424,-1.4823,0.0,0.0,0.0,0.0,0.0,0.0,0.0,0.0,0.0,0.0,0.0,0.0,-1.4834,-1.5111,0.0,0.0,0.0,0.0,0.0,-1.5307,-1.5076,0.0,0.0,0.0,0.0,0.0,-1.2732,0.0,0.0,0.0,0.0,0.0,0.0,0.0,0.0,-1.3222,-1.2875,-1.3137,-1.296,-1.257,-1.1811,-1.1634,-1.1758,-1.1955,-1.1906,-1.1606,-1.0904,-1.0437,-1.0022,-0.9135,-0.8969,0.0,-1.013,-0.9711,-0.9268,-0.9209,-0.8531,-0.8038,0.0,-0.8038,-0.8038,-0.8038,-0.8174,-0.8323,-0.8465,-0.8618,-0.9197,-1.0546,-0.9805,-0.9809,-1.1,-1.1324,-1.1542,-1.1437,-1.2309,-1.2852,-1.3176,-1.4051,-1.4595,-1.4595,-1.5458,-1.5891,-1.5998,-1.5998,-1.5998,-1.6099,-1.6318,-1.6318,-1.6099,-1.6524,-1.663,-1.6424,-1.663,-1.673,-1.6842,-1.6842,-1.6842,-1.6942,-1.7173,-1.7279,-1.7279,0.0,0.0,0.0,0.0,0.0,0.0,0.0,-1.6522,-1.6436,-1.6244,-1.62,-1.61,-1.5836,-1.5379,-1.4686,0.0,0.0,0.0,0.0,0.0,0.0,0.0,0.0,0.0,0.0,0.0,0.0,-1.5156,-1.5067,0.0,0.0,0.0,0.0,0.0,0.0,-1.5163,-1.5078,0.0,0.0,0.0,0.0,0.0,0.0,0.0,0.0,0.0,0.0,0.0,0.0,0.0,0.0,-1.3313,-1.3392,-1.3052,-1.2534,-1.1607,0.0,0.0,-1.0746,-0.9989,-0.9482,-0.9405,-0.8656,-0.7861,-0.7625,0.0,-0.7806,-0.7897,-0.7921,-0.7969,-0.811,-0.8038,-0.8038,-0.8038,0.0,-0.8038,-0.8038,-0.8174,-0.8323,-0.8465,-0.8618,-0.9197,-1.0546,-1.0562,-1.1,-1.22,-1.3496,-1.4148,-1.384,-1.3948,-1.4487,-1.5565,-1.5672,-1.5785,-1.5785,-1.5891,-1.5998,-1.6217,-1.6217,-1.6424,-1.6624,-1.6624,-1.6624,-1.6624,-1.673,-1.673,-1.663,-1.673,-1.6842,-1.7173,-1.7173,-1.7272,-1.7477,-1.7582,-1.7582,-1.7582,0.0,0.0,0.0,0.0,0.0,0.0,-1.6565,-1.6522,-1.6479,-1.6362,-1.6318,-1.6231,-1.6057,-1.578,-1.522,0.0,0.0,0.0,0.0,0.0,0.0,0.0,0.0,0.0,0.0,0.0,-1.5254,-1.5215,-1.4715,0.0,0.0,0.0,0.0,0.0,0.0,-1.3518,-1.2922,-1.3529,0.0,0.0,0.0,0.0,0.0,0.0,0.0,0.0,0.0,0.0,-1.3352,0.0,0.0,0.0,-1.3398,-1.3222,0.0,0.0,-1.0604,-0.9818,-1.0216,-0.9677,-0.9034,-0.9148,-0.8818,-0.8173,-0.7566,0.0,-0.7461,-0.7461,-0.7648,-0.7831,-0.7889,-0.7977,-0.8038,0.0,0.0,0.0,-0.8038,-0.8189,-0.8386,-0.8336,-0.9108,-1.0212,-1.167,-1.1896,-1.2512,-1.3819,-1.4471,-1.512,-1.5666,-1.5565,-1.5571,-1.5891,-1.5891,-1.5998,-1.6111,-1.6111,-1.6318,-1.6524,-1.6524,-1.663,-1.673,-1.6955,-1.6842,-1.673,-1.7047,-1.716,-1.706,-1.716,-1.7371,-1.7483,-1.7483,-1.7483,-1.7582,-1.7582,-1.7582,-1.7582,0.0,0.0,0.0,0.0,0.0,-1.7031,-1.6565,-1.6522,-1.6479,-1.6392,-1.6392,-1.6362,-1.62,-1.6144,-1.5579,-1.4479,0.0,0.0,0.0,0.0,0.0,0.0,0.0,0.0,0.0,0.0,-1.5235,-1.5264,-1.4588,-1.4154,0.0,0.0,-1.2235,-1.2274,0.0,0.0,0.0,0.0,0.0,0.0,0.0,0.0,0.0,0.0,0.0,0.0,0.0,0.0,0.0,0.0,0.0,0.0,0.0,0.0,0.0,0.0,-1.0019,-0.9003,-0.9318,-0.8906,-0.8399,-0.8524,-0.8461,-0.8192,0.0,0.0,-0.7316,-0.7363,-0.7573,-0.7763,-0.7804,-0.7936,-0.8038,0.0,0.0,-0.8333,-0.8237,-0.8432,-0.8589,-0.8954,-0.9832,-1.1145,-1.3031,-1.3672,-1.4454,-1.5547,-1.566,-1.598,-1.6842,-1.6643,-1.6424,-1.6099,-1.6099,-1.6211,-1.6424,-1.6424,-1.653,-1.6842,-1.6842,-1.6842,-1.6942,-1.7166,-1.7166,-1.6942,-1.7371,-1.7483,-1.7384,-1.7483,-1.7582,-1.7582,-1.7582,-1.7582,-1.7582,-1.7582,-1.7582,-1.7582,0.0,0.0,0.0,0.0,0.0,0.0,0.0,-1.6522,-1.6479,-1.6392,-1.6392,-1.6362,-1.62,-1.62,-1.5724,-1.4595,0.0,0.0,0.0,0.0,0.0,0.0,0.0,0.0,0.0,0.0,-1.5,-1.541,-1.4765,-1.4401,-1.4213,-1.3563,-1.3078,-1.2789,0.0,0.0,0.0,0.0,0.0,0.0,0.0,0.0,0.0,0.0,0.0,0.0,0.0,0.0,0.0,0.0,0.0,0.0,0.0,0.0,0.0,0.0,-1.0096,-0.9488,-0.7665,-0.7143,-0.7143,-0.7143,-0.7143,-0.7143,0.0,-0.7143,-0.7187,-0.7339,-0.7495,-0.7645,-0.7784,-0.7936,-0.8038,-0.8333,0.0,0.0,-0.8726,-0.8825,-0.9283,-1.0457,-1.0852,-1.1978,-1.43,-1.5822,-1.6842,-1.7173,-1.7179,-1.7173,-1.7179,-1.7179,-1.706,-1.673,-1.673,-1.673,-1.673,-1.673,-1.6842,-1.7179,-1.7179,-1.7384,-1.7582,-1.7582,-1.7582,-1.7582,-1.7582,-1.7582,-1.7582,-1.7582,-1.7582,-1.7582,-1.7582,-1.7582,-1.7582,-1.7582,-1.7582,-1.7582,0.0,0.0,0.0,0.0,0.0,0.0,0.0,-1.6522,-1.6479,-1.6479,-1.6479,-1.6436,-1.6392,-1.6044,-1.5591,-1.5152,0.0,0.0,0.0,0.0,0.0,0.0,0.0,0.0,0.0,0.0,-1.482,-1.4765,-1.4112,-1.3494,-1.287,-1.222,-1.1856,-1.1677,-1.1844,-1.1643,0.0,0.0,0.0,0.0,0.0,0.0,-1.2305,0.0,0.0,0.0,0.0,0.0,0.0,0.0,0.0,0.0,0.0,0.0,0.0,0.0,0.0,0.0,-0.8452,-0.7845,-0.7415,-0.7415,-0.7499,-0.7676,-0.7676,-0.7676,-0.7602,-0.7478,-0.7608,-0.7763,-0.7918,-0.8076,-0.8217,-0.8609,-0.941,0.0,0.0,-1.019,-1.0998,-1.0474,-1.2274,-1.431,-1.6243,-1.7002,-1.7371,-1.7483,-1.7483,-1.7483,-1.7483,-1.7483,-1.7272,-1.673,-1.673,-1.6842,-1.706,-1.706,-1.7166,-1.7483,-1.7483,-1.7483,-1.7582,-1.7582,-1.7582,-1.7582,-1.7582,-1.7582,-1.7582,-1.7582,-1.7582,-1.7582,-1.7582,-1.7582,-1.7582,-1.7582,-1.7582,-1.7582,0.0,0.0,0.0,0.0,0.0,0.0,0.0,-1.6522,-1.6522,-1.6522,-1.6522,-1.6522,-1.6522,-1.602,-1.5534,-1.5254,0.0,0.0,0.0,0.0,0.0,0.0,0.0,0.0,0.0,-1.3763,-1.3893,-1.3947,-1.3365,-1.2887,-1.2389,-1.1732,-1.131,-1.1185,-1.149,-1.1365,0.0,0.0,0.0,0.0,0.0,0.0,-1.2305,0.0,0.0,0.0,0.0,0.0,0.0,0.0,0.0,0.0,0.0,0.0,0.0,0.0,-0.9927,-0.9061,0.0,-0.8116,-0.768,-0.768,-0.7768,0.0,0.0,0.0,-0.7856,-0.768,-0.8068,-0.8322,-0.8124,-0.8475,-0.9022,-0.9481,-1.0293,-1.0685,-1.0288,-1.156,-1.2402,-1.2277,-1.4153,-1.5998,-1.7219,-1.7483,-1.7582,-1.7582,-1.7582,-1.7582,-1.7582,-1.7582,-1.7477,-1.7047,-1.7054,-1.716,-1.7378,-1.7378,-1.7483,-1.7582,-1.7582,-1.7582,-1.7582,-1.7582,-1.7582,-1.7582,-1.7582,-1.7582,0.0,-1.7582,-1.7582,-1.7582,-1.7582,-1.7582,-1.7582,-1.7582,-1.7582,-1.7582,0.0,0.0,0.0,0.0,0.0,0.0,0.0,0.0,-1.6522,-1.6522,-1.6522,-1.6522,-1.6522,-1.6064,-1.5522,-1.4949,0.0,0.0,0.0,0.0,0.0,0.0,0.0,0.0,0.0,-1.2518,-1.2569,-1.2946,-1.2647,-1.2512,-1.2451,-1.1856,-1.1498,-1.1303,-1.1303,-1.1247,-1.108,-1.1207,-1.131,-1.1456,-1.177,-1.2058,0.0,0.0,0.0,0.0,0.0,0.0,0.0,0.0,0.0,0.0,0.0,0.0,0.0,0.0,0.0,0.0,0.0,-0.794,-0.794,-0.794,-0.7944,0.0,0.0,0.0,0.0,0.0,0.0,-0.9302,-0.8474,-0.9202,-1.0145,-1.0728,-1.0867,-1.1365,-1.2533,-1.2727,-1.3394,-1.5099,-1.6066,-1.6894,-1.7468,-1.7522,-1.7522,-1.7522,-1.7522,-1.7528,-1.7549,-1.7549,-1.7562,-1.7582,-1.7582,-1.7582,-1.7582,-1.7582,-1.7582,-1.7582,-1.7582,-1.7582,-1.7582,-1.7582,-1.7582,-1.7582,-1.7582,-1.7582,-1.7582,-1.7582,-1.7582,-1.7582,-1.7582,-1.7582,-1.7582,-1.7582,-1.7582,-1.7582,0.0,0.0,0.0,0.0,0.0,0.0,0.0,0.0,0.0,0.0,-1.6522,-1.6522,-1.6522,-1.5768,-1.5187,0.0,0.0,0.0,0.0,0.0,0.0,0.0,0.0,0.0,0.0,-1.2518,-1.2352,-1.2246,-1.2406,-1.2274,-1.1802,-1.1685,-1.156,-1.1498,-1.1373,-1.1122,-1.0905,-1.1368,-1.1499,-1.147,-1.1991,-1.187,0.0,0.0,0.0,0.0,-1.0956,-1.1609,0.0,0.0,0.0,0.0,0.0,0.0,0.0,0.0,-1.0463,-0.9767,-0.951,0.0,-0.8113,-0.8113,-0.8296,-0.8476,0.0,0.0,0.0,0.0,0.0,0.0,0.0,0.0,-1.0224,-1.0815,-1.1651,-1.2339,-1.263,-1.3414,-1.4413,-1.5836,-1.6275,-1.6513,-1.6881,-1.6907,-1.6907,-1.6907,-1.6907,-1.7007,-1.7241,-1.7248,-1.7355,-1.7575,-1.7582,-1.7582,-1.7582,-1.7582,-1.7582,-1.7582,-1.7582,-1.7582,-1.7582,-1.7582,-1.7582,-1.7582,-1.7582,-1.7582,-1.7582,-1.7582,-1.7582,-1.7582,-1.7582,-1.7582,-1.7582,-1.7582,-1.7582,-1.7582,0.0,0.0,0.0,0.0,0.0,0.0,0.0,0.0,0.0,0.0,0.0,0.0,0.0,0.0,0.0,0.0,0.0,0.0,0.0,0.0,0.0,0.0,0.0,-1.1749,-1.1765,-1.1609,-1.1526,-1.1368,-1.1859,-1.1919,-1.1622,-1.1622,-1.1622,-1.1622,-1.1498,-1.1247,-1.0968,-1.1431,-1.1506,-1.1463,-1.1917,0.0,0.0,0.0,0.0,0.0,-1.0501,-1.1135,0.0,-1.1249,-1.1178,-1.1154,0.0,0.0,0.0,0.0,-1.0033,-0.9432,-0.9772,-0.9165,-0.8468,-0.8899,-0.8819,-0.874,0.0,0.0,0.0,0.0,0.0,0.0,0.0,0.0,0.0,-1.1586,-1.2677,-1.3607,-1.4088,-1.4573,-1.5262,-1.6239,-1.6273,-1.6386,-1.6673,-1.6707,-1.6707,-1.6707,-1.6707,-1.6774,-1.6941,-1.6947,-1.7081,-1.7375,-1.7382,-1.7448,-1.7582,-1.7582,-1.7582,-1.7582,-1.7582,-1.7582,-1.7582,-1.7582,-1.7582,-1.7582,-1.7582,-1.7582,-1.7582,-1.7582,-1.7582,-1.7582,-1.7582,-1.7582,-1.7582,-1.7582,-1.7582,-1.7582,0.0,0.0,0.0,0.0,0.0,0.0,0.0,0.0,0.0,0.0,0.0,0.0,0.0,0.0,0.0,0.0,0.0,0.0,0.0,0.0,0.0,0.0,0.0,-1.1209,-1.068,-1.0667,-1.0666,-1.066,-1.1328,-1.1622,-1.1622,-1.1622,-1.1622,-1.1622,-1.1622,-1.1464,-1.1213,-1.1523,-1.1558,-1.1585,-1.1888,0.0,0.0,0.0,0.0,0.0,0.0,0.0,0.0,-1.1668,-1.1515,-1.1154,-1.0207,0.0,0.0,0.0,0.0,0.0,-1.0033,-0.9602,-0.8999,-0.9689,-0.9345,-0.8999,0.0,0.0,0.0,0.0,0.0,0.0,0.0,-1.1472,0.0,-1.2752,-1.3702,-1.4873,-1.5635,-1.5832,-1.5925,-1.6179,-1.6206,-1.6299,-1.6547,-1.6573,-1.6573,-1.6573,-1.6573,-1.6593,-1.664,-1.664,-1.678,-1.7074,-1.7081,-1.7221,-1.7515,-1.7562,-1.7582,-1.7582,-1.7582,-1.7582,-1.7582,-1.7582,-1.7582,-1.7582,-1.7582,-1.7582,-1.7582,-1.7582,-1.7582,-1.7582,-1.7582,-1.7582,-1.7582,-1.7582,-1.7582,-1.7582,0.0,0.0,0.0,0.0,0.0,0.0,0.0,0.0,0.0,0.0,0.0,0.0,0.0,0.0,0.0,0.0,0.0,0.0,0.0,0.0,0.0,0.0,-1.1751,-1.1404,-1.1051,-1.0837,-1.0834,-1.1004,-1.1439,-1.1622,-1.1622,-1.1622,-1.1622,-1.1622,-1.1622,-1.165,-1.1725,-1.1973,-1.215,-1.2332,-1.2632,0.0,0.0,0.0,0.0,0.0,0.0,0.0,0.0,-1.0847,-1.1012,-1.1154,-1.0207,0.0,0.0,0.0,0.0,0.0,-1.1585,-1.0977,-0.9772,-0.9859,-0.9772,-0.9772,-0.9859,0.0,0.0,0.0,0.0,0.0,0.0,-1.226,-1.3399,-1.3453,-1.4627,-1.5635,-1.5737,-1.5832,-1.5845,-1.5892,-1.5899,-1.5912,-1.5959,-1.5965,-1.5965,-1.5965,-1.5965,-1.6072,-1.6326,-1.6339,-1.6473,-1.6767,-1.6774,-1.6914,-1.7215,-1.7462,-1.7582,-1.7582,-1.7582,-1.7582,-1.7582,-1.7582,-1.7582,-1.7582,-1.7582,-1.7582,-1.7582,-1.7582,-1.7582,-1.7582,-1.7582,-1.7582,-1.7582,-1.7582,-1.7582,-1.7582,0.0,0.0,0.0,0.0,0.0,0.0,0.0,0.0,0.0,0.0,0.0,0.0,0.0,0.0,0.0,0.0,0.0,0.0,0.0,0.0,0.0,-1.236,-1.2217,-1.174,-1.0933,-1.0994,-1.1093,-1.1189,-1.1461,-1.1622,-1.1622,-1.1622,-1.1622,-1.163,-1.1736,-1.1832,-1.1811,-1.2298,-1.2452,-1.2544,0.0,0.0,0.0,0.0,0.0,0.0,0.0,0.0,0.0,0.0,-1.0784,-1.0463,-1.0033,0.0,0.0,0.0,0.0,0.0,-1.21,-1.21,-1.1413,-1.1413,-1.1068,-1.0809,-1.1327,0.0,0.0,0.0,0.0,0.0,0.0,0.0,-1.4091,-1.4494,-1.5265,-1.5832,-1.5832,-1.5832,-1.5832,-1.5832,-1.5832,-1.5832,-1.5832,-1.5832,-1.5832,-1.5832,-1.5832,-1.5885,-1.6025,-1.6032,-1.6166,-1.6466,-1.6473,-1.6613,-1.6907,-1.7041,-1.7268,-1.7582,-1.7582,-1.7582,-1.7582,-1.7582,-1.7582,-1.7582,-1.7582,-1.7582,-1.7582,-1.7582,-1.7582,-1.7582,-1.7582,-1.7689,-1.7856,-1.8016,-1.8076,-1.8076,0.0,0.0,0.0,0.0,0.0,0.0,0.0,0.0,0.0,0.0,0.0,0.0,0.0,0.0,0.0,0.0,0.0,0.0,0.0,0.0,-1.3125,-1.2626,-1.2502,-1.2027,-1.1075,-1.1229,-1.1346,-1.1421,-1.1559,-1.1622,-1.1622,-1.1622,-1.1604,-1.1684,-1.1926,-1.2058,-1.21,-1.2582,-1.2763,-1.2714,0.0,0.0,0.0,0.0,0.0,0.0,0.0,0.0,0.0,0.0,0.0,0.0,0.0,0.0,0.0,-1.0809,-1.0636,-1.0376,-1.2448,-1.2875,-1.2784,-1.3039,-1.2351,-1.1843,-1.2534,0.0,0.0,0.0,0.0,0.0,0.0,-1.3355,-1.4716,-1.5304,-1.5585,-1.5752,-1.5818,-1.5832,-1.5832,-1.5832,-1.5832,-1.5832,-1.5832,-1.5832,-1.5832,-1.5832,-1.5832,-1.5832,-1.5832,-1.5832,-1.5932,-1.6159,-1.6166,-1.6313,-1.66,-1.6607,-1.6901,-1.7482,-1.7482,-1.7515,-1.7582,-1.7582,-1.7549,-1.7482,-1.7482,-1.7442,-1.7375,-1.7375,-1.7375,-1.7388,-1.7455,-1.7716,-1.807,-1.8303,-1.843,-1.849,0.0,0.0,0.0,0.0,0.0,0.0,0.0,0.0,0.0,0.0,0.0,0.0,0.0,0.0,0.0,0.0,0.0,0.0,0.0,0.0,-1.266,-1.2593,-1.2259,-1.194,-1.1713,-1.1575,-1.1571,-1.1764,-1.167,-1.1622,-1.1622,-1.1622,-1.1721,-1.1999,-1.1956,-1.2372,-1.2943,-1.2987,-1.3184,-1.3382,-1.2666,0.0,0.0,0.0,0.0,0.0,0.0,0.0,0.0,0.0,0.0,0.0,0.0,0.0,-0.8999,-1.0809,-1.0636,-1.0463,-1.3222,-1.3464,-1.319,-1.4055,-1.3464,0.0,-1.2705,-1.2619,0.0,-1.2619,0.0,0.0,0.0,-1.4236,-1.4716,-1.5304,-1.5418,-1.5524,-1.5792,-1.5832,-1.5832,-1.5832,-1.5832,-1.5832,-1.5832,-1.5832,-1.5832,-1.5832,-1.5832,-1.5832,-1.5832,-1.5832,-1.5838,-1.5858,-1.5865,-1.6005,-1.6299,-1.6306,-1.66,-1.7181,-1.7181,-1.7321,-1.7582,-1.7582,-1.7435,-1.7181,-1.7181,-1.7021,-1.6767,-1.6767,-1.6767,-1.68,-1.7074,-1.7535,-1.805,-1.807,-1.8257,-1.849,0.0,0.0,0.0,0.0,0.0,0.0,0.0,0.0,0.0,0.0,0.0,0.0,0.0,0.0,0.0,0.0,0.0,0.0,0.0,0.0,-1.319,-1.3323,-1.2783,-1.2419,-1.2292,-1.211,-1.1989,-1.1996,-1.1747,-1.1622,-1.163,-1.1765,-1.1919,-1.205,-1.246,-1.2775,-1.3023,-1.3221,-1.3382,-1.3492,-1.3193,-1.2746,0.0,0.0,0.0,0.0,0.0,0.0,0.0,0.0,-1.1577,-1.1144,0.0,0.0,-1.0202,-1.2083,-1.2339,-1.2425,-1.4062,-1.4139,-1.3964,-1.4475,-1.4139,0.0,0.0,-1.3717,-1.3724,-1.3568,-1.3828,0.0,-1.4237,-1.4579,-1.4919,-1.5507,-1.5552,-1.569,-1.5988,-1.5927,-1.5832,-1.5832,-1.5832,-1.5832,-1.5832,-1.5927,-1.6028,-1.5832,-1.5927,-1.6028,-1.5832,-1.6393,-1.6487,-1.5825,-1.6393,-1.6819,-1.6947,-1.6279,-1.649,-1.7591,-1.7089,-1.7231,-1.7943,-1.734,-1.7677,-1.8751,-1.8067,-1.8095,-1.8565,-1.8565,-1.8565,-1.8496,-1.8232,-1.7798,-1.7535,-1.7909,-1.8116,-1.8243,0.0,0.0,0.0,0.0,0.0,0.0,0.0,0.0,0.0,0.0,0.0,0.0,0.0,0.0,0.0,0.0,0.0,0.0,-1.4283,-1.3999,-1.3819,-1.378,-1.329,-1.2897,-1.2621,-1.2498,-1.2305,-1.2182,-1.1809,-1.1737,-1.184,-1.1933,-1.208,-1.2365,-1.2811,-1.3067,-1.3177,-1.3404,-1.3492,-1.3499,-1.3193,-1.2882,0.0,0.0,0.0,0.0,0.0,0.0,0.0,0.0,0.0,0.0,0.0,0.0,0.0,0.0,-1.3366,-1.362,-1.4391,-1.465,-1.4657,0.0,0.0,0.0,-1.4482,-1.4398,-1.4398,-1.4243,-1.425,-1.4328,-1.4482,-1.4668,-1.4995,-1.5476,-1.5514,-1.564,-1.604,-1.5967,-1.5927,-1.5927,-1.6021,-1.6021,-1.6021,-1.6211,-1.6218,-1.6116,-1.6211,-1.64,-1.6473,-1.7131,-1.7225,-1.6842,-1.7404,-1.7785,-1.7785,-1.7131,-1.724,-1.813,-1.7584,-1.7695,-1.8185,-1.7789,-1.8309,-1.9469,-1.8798,-1.8834,-1.9407,-1.9407,-1.947,-1.9492,-1.895,-1.8476,-1.8105,-1.8122,-1.8297,-1.8495,0.0,0.0,0.0,0.0,0.0,0.0,0.0,0.0,0.0,0.0,0.0,0.0,0.0,0.0,0.0,0.0,0.0,0.0,-1.4314,-1.4566,-1.443,-1.3864,-1.3602,-1.3216,-1.2621,-1.2621,-1.2498,-1.2305,-1.1996,-1.1981,-1.2303,-1.2108,-1.2387,-1.3009,-1.3016,-1.3192,-1.3492,-1.3492,-1.3492,-1.3426,-1.2606,-1.2485,-1.2752,0.0,0.0,0.0,0.0,0.0,0.0,0.0,0.0,0.0,0.0,0.0,0.0,0.0,-1.3451,-1.3535,-1.4223,-1.4741,-1.4999,0.0,0.0,0.0,-1.4566,-1.4398,-1.4398,-1.4398,-1.4566,-1.4734,-1.4734,-1.4734,-1.4839,-1.5154,-1.5293,-1.5424,-1.5633,-1.6026,-1.6218,-1.6224,-1.64,-1.6588,-1.6588,-1.6588,-1.6588,-1.6588,-1.6588,-1.7037,-1.794,-1.7863,-1.8141,-1.9039,-1.8964,-1.8788,-1.8788,-1.8796,-1.8796,-1.8788,-1.8788,-1.8596,-1.8277,-1.9244,-1.9534,-1.9202,-1.9202,-1.9105,-1.8796,-1.8796,-1.8986,-1.9202,-1.9202,-1.9524,-1.993,-1.8947,-1.8948,-1.9384,0.0,0.0,0.0,0.0,0.0,0.0,0.0,0.0,0.0,0.0,0.0,0.0,0.0,0.0,0.0,0.0,0.0,0.0,-1.5235,-1.4904,-1.479,-1.4917,-1.4455,-1.3872,-1.3277,-1.2797,-1.2498,-1.2305,-1.2357,-1.2406,-1.2512,-1.2923,-1.3248,-1.3452,-1.3543,-1.3628,-1.3717,-1.3572,-1.3631,-1.3836,-1.3604,-1.3335,-1.3236,0.0,0.0,0.0,0.0,0.0,0.0,0.0,0.0,0.0,0.0,0.0,0.0,-1.4566,-1.4824,-1.4824,-1.5082,-1.5082,0.0,0.0,0.0,0.0,0.0,-1.4915,0.0,0.0,-1.465,-1.4741,-1.4915,-1.4999,-1.5106,-1.5598,-1.5547,-1.562,-1.6155,-1.6211,-1.6251,-1.6466,-1.6407,-1.64,-1.6588,-1.6588,-1.6588,-1.6588,-1.7419,-1.787,-1.8033,-1.9314,-1.9861,-1.9405,-2.0051,-2.0232,-2.0051,-1.9322,-1.9413,-2.0051,-2.0051,-1.9895,-1.9657,-1.937,-1.987,-2.0893,-2.0403,-2.0443,-2.0817,-2.0817,-2.0053,-1.9031,-1.9678,-1.9625,-1.9186,-1.9047,-1.9167,-1.9208,0.0,0.0,0.0,0.0,0.0,0.0,0.0,0.0,0.0,0.0,0.0,0.0,0.0,0.0,0.0,0.0,0.0,0.0,0.0,-1.5279,-1.5022,-1.505,-1.4469,-1.3812,-1.3155,-1.2943,-1.2711,-1.2641,-1.2662,-1.2829,-1.3099,-1.3454,-1.3653,-1.3782,-1.3772,-1.3797,-1.3805,-1.3712,-1.3806,-1.3996,-1.4128,-1.4052,-1.4027,0.0,0.0,0.0,0.0,0.0,0.0,0.0,0.0,0.0,0.0,0.0,0.0,-1.5257,-1.5431,-1.5347,-1.5257,0.0,0.0,0.0,-1.5173,-1.5257,-1.5257,0.0,0.0,0.0,-1.4908,-1.4999,-1.5173,-1.5257,-1.5322,-1.5687,-1.5562,-1.5597,-1.607,-1.6154,-1.6465,-1.7014,-1.7152,-1.7412,-1.7956,-1.8048,-1.8048,-1.8048,-1.8696,-1.9239,-1.9497,-2.0503,-2.1051,-2.0773,-2.1329,-2.1507,-2.1329,-2.0692,-2.0692,-2.1329,-2.1248,-2.1159,-2.0988,-2.052,-2.0889,-2.183,-2.1257,-2.1266,-2.1741,-2.1741,-2.0997,-1.9985,-2.0628,-2.0529,-1.992,-1.9668,-1.9747,-1.9763,0.0,0.0,0.0,0.0,0.0,0.0,0.0,0.0,0.0,0.0,0.0,0.0,0.0,0.0,0.0,0.0,0.0,0.0,0.0,0.0,-1.5235,-1.4715,-1.4028,-1.3327,-1.2731,-1.302,-1.3155,-1.3187,-1.2985,-1.3224,-1.3824,-1.3739,-1.3853,-1.4129,-1.3935,-1.3878,-1.393,-1.4007,-1.4094,-1.4175,-1.4469,-1.4778,-1.4984,-1.4984,0.0,0.0,0.0,0.0,0.0,0.0,0.0,0.0,0.0,0.0,0.0,-1.5431,-1.5431,-1.5347,-1.5173,0.0,0.0,0.0,-1.5082,0.0,-1.5431,-1.5264,-1.509,-1.509,-1.5257,-1.5431,-1.5431,-1.5431,-1.5431,-1.5506,-1.5495,-1.5519,-1.5627,-1.6138,-1.6867,-1.7776,-1.8435,-1.919,-2.009,-2.0124,-2.0141,-2.0232,-2.0296,-2.0639,-2.164,-2.1425,-2.1771,-2.2688,-2.2503,-2.2328,-2.2328,-2.2328,-2.2347,-2.2385,-2.2217,-2.2148,-2.2185,-2.2097,-2.2097,-2.2097,-2.183,-2.1642,-2.1553,-2.1651,-2.1642,-2.1553,-2.1642,-2.1741,-2.1642,-2.0718,-2.0563,-2.0712,0.0,0.0,0.0,0.0,0.0,0.0,0.0,0.0,0.0,0.0,0.0,0.0,0.0,0.0,0.0,0.0,0.0,0.0,0.0,0.0,-1.6134,-1.6019,-1.5144,-1.4391,-1.3706,-1.355,-1.3616,-1.3894,-1.3818,-1.3897,-1.4047,-1.4261,-1.4426,-1.4497,-1.4361,-1.4444,-1.4618,-1.4538,-1.4797,-1.5291,-1.5367,-1.5602,-1.5816,-1.5636,-1.5591,0.0,0.0,0.0,0.0,0.0,0.0,0.0,0.0,-1.5431,-1.5431,-1.5431,-1.5431,-1.5431,0.0,-1.5347,0.0,0.0,-1.534,-1.5431,-1.5431,-1.5347,-1.5347,-1.5347,-1.5347,-1.5431,-1.5431,-1.5431,-1.5582,-1.6304,-1.5884,-1.5775,-1.6692,-1.6931,-1.7212,-1.7659,-1.8507,-1.9254,-1.9715,-1.9898,-2.0059,-2.0232,-2.0598,-2.0965,-2.1236,-2.1551,-2.1897,-2.2074,-2.2074,-2.1897,-2.1729,-2.1729,-2.1901,-2.2227,-2.2227,-2.2399,-2.2882,-2.2362,-2.2097,-2.2097,-2.183,-2.1275,-2.0628,-2.1365,-2.1275,-2.0709,-2.1365,-2.1741,-2.1651,-2.1463,-2.1419,-2.1364,0.0,0.0,0.0,0.0,0.0,0.0,0.0,0.0,0.0,0.0,0.0,0.0,0.0,0.0,0.0,0.0,0.0,0.0,0.0,0.0,-1.5974,-1.5772,-1.5519,-1.5232,-1.4852,-1.4569,-1.4453,-1.4643,-1.4415,-1.4363,-1.4363,-1.4554,-1.4569,-1.4577,-1.4605,-1.4704,-1.4899,-1.4988,-1.5255,-1.5591,-1.5759,-1.5934,-1.6087,-1.5824,-1.5741,-1.5831,-1.5665,0.0,0.0,0.0,0.0,0.0,0.0,0.0,-1.5431,-1.5431,-1.5431,-1.5431,0.0,0.0,0.0,0.0,0.0,-1.5431,-1.5431,-1.5431,-1.5506,-1.5906,-1.5665,-1.5431,-1.5431,-1.5748,-1.6139,-1.6617,-1.6706,-1.686,-1.7524,-1.7705,-1.8045,-1.8659,-1.935,-2.0015,-2.0643,-2.0834,-2.0866,-2.103,-2.1286,-2.1513,-2.1513,-2.1742,-2.1885,-2.1885,-2.1885,-2.1802,-2.1709,-2.1709,-2.1826,-2.2049,-2.1964,-2.1986,-2.2217,-2.2358,-2.2377,-2.2376,-2.2002,-2.1544,-2.0997,-2.1463,-2.1365,-2.0997,-2.1553,-2.1741,-2.1741,-2.1741,-2.1741,-2.1697,0.0,0.0,0.0,0.0,0.0,0.0,0.0,0.0,0.0,0.0,0.0,0.0,0.0,0.0,0.0,0.0,0.0,0.0,0.0,0.0,0.0,-1.5458,-1.5742,-1.5836,-1.5707,-1.5288,-1.5069,-1.5069,-1.4765,-1.4569,-1.4569,-1.4569,-1.4673,-1.4672,-1.4898,-1.502,-1.5161,-1.5575,-1.5774,-1.5771,-1.6055,-1.617,-1.617,-1.5906,-1.5989,-1.6087,-1.5824,-1.5741,-1.5741,-1.5741,0.0,0.0,0.0,0.0,-1.5431,-1.5431,-1.5431,-1.5431,0.0,0.0,0.0,0.0,-1.5506,0.0,-1.5423,-1.5673,-1.5989,-1.6542,-1.6147,-1.5665,-1.5831,-1.6468,-1.6935,-1.7098,-1.7594,-1.8078,-1.8158,-1.8434,-1.8971,-1.9706,-2.0237,-2.0828,-2.1685,-2.1846,-2.1885,-2.1885,-2.1816,-2.1777,-2.1777,-2.1699,-2.166,-2.166,-2.166,-2.166,-2.166,-2.166,-2.1699,-2.1777,-2.168,-2.1499,-2.1427,-2.2303,-2.2637,-2.256,-2.2208,-2.2008,-2.182,-2.1731,-2.1741,-2.1741,-2.1741,-2.1741,-2.1741,-2.1741,-2.1741,-2.1786,0.0,0.0,0.0,0.0,0.0,0.0,0.0,0.0,0.0,0.0,0.0,0.0,0.0,0.0,0.0,0.0,0.0,0.0,-1.736,0.0,0.0,-1.6779,-1.6355,-1.5842,-1.5306,-1.4862,-1.4704,-1.4704,-1.4617,-1.4569,0.0,-1.4569,-1.4808,-1.511,-1.5165,-1.5515,-1.5992,-1.6087,-1.63,-1.6585,-1.6632,-1.6656,-1.6574,-1.6394,-1.6312,-1.6312,-1.6079,-1.6087,-1.6087,-1.6087,-1.5914,0.0,0.0,0.0,-1.5431,-1.5431,-1.5431,-1.5431,0.0,0.0,0.0,0.0,-1.5982,-1.6304,0.0,0.0,-1.7432,-1.6862,-1.6617,-1.6788,-1.7513,-1.7755,-1.8078,-1.8816,-1.8407,-1.8238,-1.9054,-1.9179,-1.9216,-1.9375,-2.0396,-2.1157,-2.1318,-2.166,-2.1885,-2.1885,-2.1533,-2.1318,-2.1318,-2.0957,-2.0742,-2.0742,-2.0742,-2.0742,-2.0742,-2.0742,-2.0937,-2.1328,-2.1699,-2.1997,-2.2337,-2.2084,-2.1947,-2.1929,-2.2054,-2.2176,-2.2264,-2.1909,-2.183,-2.2008,-2.182,-2.1741,-2.1741,-2.1741,-2.1741,-2.1741,0.0,0.0,0.0,0.0,0.0,0.0,0.0,0.0,0.0,0.0,0.0,0.0,0.0,0.0,0.0,-1.742,-1.7453,-1.7578,-1.785,-1.8411,-1.8417,-1.7818,-1.7855,-1.7742,-1.7398,-1.683,-1.6515,-1.6515,-1.6097,0.0,0.0,-1.5999,-1.5875,-1.5205,-1.5586,-1.5928,-1.6222,-1.642,-1.6823,-1.7367,-1.6894,-1.7286,-1.7997,-1.6878,-1.6796,-1.7196,-1.6484,-1.6245,-1.6245,-1.6245,-1.6079,-1.5914,-1.5914,0.0,0.0,0.0,-1.5582,-1.5582,-1.5423,0.0,0.0,0.0,-1.646,-1.6698,-1.6796,-1.744,-1.7997,-1.8158,-1.8158,-1.8158,-1.7997,-1.8407,-1.8816,-1.9222,-1.9371,-1.9599,-2.001,-2.001,-2.001,-2.001,-2.0497,-2.0859,-2.0859,-2.1035,-2.1143,-2.1143,-2.0967,-2.0859,-2.0859,-2.0674,-2.0566,-2.0566,-2.0566,-2.0566,-2.0566,-2.0566,-2.0664,-2.0859,-2.1055,-2.124,-2.1426,-2.1494,-2.1719,-2.2007,-2.1864,-2.176,-2.1674,-2.1502,-2.1547,-2.1664,-2.1577,-2.1627,-2.1741,-2.183,-2.1919,-2.1919,0.0,0.0,0.0,0.0,0.0,0.0,0.0,0.0,0.0,0.0,0.0,0.0,0.0,0.0,0.0,0.0,-1.8174,-1.8251,-1.8462,-1.9028,-1.9169,-1.8751,-1.8889,-1.8931,-1.8798,-1.8104,-1.7745,-1.785,0.0,0.0,-1.6832,-1.7506,-1.7193,0.0,-1.6669,-1.6872,-1.6971,-1.7251,-1.7764,-1.823,-1.7602,-1.8158,-1.9177,-1.7666,-1.7594,-1.8238,-1.7196,-1.6952,-1.7115,-1.6878,-1.664,-1.6492,-1.6492,-1.6335,0.0,0.0,0.0,-1.6064,0.0,0.0,0.0,-1.678,-1.7025,-1.7188,0.0,-1.8318,-1.8807,-1.9222,-1.946,-1.945,-1.8798,-1.9204,-1.9618,-1.9618,-2.0167,-2.0566,-2.0566,-2.0566,-2.0566,-2.0566,-2.0566,-2.0566,-2.0566,-2.0566,-2.0566,-2.0566,-2.0566,-2.0566,-2.0566,-2.0566,-2.0566,-2.0566,-2.0566,-2.0566,-2.0566,-2.0566,-2.0566,-2.0566,-2.0566,-2.0566,-2.0576,-2.0908,-2.1335,-2.1771,-2.1582,-2.146,-2.1387,-2.122,-2.1315,-2.1418,-2.1435,-2.1493,-2.178,-2.1971,-2.2097,-2.2185,0.0,0.0,0.0,0.0,0.0,0.0,0.0,0.0,0.0,0.0,0.0,0.0,-1.7912,-1.7966,-1.8152,-1.8611,-1.8654,-1.8862,-1.9291,-1.9641,-1.977,-1.9573,-1.871,0.0,-1.8037,-1.7345,-1.7116,0.0,0.0,0.0,-1.8119,-1.8515,-1.8699,-1.8632,-1.8669,-1.8811,-1.9149,-1.9177,-1.9177,-1.9265,-1.9177,-1.9256,-1.9265,-1.9177,-1.9177,-1.9107,-1.823,-1.847,-1.9027,-1.8238,-1.7764,-1.7619,-1.7619,-1.6894,-1.6087,0.0,0.0,0.0,0.0,-1.7269,0.0,-1.7674,-1.7917,0.0,-1.7997,-1.9283,-2.0245,-1.946,-1.9932,-2.0489,-2.0479,-2.0489,-2.0566,-2.0566,-2.0566,-2.0566,-2.0566,-2.0566,-2.0566,-2.0566,-2.0566,-2.0566,-2.0566,-2.0566,-2.0566,-2.0566,-2.0566,-2.0566,-2.0566,-2.0566,-2.0566,-2.0566,-2.0566,-2.0566,-2.0566,-2.0566,-2.0566,-2.0566,-2.0566,-2.0566,-2.0566,-2.0586,-2.0625,-2.0713,-2.1279,-2.1627,-2.1802,-2.1387,-2.1313,-2.1527,-2.1409,-2.1577,-2.1825,-2.1771,-2.1998,-2.2353,0.0,0.0,0.0,0.0,0.0,0.0,0.0,0.0,0.0,0.0,0.0,0.0,0.0,-1.9064,-1.9267,-1.9754,-1.968,-1.9628,-1.9738,-1.9912,-1.9878,-1.9605,-1.9264,-1.9132,-1.9295,-1.8952,0.0,0.0,0.0,-1.9311,-1.9295,-1.9984,-2.0124,-1.985,-1.9375,-1.9206,-1.9335,-1.9335,-1.958,-2.006,-1.9502,-1.9972,-2.0769,-1.9737,-1.9659,-1.9982,-1.9107,-1.9027,-1.9265,-1.8939,-1.8789,-1.8709,-1.8709,-1.847,-1.8158,-1.7908,-1.798,-1.8052,0.0,0.0,0.0,-1.8647,-1.8807,-1.8975,-1.952,-2.0157,-2.0489,-2.0177,-2.0411,-2.0566,-2.0566,-2.0566,-2.0566,-2.0566,-2.0566,-2.0566,-2.0566,-2.0566,-2.0566,-2.0566,-2.0566,-2.0566,-2.0566,-2.0566,-2.0566,-2.0566,-2.0566,-2.0566,-2.0566,-2.0566,-2.0566,-2.0566,-2.0566,-2.0566,-2.0566,-2.0566,-2.0566,-2.0566,-2.0566,-2.0566,-2.0566,-2.0566,-2.0566,-2.0576,-2.0819,-2.0956,-2.1035,-2.0876,-2.097,-2.1077,-2.1066,-2.1362,-2.1845,-2.2006,-2.2311,-2.2618,0.0,0.0,0.0,0.0,0.0,0.0,0.0,0.0,0.0,-2.0349,0.0,0.0,0.0,0.0,-2.0007,-2.0274,-2.02,-2.014,-2.0237,-2.0248,-2.0191,-2.0084,-2.0005,-2.0018,-2.0125,0.0,0.0,0.0,0.0,0.0,0.0,-2.1043,-2.1196,-2.0934,-2.0372,-2.0129,-2.0129,-2.0129,-2.045,-2.0857,-2.0372,-2.0769,-2.1645,-2.0527,-2.0459,-2.0857,-1.9982,-1.9894,-2.0051,-1.9816,-1.9737,-1.9737,-1.9737,-1.9502,-1.9335,-1.9344,-1.9256,-1.9177,-1.9265,0.0,0.0,0.0,-1.9548,-1.9539,-2.0411,-2.0566,-2.0566,-2.0566,-2.0566,-2.0566,-2.0566,-2.0566,-2.0566,-2.0566,-2.0566,-2.0566,-2.0566,-2.0566,-2.0566,-2.0566,-2.0566,-2.0566,-2.0566,-2.0566,-2.0566,-2.0566,-2.0566,-2.0566,-2.0566,-2.0566,-2.0566,-2.0566,-2.0566,-2.0566,-2.0566,-2.0566,-2.0566,-2.0566,-2.0566,-2.0566,-2.0566,-2.0566,-2.0566,-2.0566,-2.0566,-2.0566,-2.0566,-2.0566,-2.0664,-2.0796,-2.087,-2.1183,-2.1597,-2.1834,-2.2236,-2.2679,0.0,0.0,0.0,0.0,0.0,0.0,0.0,0.0,-2.1499,-2.1524,0.0,0.0,0.0,0.0,0.0,-2.0183,-2.0183,-2.0391,-2.0917,-2.0747,-2.0748,-2.1009,-2.0857,-2.0644,-2.0441,0.0,0.0,0.0,0.0,0.0,0.0,0.0,-2.1807,-2.1807,-2.1807,-2.1807,-2.1807,-2.1807,-2.1807,-2.1807,-2.1807,-2.1807,-2.1807,-2.1807,-2.1807,-2.1721,-2.0857,-2.1098,-2.1645,-2.0857,-2.0537,-2.0537,-2.0537,-1.9982,-1.9502,-2.0079,-2.0245,-2.0401,0.0,0.0,0.0,-2.0664,-2.0108,-1.9539,-2.0401,-2.0566,-2.0566,-2.0566,-2.0566,-2.0566,-2.0566,-2.0566,-2.0566,-2.0566,-2.0566,-2.0566,-2.0566,-2.0566,-2.0566,-2.0566,-2.0566,-2.0566,-2.0566,-2.0566,-2.0566,-2.0566,-2.0566,-2.0566,-2.0566,-2.0566,-2.0566,-2.0566,-2.0566,-2.0566,-2.0566,-2.0566,-2.0566,-2.0566,-2.0566,-2.0566,-2.0566,-2.0566,-2.0566,-2.0566,-2.0566,-2.0566,-2.0566,-2.0566,-2.0566,-2.0605,-2.0816,-2.0989,-2.1209,-2.1215,-2.1709,-2.25,0.0,0.0,0.0,0.0,0.0,0.0,0.0,0.0,-2.2133,0.0,0.0,0.0,-2.2561,-2.2357,-2.2079,-2.204,-2.1498,-2.1243,-2.1374,-2.1315,-2.1381,-2.1441,-2.1231,-2.1169,-2.1343,0.0,0.0,0.0,0.0,0.0,0.0,0.0,0.0,0.0,-2.1807,-2.1807,-2.1807,-2.1807,-2.1807,-2.1807,-2.1807,-2.1807,-2.1807,-2.1807,-2.1807,-2.1807,-2.1492,-2.1568,-2.1731,-2.1492,-2.1405,-2.1405,-2.1405,-2.1328,-2.1165,-2.1328,-2.1339,-2.1339,-2.1425,0.0,0.0,0.0,0.0,0.0,-2.0566,-2.0566,-2.0566,-2.0566,-2.0566,-2.0566,-2.0566,-2.0566,-2.0566,-2.0566,-2.0566,-2.0566,-2.0566,-2.0566,-2.0566,-2.0566,-2.0566,-2.0566,-2.0566,-2.0566,-2.0566,-2.0566,-2.0566,-2.0566,-2.0566,-2.0566,-2.0566,-2.0566,-2.0566,-2.0566,-2.0566,-2.0566,-2.0566,-2.0566,-2.0566,-2.0566,-2.0566,-2.0566,-2.0566,-2.0566,-2.0566,-2.0566,-2.0566,-2.0566,-2.0566,-2.0576,-2.0625,-2.0868,-2.117,-2.1205,-2.1607,-2.2109,0.0,0.0,0.0,0.0,0.0,0.0,0.0,-2.2962,-2.3054,0.0,0.0,0.0,-2.3777,-2.3677,-2.3542,-2.322,-2.2791,-2.2594,-2.2822,-2.2764,-2.2646,-2.2495,-2.2221,-2.1991,-2.184,0.0,0.0,0.0,0.0,0.0,0.0,0.0,0.0,0.0,0.0,0.0,-2.1807,-2.1807,-2.1807,-2.1807,-2.1807,-2.1807,-2.1807,-2.1807,-2.1807,-2.1807,-2.1807,-2.1807,-2.1807,-2.1807,-2.1807,-2.1807,-2.1807,-2.1807,-2.1807,-2.1807,-2.1807,-2.1731,-2.1578,-2.1436,-2.1282,-2.0984,0.0,0.0,-2.0644,-2.0566,-2.0566,-2.0566,-2.0566,-2.0566,-2.0566,-2.0566,-2.0566,-2.0566,-2.0566,-2.0566,-2.0566,-2.0566,-2.0566,-2.0566,-2.0566,-2.0566,-2.0566,-2.0566,-2.0566,-2.0566,-2.0566,-2.0566,-2.0566,-2.0566,-2.0566,-2.0566,-2.0566,-2.0566,-2.0566,-2.0566,-2.0566,-2.0566,-2.0566,-2.0566,-2.0566,-2.0566,-2.0566,-2.0566,-2.0566,-2.0566,-2.0566,-2.0566,-2.0566,-2.0566,-2.0566,-2.0723,-2.0957,-2.0957,-2.123,-2.165,0.0,0.0,0.0,0.0,0.0,0.0,0.0,-2.3825,-2.4217,0.0,-2.4713,-2.5052,-2.4938,-2.4911,-2.4613,-2.4025,-2.3954,-2.4195,-2.4635,-2.4522,-2.4295,-2.3952,-2.3588,-2.3095,-2.2392,0.0,0.0,0.0,0.0,0.0,0.0,0.0,0.0,0.0,0.0,0.0,-2.2025,-2.1949,-2.1949,-2.2025,-2.1883,-2.1807,-2.1807,-2.1807,-2.1807,-2.1807,-2.1807,-2.1807,-2.1807,-2.1807,-2.1807,-2.1807,-2.1807,-2.1807,-2.1807,-2.1807,-2.1807,-2.1731,-2.1578,-2.1359,-2.1205,-2.0984,-2.0741,0.0,-2.0644,-2.0566,-2.0566,-2.0566,-2.0566,-2.0566,-2.0566,-2.0566,-2.0566,-2.0566,-2.0566,-2.0566,-2.0566,-2.0566,-2.0566,-2.0566,-2.0566,-2.0566,-2.0566,-2.0566,-2.0566,-2.0566,-2.0566,-2.0566,-2.0566,-2.0566,-2.0566,-2.0566,-2.0566,-2.0566,-2.0566,-2.0566,-2.0566,-2.0566,-2.0566,-2.0566,-2.0566,-2.0566,-2.0566,-2.0566,-2.0566,-2.0566,-2.0566,-2.0566,-2.0566,-2.0566,-2.0566,-2.0566,-2.0566,-2.0566,-2.082,-2.1172,-2.3303,0.0,0.0,0.0,0.0,0.0,0.0,-2.4439,-2.4792,-2.4792,-2.5301,-2.5631,-2.561,-2.5472,-2.5331,-2.5186,-2.5066,-2.5035,-2.5143,-2.5155,-2.5051,-2.5004,-2.4791,-2.4492,-2.4204,-2.3956,0.0,0.0,0.0,0.0,0.0,0.0,0.0,0.0,0.0,0.0,-2.361,-2.2979,-2.3128,-2.3537,-2.2317,-2.1807,-2.1807,-2.1807,-2.1807,-2.1807,-2.1807,-2.1807,-2.1807,-2.1807,-2.1807,-2.1807,-2.1807,-2.1807,-2.1807,-2.1807,-2.1807,-2.1731,-2.1578,-2.1512,-2.1359,-2.0984,-2.0906,0.0,-2.0644,-2.0566,-2.0566,-2.0566,-2.0566,-2.0566,-2.0566,-2.0566,-2.0566,-2.0566,-2.0566,-2.0566,-2.0566,-2.0566,-2.0566,-2.0566,-2.0566,-2.0566,-2.0566,-2.0566,-2.0566,-2.0566,-2.0566,-2.0566,-2.0566,-2.0566,-2.0566,-2.0566,-2.0566,-2.0566,-2.0566,-2.0566,-2.0566,-2.0566,-2.0566,-2.0566,-2.0566,-2.0566,-2.0566,-2.0566,-2.0566,-2.0566,-2.0566,-2.0566,-2.0566,-2.0566,-2.0566,-2.0566,-2.0566,-2.0566,-2.0625,-2.0752,-2.4526,0.0,0.0,0.0,0.0,0.0,0.0,0.0,-2.5393,-2.5393,-2.589,-2.636,-2.6648,-2.6581,-2.6537,-2.6537,-2.6455,-2.6414,-2.6414,-2.6414,-2.6208,-2.5861,-2.5639,-2.5276,-2.4707,-2.4564,0.0,0.0,0.0,0.0,0.0,0.0,0.0,0.0,0.0,0.0,0.0,-2.3694,-2.3768,-2.3975,-2.2456,-2.2241,-2.2894,-2.2542,-2.2402,-2.2402,-2.2402,-2.2101,-2.1807,-2.1807,-2.1807,-2.1807,-2.1807,-2.1807,-2.1807,-2.1807,-2.1807,-2.1731,-2.1578,-2.1436,-2.1282,-2.0984,-2.0819,0.0,0.0,-2.0566,-2.0566,-2.0566,-2.0566,-2.0566,-2.0566,-2.0566,-2.0566,-2.0566,-2.0566,-2.0566,-2.0566,-2.0566,-2.0566,-2.0566,-2.0566,-2.0566,-2.0566,-2.0566,-2.0566,-2.0566,-2.0566,-2.0566,-2.0566,-2.0566,-2.0566,-2.0566,-2.0566,-2.0566,-2.0566,-2.0566,-2.0566,-2.0566,-2.0566,-2.0566,-2.0566,-2.0566,-2.0566,-2.0566,-2.0566,-2.0566,-2.0566,-2.0566,-2.0566,-2.0566,-2.0566,-2.0566,-2.0566,-2.0566,-2.0566,-2.0596,-2.6048,0.0,0.0,0.0,0.0,0.0,0.0,0.0,-2.602,-2.6138,-2.6556,-2.7013,-2.7471,-2.7523,-2.7523,-2.7523,-2.7523,-2.7523,-2.7523,-2.7523,-2.7255,-2.6633,-2.6414,-2.5918,-2.5146,-2.5063,-2.485,0.0,0.0,0.0,0.0,0.0,0.0,0.0,0.0,0.0,0.0,-2.4409,-2.4409,-2.4409,-2.2894,-2.2957,-2.4047,-2.3412,-2.3213,-2.3213,-2.3213,-2.2767,-2.2241,-2.2101,-2.2101,-2.2166,-2.1873,-2.1883,-2.2035,-2.1883,-2.1807,-2.1731,-2.1578,-2.1359,-2.1205,-2.0984,-2.0819,-2.0644,0.0,0.0,0.0,-2.0566,-2.0566,-2.0566,-2.0566,-2.0566,-2.0566,-2.0566,-2.0566,-2.0566,-2.0566,-2.0566,-2.0566,-2.0566,-2.0566,-2.0566,-2.0566,-2.0566,-2.0566,-2.0566,-2.0566,-2.0566,-2.0566,-2.0566,-2.0566,-2.0566,-2.0566,-2.0566,-2.0566,-2.0566,-2.0566,-2.0566,-2.0566,-2.0566,-2.0566,-2.0566,-2.0566,-2.0566,-2.0566,-2.0566,-2.0566,-2.0566,-2.0566,-2.0566,-2.0566,-2.0566,-2.0566,-2.0566,-2.0566,-2.0566,-2.6821,-2.5648,0.0,0.0,0.0,0.0,0.0,0.0,-2.6765,-2.7262,-2.7392,-2.7458,-2.7523,-2.7523,-2.7523,-2.7523,-2.7523,-2.7523,-2.7523,-2.7523,-2.7456,-2.739,-2.7066,-2.6875,-2.6726,-2.6577,-2.6013,0.0,0.0,0.0,0.0,0.0,0.0,0.0,-2.6233,-2.6233,-2.6164,-2.5441,-2.5594,-2.6094,-2.448,-2.3975,-2.412,-2.3975,-2.3975,-2.3975,-2.3975,-2.3902,-2.3756,-2.3054,-2.3276,-2.361,-2.2241,-2.2327,-2.2703,-2.2025,-2.1807,-2.1731,-2.1578,-2.1502,-2.1349,-2.0984,-2.0906,-2.0819,-2.0644,0.0,-2.0566,-2.0566,0.0,-2.0566,-2.0566,0.0,0.0,-2.0566,-2.0566,-2.0566,-2.0566,-2.0566,-2.0566,-2.0566,-2.0566,-2.0566,-2.0566,-2.0566,-2.0566,-2.0566,-2.0566,-2.0566,-2.0566,-2.0566,-2.0566,-2.0566,-2.0566,-2.0566,-2.0566,-2.0566,-2.0566,-2.0566,-2.0566,-2.0566,-2.0566,-2.0566,-2.0566,-2.0566,-2.0566,-2.0566,-2.0566,-2.0566,-2.0566,-2.0566,-2.0566,-2.0566,-2.0566,-2.0566,-2.0566,-2.0566,-2.7455,-2.6599,0.0,0.0,0.0,0.0,0.0,0.0,-2.7262,-2.7497,-2.7523,-2.7523,-2.7523,-2.7523,-2.7523,-2.7523,-2.7523,-2.7523,-2.7523,-2.7523,-2.7523,-2.7523,-2.7403,-2.7214,-2.7024,-2.6943,-2.6589,0.0,-2.6151,0.0,0.0,0.0,0.0,0.0,-2.6533,-2.6533,-2.6465,-2.6164,-2.6164,-2.6452,-2.5791,-2.5499,-2.5429,-2.4992,-2.4791,-2.4719,-2.4264,-2.4108,-2.4047,-2.3768,-2.3829,-2.3963,-2.3316,-2.3401,-2.3486,-2.2692,-2.2478,-2.2402,-2.1807,-2.1949,-2.2004,-2.1425,-2.1405,-2.1395,-2.0886,-2.0654,-2.0566,-2.0566,0.0,0.0,0.0,0.0,0.0,0.0,-2.0566,-2.0566,-2.0566,-2.0566,-2.0566,-2.0566,-2.0566,-2.0566,-2.0566,-2.0566,-2.0566,-2.0566,-2.0566,-2.0566,-2.0566,-2.0566,-2.0566,-2.0566,-2.0566,-2.0566,-2.0566,-2.0566,-2.0566,-2.0566,-2.0566,-2.0566,-2.0566,-2.0566,-2.0566,-2.0566,-2.0566,-2.0566,-2.0566,-2.0566,-2.0566,-2.0566,-2.0566,-2.0566,-2.0566,-2.0566,-2.0566,-2.0566,-2.8596,-2.7686,-2.6918,0.0,0.0,0.0,0.0,-2.7262,-2.7523,-2.7523,-2.7523,-2.7523,-2.7523,-2.7523,-2.7523,-2.7523,-2.7523,-2.7523,-2.7523,-2.7523,-2.7523,-2.7523,-2.7469,-2.7335,-2.7079,-2.7024,-2.6875,0.0,0.0,0.0,0.0,0.0,0.0,0.0,0.0,-2.6533,-2.6533,-2.6533,-2.6533,-2.6533,-2.6533,-2.6533,-2.6465,-2.5886,-2.5594,-2.5523,-2.4992,-2.4767,-2.4696,-2.448,-2.4552,-2.4696,-2.4264,-2.4264,-2.4276,-2.3486,-2.3276,-2.3202,-2.2606,-2.2745,-2.2883,-2.2014,-2.1993,-2.1897,-2.1041,-2.0731,-2.0566,-2.0566,-2.0566,0.0,0.0,0.0,-2.0566,-2.0566,0.0,-2.0566,-2.0566,-2.0566,-2.0566,-2.0566,-2.0566,-2.0566,-2.0566,-2.0566,-2.0566,-2.0566,-2.0566,-2.0566,-2.0566,-2.0566,-2.0566,-2.0566,-2.0566,-2.0566,-2.0566,-2.0566,-2.0566,-2.0566,-2.0566,-2.0566,-2.0566,-2.0566,-2.0566,-2.0566,-2.0566,-2.0566,-2.0566,-2.0566,-2.0566,-2.0566,-2.0566,-2.0566,-2.0566,-2.0566,-2.0566,-2.0566,-3.0526,-2.8923,-2.7813,-2.8319,-2.7868,-2.7497,-2.7497,-2.7523,-2.7523,-2.7523,-2.7523,-2.7523,-2.7523,-2.7523,-2.7523,-2.7523,-2.7523,-2.7523,-2.7523,-2.7523,-2.7523,-2.7523,-2.7403,-2.7268,-2.7268,-2.7079,-2.6875,-2.6714,0.0,0.0,0.0,0.0,0.0,0.0,-2.6533,-2.6533,-2.6533,-2.6533,-2.6533,-2.6533,-2.6533,-2.6533,-2.6533,-2.6452,-2.6452,-2.6452,-2.6452,-2.6452,-2.6314,-2.5523,-2.5816,-2.6164,-2.4624,-2.4636,-2.5087,-2.4264,-2.4047,-2.4047,-2.4036,-2.4036,-2.3818,-2.2872,-2.251,-2.2145,-2.1128,-2.0731,-2.0566,-2.0566,-2.0566,-2.0566,-2.0566,-2.0566,-2.0566,-2.0566,-2.0566,0.0,0.0,-2.0566,-2.0566,-2.0566,-2.0566,-2.0566,-2.0566,-2.0566,-2.0566,-2.0566,-2.0566,-2.0566,-2.0566,-2.0566,-2.0566,-2.0566,-2.0566,-2.0566,-2.0566,-2.0566,-2.0566,-2.0566,-2.0566,-2.0566,-2.0566,-2.0566,-2.0566,-2.0566,-2.0566,-2.0566,-2.0566,-2.0566,-2.0566,-2.0566,-2.0566,-2.0566,-2.0566,-2.0566,-2.0566,-2.0566,-3.1219,-3.029,-2.9355,-2.8634,-2.7973,-2.7523,-2.7523,-2.7523,-2.7523,-2.7523,-2.7523,-2.7523,-2.7523,-2.7523,-2.7523,-2.7523,-2.7523,-2.7523,-2.7523,-2.7523,-2.7523,-2.7523,-2.7469,-2.7403,-2.7268,-2.7079,-2.6875,-2.6714,-2.6714,0.0,0.0,0.0,0.0,0.0,0.0,-2.6533,-2.6533,-2.6533,-2.6533,-2.6533,-2.6533,-2.6533,-2.6533,-2.6533,-2.6533,-2.6533,-2.6533,-2.6533,-2.6452,-2.6176,-2.6245,-2.6383,-2.5873,-2.5873,-2.5955,-2.5146,-2.4862,-2.4791,-2.4264,-2.4492,-2.4707,-2.3829,-2.3452,-2.3095,-2.2295,-2.1405,-2.0819,-2.0819,-2.0654,-2.0566,-2.0566,-2.0566,-2.0566,-2.0566,-2.0566,-2.0566,0.0,-2.0566,-2.0566,-2.0566,-2.0566,-2.0566,-2.0566,-2.0566,-2.0566,-2.0566,-2.0566,-2.0566,-2.0566,-2.0566,-2.0566,-2.0566,-2.0566,-2.0566,-2.0566,-2.0566,-2.0566,-2.0566,-2.0566,-2.0566,-2.0566,-2.0566,-2.0566,-2.0566,-2.0566,-2.0566,-2.0566,-2.0566,-2.0566,-2.0566,-2.0566,-2.0566,-2.0566,-2.0566,-2.0566,-2.0566,-3.1482,-3.097,-3.0208,-2.9345,-2.8468,-2.7776,-2.7523,-2.7523,-2.7523,-2.7523,-2.7523,-2.7523,-2.7523,-2.7523,-2.7523,-2.7523,-2.7523,-2.7523,-2.7523,-2.7523,-2.7523,-2.7523,-2.7523,-2.7469,-2.7403,-2.7214,-2.7011,-2.6794,-2.6726,-2.6658,0.0,0.0,0.0,0.0,0.0,-2.6533,-2.6533,-2.6533,-2.6533,-2.6533,-2.6533,-2.6533,-2.6533,-2.6533,-2.6533,-2.6533,-2.6533,-2.6533,-2.6533,-2.6533,-2.6533,-2.6533,-2.6533,-2.6533,-2.6383,-2.5886,-2.5746,-2.5594,-2.5063,-2.5358,-2.5511,-2.4707,-2.4337,-2.3891,-2.2957,-2.1928,-2.1195,-2.0906,-2.0731,-2.0722,-2.0934,-2.0789,-2.0722,-2.1021,-2.0789,-2.0566,0.0,-2.0566,-2.0566,-2.0566,-2.0566,-2.0566,-2.0566,-2.0566,-2.0566,-2.0566,-2.0566,-2.0566,-2.0566,-2.0566,-2.0566,-2.0566,-2.0566,-2.0566,-2.0566,-2.0566,-2.0566,-2.0566,-2.0566,-2.0566,-2.0566,-2.0566,-2.0566,-2.0566,-2.0566,-2.0566,-2.0566,-2.0566,-2.0566,-2.0566,-2.0566,-2.0566,-2.0566,-2.0566,-2.0566,-2.0566,-3.1482,-3.097,-3.0524,-3.0524,-2.9407,-2.8287,-2.7656,-2.7523,-2.7523,-2.7523,-2.7523,-2.7523,-2.7523,-2.7523,-2.7523,-2.7523,-2.7523,-2.7523,-2.7523,-2.7523,-2.7523,-2.7523,-2.7523,-2.7523,-2.7523,-2.7403,-2.7214,-2.7024,-2.6794,0.0,0.0,0.0,0.0,0.0,-2.6533,-2.6533,-2.6533,-2.6533,-2.6533,-2.6533,-2.6533,-2.6533,-2.6533,-2.6533,-2.6533,-2.6533,-2.6533,-2.6533,-2.6533,-2.6533,-2.6533,-2.6533,-2.6533,-2.6533,-2.6533,-2.6533,-2.6533,-2.6533,-2.6533,-2.6533,-2.6314,-2.5523,-2.5004,-2.442,-2.3095,-2.236,-2.169,-2.1128,-2.0809,-2.0867,-2.169,-2.1165,-2.0867,-2.1614,-2.1088,-2.0566,-2.0566,-2.0566,-2.0566,-2.0566,-2.0566,-2.0566,-2.0566,-2.0566,-2.0566,-2.0566,-2.0566,-2.0566,-2.0566,-2.0566,-2.0566,-2.0566,-2.0566,-2.0644,-2.0644,-2.0644,-2.0644,-2.0644,-2.0644,-2.0644,-2.0644,-2.0644,-2.0644,-2.0644,-2.0644,-2.0644,-2.0566,-2.0566,-2.0566,-2.0566,-2.0566,-2.0566,-2.0566,-2.0566,-2.0566,-2.0566,-3.1482,-3.1351,-3.1087,-3.0584,-2.9407,-2.8417,-2.8287,-2.7842,-2.7523,-2.7523,-2.7523,-2.7523,-2.7523,-2.7523,-2.7523,-2.7523,-2.7523,-2.7523,-2.7523,-2.7523,-2.7523,-2.7523,-2.7523,-2.7523,-2.7523,-2.7403,-2.7268,-2.7214,-2.6863,-2.6658,-2.6658,0.0,0.0,0.0,0.0,-2.6533,-2.6533,-2.6533,-2.6533,-2.6533,-2.6533,-2.6533,-2.6533,-2.6533,-2.6533,-2.6533,-2.6533,-2.6533,-2.6533,-2.6533,-2.6533,-2.6533,-2.6533,-2.6533,-2.6533,-2.6533,-2.6533,-2.6533,-2.6533,-2.6533,-2.6465,-2.6245,-2.5664,-2.5016,-2.4492,-2.3672,-2.3021,-2.2767,-2.208,-2.1538,-2.1766,-2.1165,-2.0634,-2.0867,-2.0712,-2.0566,-2.0566,-2.0566,-2.0566,-2.0566,-2.0566,-2.0566,-2.0566,-2.0566,-2.0566,-2.0566,-2.0566,-2.0566,-2.0566,-2.0566,-2.0566,-2.0566,-2.0566,-2.0867,-2.1461,-2.0867,-2.0867,-2.1461,-2.0867,-2.0944,-2.1461,-2.1461,-2.1461,-2.1461,-2.1461,-2.1165,-2.0566,-2.0566,-2.0566,-2.0566,-2.0566,-2.0566,-2.0566,-2.0566,-2.0566,-2.0566,-3.1482,-3.1482,-3.1409,-3.1029,-3.0086,-2.9282,-2.8967,-2.8338,-2.7908,-2.7908,-2.7908,-2.7749,-2.7183,-2.7406,-2.7366,-2.6804,-2.6791,-2.6883,-2.7144,-2.7157,-2.7262,-2.7523,-2.7523,-2.7523,-2.7523,-2.7403,-2.7335,-2.7268,-2.7066,-2.6863,-2.6714,0.0,0.0,0.0,0.0,-2.6533,-2.6533,-2.6533,-2.6533,-2.6533,-2.6533,-2.6533,0.0,-2.6533,-2.6533,-2.6533,-2.6533,-2.6533,-2.6533,-2.6533,-2.6533,-2.6533,-2.6533,-2.6533,-2.6533,-2.6533,-2.6533,-2.6533,-2.6533,-2.6533,-2.6533,-2.6533,-2.6107,-2.5606,-2.5241,-2.4492,-2.3829,-2.3486,-2.2809,-2.2424,-2.2723,-2.1907,-2.1021,-2.0644,-2.0566,-2.0566,-2.0566,-2.0566,-2.0566,-2.0566,-2.0566,-2.0566,-2.0566,-2.0566,-2.0566,-2.0566,-2.0566,-2.0712,-2.1088,-2.1088,-2.1318,-2.1614,-2.169,-2.1842,-2.236,-2.1918,-2.169,-2.1832,-2.169,-2.169,-2.1832,-2.2134,-2.2134,-2.1832,-2.1832,-2.1308,-2.0566,-2.0566,-2.0566,-2.0566,-2.0566,-2.0566,-2.0566,-2.0566,-2.0566,-2.0566,-3.1482,-3.1482,-3.1482,-3.1482,-3.1029,-3.045,-2.9827,-2.9156,-2.857,-2.8438,-2.8488,-2.8002,-2.675,-2.7229,-2.7153,-2.5926,-2.5887,-2.6096,-2.653,-2.6556,-2.6817,-2.7392,-2.7419,-2.7458,-2.7523,-2.7523,-2.7469,-2.7335,-2.7335,-2.7134,0.0,0.0,0.0,0.0,0.0,0.0,-2.6533,-2.6533,-2.6533,-2.6533,-2.6533,-2.6533,-2.6533,-2.6533,-2.6533,-2.6533,-2.6533,-2.6533,-2.6533,-2.6533,-2.6533,-2.6533,-2.6533,-2.6533,-2.6533,-2.6533,-2.6533,-2.6533,-2.6533,-2.6533,-2.6533,-2.6533,-2.6396,-2.6131,-2.5535,-2.5016,-2.4409,-2.3891,-2.3463,-2.3316,-2.3975,-2.2947,-2.1766,-2.1011,-2.0944,-2.0944,-2.0944,-2.0944,-2.0944,-2.0944,-2.0789,0.0,-2.0799,-2.0644,-2.0566,-2.0566,-2.0566,-2.0944,-2.1766,-2.1832,-2.2134,-2.2957,-2.3032,-2.3032,-2.3032,-2.3032,-2.266,-2.1983,-2.266,-2.266,-2.2134,-2.2809,-2.2723,-2.2134,-2.1983,-2.1461,-2.0712,-2.0644,-2.0566,-2.0566,-2.0566,-2.0566,-2.0566,-2.0566,-2.0566,-2.0566,-3.1482,-3.1482,-3.1482,-3.1482,-3.1409,-3.1278,-3.1161,-3.0086,-2.8962,-2.7993,-2.8222,-2.7865,-2.6146,-2.6932,-2.7133,-2.5887,-2.6233,-2.6396,-2.5968,-2.5968,-2.6229,-2.6791,-2.6831,-2.704,-2.7523,-2.7523,-2.7456,-2.7469,-2.7335,-2.7201,0.0,0.0,0.0,0.0,0.0,0.0,-2.6533,-2.6533,-2.6533,-2.6533,-2.6533,-2.6533,-2.6533,-2.6533,-2.6533,-2.6533,-2.6533,-2.6533,-2.6533,-2.6533,-2.6533,-2.6533,-2.6533,-2.6533,-2.6533,-2.6533,-2.6533,-2.6533,-2.6533,-2.6533,-2.6533,-2.6533,-2.6465,-2.6396,-2.6119,-2.584,-2.5535,-2.5312,-2.4564,-2.3975,-2.4047,-2.339,-2.2734,-2.2574,-2.2585,-2.2585,-2.2585,-2.2585,-2.2585,-2.2585,-2.1983,-2.1614,-2.1614,-2.1011,-2.0566,-2.0566,-2.0566,-2.0944,-2.1766,-2.1832,-2.2134,-2.2957,-2.3032,-2.3032,-2.3032,-2.3032,-2.2957,-2.2809,-2.2947,-2.3243,-2.3672,-2.3818,-2.3818,-2.3672,-2.3021,-2.236,-2.1538,-2.0867,-2.0566,-2.0566,-2.0566,-2.0566,-2.0566,-2.0566,-2.0566,-2.0566,-3.1482,-3.1482,-3.1482,-3.1482,-3.1482,-3.1482,-3.1482,-3.097,-3.0113,-2.881,-2.8576,-2.7947,-2.6408,-2.7113,-2.7159,-2.5918,-2.6065,-2.6246,-2.6267,-2.6294,-2.6565,-2.7114,-2.7141,-2.7287,-2.7573,-2.7522,-2.7538,-2.7523,-2.7469,-2.7335,-2.7146,-2.6943,0.0,0.0,0.0,-2.6533,-2.6533,-2.6533,-2.6533,-2.6533,-2.6533,-2.6533,-2.6533,-2.6533,-2.6533,-2.6533,-2.6533,-2.6533,-2.6533,-2.6533,-2.6533,-2.6533,-2.6533,-2.6533,-2.6533,-2.6533,-2.6533,-2.6533,-2.6533,-2.6533,-2.6533,-2.6533,-2.6533,-2.6465,-2.6396,-2.6201,-2.598,-2.5828,-2.5312,-2.4719,-2.4337,-2.3902,-2.3463,-2.3158,-2.3021,-2.3032,-2.3032,-2.3032,-2.3032,-2.3032,-2.266,-2.2285,-2.1832,-2.1461,-2.1242,-2.1242,-2.1242,-2.1756,-2.2936,-2.301,-2.3379,-2.4204,-2.4204,-2.4204,-2.4204,-2.4204,-2.3975,-2.361,-2.3975,-2.412,-2.4108,-2.4564,-2.4492,-2.4047,-2.3316,-2.2809,-2.236,-2.1538,-2.1021,-2.0566,-2.0566,-2.0566,-2.0566,-2.0566,-2.0566,-2.0566,-3.1482,-3.1482,-3.1482,-3.1482,-3.1482,-3.1526,-3.1719,-3.1556,-3.1055,-2.9711,-2.9245,-2.8467,-2.7088,-2.7648,-2.7625,-2.6328,-2.6228,-2.6355,-2.6722,-2.6582,-2.6792,-2.7379,-2.7407,-2.745,-2.7584,-2.7707,-2.7755,-2.7709,-2.771,-2.7656,-2.7523,-2.7214,-2.693,-2.6714,-2.6589,-2.6521,-2.6533,-2.6533,-2.6533,-2.6533,-2.6533,-2.6533,-2.6533,-2.6533,-2.6533,-2.6533,-2.6533,-2.6533,-2.6533,-2.6533,-2.6533,-2.6533,-2.6533,-2.6533,-2.6533,-2.6533,-2.6533,-2.6533,-2.6533,-2.6533,-2.6533,-2.6533,-2.6533,-2.6533,-2.6533,-2.6339,-2.6131,-2.591,-2.5758,-2.5382,-2.4779,-2.4564,-2.4264,-2.3818,-2.361,-2.3548,-2.3548,-2.3548,-2.3548,-2.3548,-2.339,-2.2947,-2.2349,-2.1983,-2.1907,-2.2274,-2.1983,-2.2424,-2.3818,-2.4036,-2.448,-2.5241,-2.5312,-2.5241,-2.5087,-2.5312,-2.5004,-2.4108,-2.4933,-2.5004,-2.442,-2.5004,-2.4862,-2.4047,-2.3316,-2.2809,-2.2435,-2.1842,-2.1165,-2.0566,-2.0566,-2.0566,-2.0566,-2.0566,-2.0566,-2.0566,-3.1482,-3.1482,-3.1482,-3.1482,-3.1482,-3.1676,-3.2332,-3.1913,-3.104,-2.9842,-3.0054,-2.9631,-2.7896,-2.8718,-2.8925,-2.774,-2.758,-2.7334,-2.6807,-2.6231,-2.6147,-2.6764,-2.6792,-2.7029,-2.7614,-2.8144,-2.8437,-2.8432,-2.8389,-2.8352,-2.8157,-2.759,-2.7066,-2.6714,-2.6714,-2.6589,-2.6533,-2.6533,-2.6533,-2.6533,-2.6533,-2.6533,-2.6533,-2.6533,-2.6533,-2.6533,-2.6533,-2.6533,-2.6533,-2.6533,-2.6533,-2.6533,-2.6533,-2.6533,-2.6533,-2.6533,-2.6533,-2.6533,-2.6533,-2.6533,-2.6533,-2.6533,-2.6533,-2.6533,-2.6533,-2.6339,-2.6131,-2.591,-2.5758,-2.5606,-2.5535,-2.5465,-2.5465,-2.5382,-2.5382,-2.5382,-2.5382,-2.5382,-2.5382,-2.5382,-2.4564,-2.3963,-2.3891,-2.2649,-2.2349,-2.3745,-2.2574,-2.2209,-2.3032,-2.3756,-2.448,-2.5241,-2.5465,-2.5158,-2.4192,-2.5312,-2.5241,-2.4108,-2.5087,-2.5465,-2.5158,-2.5241,-2.4862,-2.4047,-2.3316,-2.2134,-2.0789,-2.0712,-2.0634,-2.0566,-2.0566,-2.0566,-2.0566,-2.0566,-2.0566,-2.0566,-3.2048,-3.2123,-3.2243,-3.2647,-3.2706,-3.2796,-3.3066,-3.2886,-3.2557,-3.2035,-3.1498,-3.0681,-2.9532,-2.9826,-2.9803,-2.8961,-2.8862,-2.8552,-2.7925,-2.7608,-2.7404,-2.7258,-2.7243,-2.7335,-2.7597,-2.8211,-2.8521,-2.8531,-2.89,-2.8839,-2.8417,-2.8039,-2.7523,-2.6863,-2.6726,-2.6658,-2.6589,-2.6521,-2.6533,-2.6533,-2.6533,-2.6533,-2.6533,-2.6533,-2.6533,-2.6533,-2.6533,-2.6533,-2.6533,-2.6533,-2.6533,-2.6533,-2.6533,-2.6533,-2.6533,-2.6533,-2.6533,-2.6533,-2.6533,-2.6533,-2.6533,-2.6533,-2.6533,-2.6533,-2.6533,-2.6465,-2.6327,-2.6131,-2.591,-2.584,-2.591,-2.584,-2.5828,-2.591,-2.584,-2.5758,-2.5758,-2.5758,-2.5758,-2.5758,-2.5465,-2.4933,-2.4337,-2.3745,-2.3379,-2.3463,-2.2872,-2.3021,-2.4276,-2.4791,-2.5158,-2.5465,-2.5688,-2.5606,-2.5158,-2.5535,-2.5535,-2.5158,-2.5312,-2.5465,-2.5465,-2.5382,-2.4647,-2.339,-2.3106,-2.2059,-2.0644,-2.1088,-2.1011,-2.0566,-2.0566,-2.0566,-2.0566,-2.0566,-2.0566,-2.0566,-3.2706,-3.2796,-3.2946,-3.341,-3.3499,-3.3559,-3.3754,-3.3784,-3.3858,-3.4053,-3.3275,-3.2287,-3.121,-3.1091,-3.0836,-3.0208,-2.9968,-2.9654,-2.919,-2.8981,-2.8667,-2.8188,-2.821,-2.807,-2.791,-2.8539,-2.8855,-2.8811,-2.9305,-2.935,-2.9093,-2.8597,-2.7908,-2.7079,-2.6863,-2.6794,-2.6714,-2.6589,-2.6533,-2.6533,-2.6533,-2.6533,-2.6533,-2.6533,-2.6533,-2.6533,-2.6533,-2.6533,-2.6533,-2.6533,-2.6533,-2.6533,-2.6533,-2.6533,-2.6533,-2.6533,-2.6533,-2.6533,-2.6533,-2.6533,-2.6533,-2.6533,-2.6533,-2.6533,-2.6533,-2.6533,-2.6465,-2.627,-2.6062,-2.605,-2.6131,-2.6062,-2.605,-2.6213,-2.6062,-2.598,-2.598,-2.598,-2.598,-2.598,-2.591,-2.5606,-2.4933,-2.4636,-2.4337,-2.3913,-2.361,-2.3975,-2.5004,-2.5382,-2.5606,-2.5688,-2.591,-2.598,-2.591,-2.5898,-2.5898,-2.591,-2.5676,-2.5606,-2.5606,-2.5158,-2.4348,-2.3316,-2.2872,-2.1983,-2.1021,-2.1318,-2.1088,-2.0566,-2.0566,-2.0566,-2.0566,-2.0566,-2.0566,-2.0566,-3.3484,-3.3484,-3.3484,-3.3499,-3.3499,-3.3709,-3.4367,-3.4472,-3.4711,-3.5385,-3.5474,-3.4696,-3.2706,-3.2497,-3.2228,-3.1511,-3.0881,-3.0492,-3.0477,-2.9909,-2.9564,-2.9564,-2.9564,-2.9265,-2.8607,-2.9235,-2.9579,-2.9594,-2.9519,-2.9841,-3.0464,-2.9093,-2.8105,-2.7268,-2.7079,-2.6875,-2.6714,-2.6589,-2.6533,-2.6533,-2.6533,-2.6533,-2.6533,-2.6533,-2.6533,-2.6533,-2.6533,-2.6533,-2.6533,-2.6533,-2.6533,-2.6533,-2.6533,-2.6533,-2.6533,-2.6533,-2.6533,-2.6533,-2.6533,-2.6533,-2.6533,-2.6533,-2.6533,-2.6533,-2.6533,-2.6533,-2.6465,-2.627,-2.6213,-2.6213,-2.6213,-2.6213,-2.6213,-2.6213,-2.6213,-2.6213,-2.6213,-2.6213,-2.6213,-2.6213,-2.598,-2.591,-2.591,-2.5158,-2.5016,-2.5828,-2.5158,-2.4564,-2.4409,-2.5158,-2.5688,-2.591,-2.6062,-2.6131,-2.591,-2.6314,-2.6314,-2.591,-2.6131,-2.598,-2.5535,-2.4564,-2.4108,-2.3963,-2.2499,-2.1832,-2.168,-2.0944,-2.0644,-2.0566,-2.0566,-2.0566,-2.0566,-2.0566,-2.0566,-2.0566,-3.4068,-3.4158,-3.4322,-3.4786,-3.4861,-3.4936,-3.5145,-3.5175,-3.525,-3.5474,-3.5504,-3.4921,-3.335,-3.3185,-3.2736,-3.1571,-3.133,-3.1001,-3.0537,-3.0313,-3.0028,-2.9609,-2.9579,-2.949,-2.928,-2.9879,-3.0208,-3.0208,-3.0639,-3.0764,-3.0464,-2.958,-2.8776,-2.8105,-2.7815,-2.7377,-2.6875,-2.6602,-2.6533,-2.6533,-2.6533,-2.6533,-2.6533,-2.6533,-2.6533,-2.6533,-2.6533,-2.6533,-2.6533,-2.6533,-2.6533,-2.6533,-2.6533,-2.6533,-2.6533,-2.6533,-2.6533,-2.6533,-2.6533,-2.6533,-2.6533,-2.6533,-2.6533,-2.6533,-2.6533,-2.6533,-2.6465,-2.6396,-2.6396,-2.6396,-2.6396,-2.6396,-2.6396,-2.6396,-2.6396,-2.6396,-2.6396,-2.6396,-2.6396,-2.6396,-2.6327,-2.6258,-2.6131,-2.584,-2.5688,-2.5688,-2.5453,-2.5382,-2.5382,-2.5688,-2.591,-2.6131,-2.6131,-2.627,-2.6327,-2.5872,-2.5685,-2.5672,-2.5562,-2.5485,-2.5535,-2.4707,-2.4264,-2.4036,-2.3021,-2.266,-2.2585,-2.1756,-2.1385,-2.1385,-2.0789,-2.0566,-2.0566,-2.0566,-2.0566,-2.0566,-3.4786,-3.4861,-3.4996,-3.5429,-3.5504,-3.5504,-3.5504,-3.5504,-3.5504,-3.5504,-3.5504,-3.4996,-3.3649,-3.3499,-3.2961,-3.1644,-3.1482,-3.1287,-3.0911,-3.0896,-3.0717,-3.0328,-3.0313,-3.0193,-2.9939,-3.0313,-3.0507,-3.0507,-3.1195,-3.1161,-3.0524,-3.0072,-2.9518,-2.8839,-2.8325,-2.7815,-2.7323,-2.6782,-2.6521,-2.6533,-2.6533,-2.6533,-2.6533,-2.6533,-2.6533,-2.6533,-2.6533,-2.6533,-2.6533,-2.6533,-2.6533,-2.6533,-2.6533,-2.6533,-2.6533,-2.6533,-2.6533,-2.6533,-2.6533,-2.6533,-2.6533,-2.6533,-2.6533,-2.6533,-2.6533,-2.6533,-2.6533,-2.6533,-2.6533,-2.6533,-2.6533,-2.6533,-2.6533,-2.6533,-2.6533,-2.6533,-2.6533,-2.6533,-2.6533,-2.6533,-2.6533,-2.6465,-2.6339,-2.6339,-2.6188,-2.5968,-2.5758,-2.5647,-2.5797,-2.5672,-2.5741,-2.5946,-2.5759,-2.5715,-2.585,-2.5365,-2.519,-2.531,-2.4992,-2.4964,-2.5091,-2.4706,-2.4425,-2.4213,-2.3677,-2.3243,-2.2957,-2.2134,-2.1614,-2.1308,-2.0789,-2.0566,-2.0566,-2.0566,-2.0566,-2.0566,-3.5504,-3.5504,-3.5504,-3.5504,-3.5504,-3.5504,-3.5504,-3.5504,-3.5504,-3.5504,-3.5504,-3.4996,-3.3649,-3.3499,-3.2961,-3.1644,-3.1482,-3.1482,-3.1482,-3.1482,-3.1482,-3.1482,-3.1482,-3.124,-3.0582,-3.0567,-3.0567,-3.0567,-3.121,-3.1161,-3.0584,-3.0584,-3.0208,-2.9518,-2.8776,-2.8338,-2.8051,-2.7229,-2.6782,-2.6658,-2.6589,-2.6589,-2.6589,-2.6521,-2.6533,-2.6533,-2.6533,-2.6533,-2.6533,-2.6533,-2.6533,-2.6533,-2.6533,-2.6533,-2.6533,-2.6533,-2.6533,-2.6533,-2.6533,-2.6533,-2.6533,-2.6533,-2.6533,-2.6533,-2.6533,-2.6533,-2.6533,-2.6533,-2.6533,-2.6533,-2.6533,-2.6533,-2.6533,-2.6533,-2.6533,-2.6533,-2.6533,-2.6533,-2.6533,-2.6533,-2.6533,-2.6533,-2.6533,-2.6533,-2.6452,-2.6402,-2.59,-2.5573,-2.5548,-2.519,-2.519,-2.5548,-2.5071,-2.4755,-2.482,-2.4782,-2.4757,-2.4757,-2.4551,-2.4381,-2.4312,-2.4603,-2.4675,-2.4426,-2.4141,-2.3627,-2.2977,-2.2124,-2.1385,-2.0644,-2.0644,-2.0566,-2.0566,-2.0566,-2.0566,-2.0566,-3.5504,-3.5504,-3.5504,-3.5504,-3.5504,-3.5504,-3.5504,-3.5504,-3.5504,-3.5504,-3.5504,-3.4996,-3.3649,-3.3499,-3.2961,-3.1644,-3.1482,-3.1482,-3.1482,-3.1482,-3.1482,-3.1482,-3.1482,-3.1465,-3.13,-3.1228,-3.1228,-3.1228,-3.1392,-3.1409,-3.1278,-3.1278,-3.0896,-3.0269,-2.9964,-2.9532,-2.8967,-2.8634,-2.8427,-2.8363,-2.767,-2.7417,-2.7351,-2.6714,-2.6533,-2.6533,-2.6533,-2.6533,-2.6533,-2.6533,-2.6533,-2.6533,-2.6533,-2.6533,-2.6533,-2.6533,-2.6533,-2.6533,-2.6533,-2.6533,-2.6533,-2.6533,-2.6533,-2.6533,-2.6533,-2.6533,-2.6533,-2.6533,-2.6533,-2.6533,-2.6533,-2.6533,-2.6533,-2.6533,-2.6533,-2.6533,-2.6533,-2.6533,-2.6533,-2.6533,-2.6533,-2.6533,-2.6533,-2.6533,-2.6289,-2.5647,-2.5418,-2.517,-2.4813,-2.4273,-2.4313,-2.4996,-2.4741,-2.4613,-2.482,-2.4406,-2.4192,-2.4192,-2.4129,-2.4151,-2.43,-2.4357,-2.4274,-2.3977,-2.3711,-2.3498,-2.3236,-2.2211,-2.169,-2.1461,-2.0867,-2.0566,-2.0566,-2.0566,-2.0566,-2.0566,-3.5504,-3.5504,-3.5504,-3.5504,-3.5504,-3.5504,-3.5504,-3.5504,-3.5504,-3.5504,-3.5504,-3.4996,-3.3649,-3.3499,-3.2961,-3.1644,-3.1482,-3.1482,-3.1482,-3.1482,-3.1482,-3.1482,-3.1482,-3.1482,-3.1482,-3.1482,-3.1482,-3.1482,-3.1482,-3.1482,-3.1482,-3.1482,-3.1278,-3.097,-3.0584,-3.0147,-2.9718,-2.9331,-2.9079,-2.8939,-2.8492,-2.8298,-2.8182,-2.7351,-2.704,-2.6973,-2.6658,-2.6533,-2.6533,-2.6533,-2.6533,-2.6533,-2.6533,-2.6533,-2.6533,-2.6533,-2.6533,-2.6533,-2.6533,-2.6533,-2.6533,-2.6533,-2.6533,-2.6533,-2.6533,-2.6533,-2.6533,-2.6533,-2.6533,-2.6533,-2.6533,-2.6533,-2.6533,-2.6533,-2.6533,-2.6533,-2.6533,-2.6533,-2.6533,-2.6533,-2.6533,-2.642,-2.6088,-2.6063,-2.5837,-2.5099,-2.4825,-2.4564,-2.4316,-2.3717,-2.3729,-2.4418,-2.4054,-2.3916,-2.3992,-2.3753,-2.3602,-2.3602,-2.3553,-2.3517,-2.3563,-2.3744,-2.366,-2.3436,-2.3538,-2.319,-2.2517,-2.2142,-2.1595,-2.0883,-2.071,-2.0566,-2.0566,-2.0566,-2.0566,-2.0566,-3.5504,-3.5504,-3.5504,-3.5504,-3.5504,-3.5504,-3.5504,-3.5504,-3.5504,-3.5504,-3.5415,-3.4876,-3.3634,-3.341,-3.2856,-3.1586,-3.1482,-3.1482,-3.1482,-3.1482,-3.1482,-3.1482,-3.1482,-3.1482,-3.1482,-3.1482,-3.1482,-3.1482,-3.1482,-3.1482,-3.1482,-3.1482,-3.1482,-3.1467,-3.0896,-3.0584,-3.045,-2.9856,-2.9532,-2.938,-2.9254,-2.9129,-2.8953,-2.8051,-2.767,-2.7484,-2.6782,-2.6533,-2.6533,-2.6533,-2.6533,-2.6533,-2.6533,-2.6533,-2.6533,-2.6533,-2.6533,-2.6533,-2.6533,-2.6533,-2.6533,-2.6533,-2.6533,-2.6533,-2.6533,-2.6533,-2.6533,-2.6533,-2.6533,-2.6533,-2.6533,-2.6533,-2.6533,-2.6533,-2.6533,-2.6533,-2.6533,-2.6533,-2.6496,-2.6339,-2.6327,-2.6101,-2.5536,-2.5473,-2.5259,-2.4745,-2.4268,-2.3966,-2.3866,-2.3401,-2.3364,-2.3853,-2.3389,-2.3078,-2.3078,-2.3078,-2.3078,-2.3078,-2.2969,-2.2848,-2.2702,-2.2957,-2.3038,-2.2895,-2.3346,-2.2738,-2.1589,-2.1931,-2.1261,-2.0003,-2.0446,-2.0613,-2.0478,-2.0537,-2.0566,-2.0566,-3.5504,-3.5504,-3.5504,-3.5504,-3.5504,-3.5504,-3.5504,-3.5504,-3.5504,-3.5504,-3.4996,-3.4337,-3.3574,-3.3006,-3.2362,-3.1541,-3.1482,-3.1482,-3.1482,-3.1482,-3.1482,-3.1482,-3.1482,-3.1482,-3.1482,-3.1482,-3.1482,-3.1482,-3.1482,-3.1482,-3.1482,-3.1482,-3.1482,-3.1482,-3.1409,-3.1351,-3.1278,-3.1219,-3.1161,-3.1029,-3.0389,-2.978,-2.917,-2.813,-2.7351,-2.685,-2.6589,-2.6533,-2.6533,-2.6533,-2.6533,-2.6533,-2.6533,-2.6533,-2.6533,-2.6533,-2.6533,-2.6533,-2.6533,-2.6533,-2.6533,-2.6533,-2.6533,-2.6533,-2.6533,-2.6533,-2.6533,-2.6533,-2.6533,-2.6533,-2.6533,-2.6533,-2.6533,-2.6533,-2.6533,-2.6533,-2.6533,-2.6533,-2.6276,-2.5787,-2.5737,-2.5523,-2.4996,-2.4946,-2.472,-2.4167,-2.4054,-2.3791,-2.3301,-2.3128,-2.3115,-2.3263,-2.3175,-2.3078,-2.3078,-2.3078,-2.3078,-2.3078,-2.3078,-2.2969,-2.269,-2.2764,-2.2616,-2.2342,-2.2192,-2.1941,-2.171,-2.1578,-2.1002,-2.0257,-2.0716,-2.0527,-2.0059,-2.043,-2.0566,-2.0566,-3.5504,-3.5504,-3.5504,-3.5504,-3.5504,-3.5504,-3.5504,-3.5504,-3.5504,-3.5504,-3.4906,-3.4218,-3.3559,-3.2901,-3.2243,-3.1541,-3.1482,-3.1482,-3.1482,-3.1482,-3.1482,-3.1482,-3.1482,-3.1482,-3.1482,-3.1482,-3.1482,-3.1482,-3.1482,-3.1482,-3.1482,-3.1482,-3.1482,-3.1482,-3.1482,-3.1482,-3.1482,-3.1482,-3.1482,-3.1409,-3.0703,-3.0208,-2.978,-2.8376,-2.767,-2.7284,-2.6714,-2.6533,-2.6533,-2.6533,-2.6533,-2.6533,-2.6533,-2.6533,-2.6533,-2.6533,-2.6533,-2.6533,-2.6533,-2.6533,-2.6533,-2.6533,-2.6533,-2.6533,-2.6533,-2.6533,-2.6533,-2.6533,-2.6533,-2.6533,-2.6533,-2.6533,-2.6533,-2.6533,-2.6533,-2.642,-2.6038,-2.6,-2.5787,-2.5247,-2.5184,-2.4971,-2.4431,-2.4381,-2.4142,-2.3577,-2.354,-2.3414,-2.309,-2.3078,-2.3078,-2.3078,-2.3078,-2.3078,-2.3078,-2.3078,-2.3078,-2.2957,-2.2909,-2.2726,-2.2555,-2.2432,-2.2383,-2.2209,-2.2048,-2.1812,-2.1449,-2.1554,-2.0939,-2.0009,-2.0463,-2.0212,-1.9629,-2.0059,-2.0215,-2.0244,-3.5504,-3.5504,-3.5504,-3.5504,-3.5504,-3.5504,-3.5504,-3.537,-3.5265,-3.5265,-3.4547,-3.3829,-3.332,-3.2677,-3.2078,-3.1511,-3.1482,-3.1482,-3.1482,-3.1482,-3.1482,-3.1482,-3.1482,-3.1482,-3.1482,-3.1482,-3.1482,-3.1482,-3.1482,-3.1482,-3.1482,-3.1482,-3.1482,-3.1482,-3.1482,-3.1482,-3.1482,-3.1482,-3.1482,-3.1467,-3.097,-3.0644,-3.0329,-2.8876,-2.8312,-2.8182,-2.7229,-2.685,-2.685,-2.6782,-2.6658,-2.6521,-2.6533,-2.6533,-2.6533,-2.6533,-2.6533,-2.6533,-2.6533,-2.6533,-2.6533,-2.6533,-2.6533,-2.6533,-2.6533,-2.6533,-2.6533,-2.6533,-2.6533,-2.6533,-2.6533,-2.6533,-2.6533,-2.6533,-2.6352,-2.6101,-2.5661,-2.5485,-2.5222,-2.4695,-2.4632,-2.4406,-2.3853,-2.3803,-2.3615,-2.3103,-2.3078,-2.3078,-2.3078,-2.3078,-2.3078,-2.3078,-2.3078,-2.3078,-2.3078,-2.3078,-2.3078,-2.2969,-2.286,-2.2678,-2.2482,-2.2371,-2.2309,-2.2247,-2.2049,-2.16,-2.1094,-2.1289,-2.0653,-1.9555,-1.9998,-1.9758,-1.9189,-1.9609,-1.9824,-1.9961,-3.5504,-3.5504,-3.5504,-3.5504,-3.5504,-3.5504,-3.5504,-3.4966,-3.4547,-3.4547,-3.344,-3.2647,-3.2587,-3.2003,-3.1526,-3.1482,-3.1482,-3.1482,-3.1482,-3.1482,-3.1482,-3.1482,-3.1482,-3.1482,-3.1482,-3.1482,-3.1482,-3.1482,-3.1482,-3.1482,-3.1482,-3.1482,-3.1482,-3.1482,-3.1482,-3.1482,-3.1482,-3.1482,-3.1482,-3.1482,-3.1467,-3.1029,-3.0404,-2.9546,-2.917,-2.9107,-2.8195,-2.7855,-2.7855,-2.767,-2.7229,-2.6658,-2.6521,-2.6533,-2.6533,-2.6533,-2.6533,-2.6533,-2.6533,-2.6533,-2.6533,-2.6533,-2.6533,-2.6533,-2.6533,-2.6533,-2.6533,-2.6533,-2.6533,-2.6533,-2.6533,-2.6533,-2.6533,-2.6533,-2.6013,-2.5649,-2.5598,-2.5184,-2.4669,-2.4117,-2.4054,-2.3828,-2.319,-2.3201,-2.3175,-2.3078,-2.3078,-2.3078,-2.3078,-2.3078,-2.3078,-2.3078,-2.3078,-2.3078,-2.3078,-2.3078,-2.3078,-2.3078,-2.3078,-2.3017,-2.2848,-2.2739,-2.2555,-2.2359,-2.1514,-2.1135,-2.1071,-2.0464,-1.9758,-1.907,-1.9534,-1.9303,-1.874,-1.917,-1.958,-1.9922,-3.5504,-3.5504,-3.5504,-3.5504,-3.5504,-3.5355,-3.4936,-3.4637,-3.4322,-3.3918,-3.308,-3.2512,-3.2512,-3.1928,-3.1482,-3.1482,-3.1482,-3.1482,-3.1482,-3.1482,-3.1482,-3.1482,-3.1482,-3.1482,-3.1482,-3.1482,-3.1482,-3.1482,-3.1482,-3.1482,-3.1482,-3.1482,-3.1482,-3.1482,-3.1482,-3.1482,-3.1482,-3.1482,-3.1482,-3.1467,-3.1029,-3.0718,-3.0404,-2.9608,-2.931,-2.9233,-2.8762,-2.8363,-2.7986,-2.7802,-2.7229,-2.6658,-2.6521,-2.6533,-2.6533,-2.6533,-2.6533,-2.6533,-2.6533,-2.6533,-2.6533,-2.6533,-2.6533,-2.6533,-2.6533,-2.6533,-2.6533,-2.6533,-2.6533,-2.6533,-2.6533,-2.6163,-2.5925,-2.5925,-2.5473,-2.4996,-2.4657,-2.4431,-2.4104,-2.3527,-2.3464,-2.3376,-2.309,-2.3078,-2.3078,-2.3078,-2.3078,-2.3078,-2.3078,-2.3078,-2.3078,-2.3078,-2.3078,-2.3078,-2.3078,-2.3078,-2.3078,-2.2969,-2.2969,-2.2848,-2.2604,-2.2543,-2.2432,-2.2247,-2.1451,-2.1123,-2.1071,-2.0355,-1.9639,-1.8998,-1.9173,-1.8839,-1.8301,-1.873,-1.8984,-1.916,-3.5504,-3.5504,-3.5504,-3.5504,-3.5325,-3.5026,-3.4547,-3.4128,-3.3709,-3.3245,-3.2617,-3.2213,-3.2213,-3.1809,-3.1482,-3.1482,-3.1482,-3.1482,-3.1482,-3.1482,-3.1482,-3.1482,-3.1482,-3.1482,-3.1482,-3.1482,-3.1482,-3.1482,-3.1482,-3.1482,-3.1482,-3.1482,-3.1482,-3.1482,-3.1482,-3.1482,-3.1482,-3.1482,-3.1482,-3.1467,-3.1029,-3.0837,-3.0718,-2.9979,-2.9794,-2.9917,-2.9393,-2.8812,-2.8312,-2.792,-2.7284,-2.6714,-2.6782,-2.6782,-2.6782,-2.6589,-2.6533,-2.6533,-2.6533,-2.6533,-2.6533,-2.6533,-2.6533,-2.6533,-2.6533,-2.6533,-2.6533,-2.6533,-2.6382,-2.6189,-2.6189,-2.5737,-2.536,-2.536,-2.4908,-2.4431,-2.4054,-2.3841,-2.3577,-2.3175,-2.3078,-2.3078,-2.3078,-2.3078,-2.3078,-2.3078,-2.3078,-2.3078,-2.3078,-2.3078,-2.3078,-2.3078,-2.3078,-2.3078,-2.3078,-2.3078,-2.3078,-2.2969,-2.2909,-2.2787,-2.2543,-2.2482,-2.2359,-2.2247,-2.1463,-2.0996,-2.0741,-2.0031,-1.9309,-1.8721,-1.8911,-1.8596,-1.8047,-1.8528,-1.8655,-1.8682,-3.5504,-3.5504,-3.5504,-3.5489,-3.4936,-3.4472,-3.4472,-3.335,-3.2512,-3.2497,-3.1943,-3.1482,-3.1482,-3.1482,-3.1482,-3.1482,-3.1482,-3.1482,-3.1482,-3.1482,-3.1482,-3.1482,-3.1482,-3.1482,-3.1482,-3.1482,-3.1482,-3.1482,-3.1482,-3.1482,-3.1482,-3.1482,-3.1482,-3.1482,-3.1482,-3.1482,-3.1482,-3.1482,-3.1482,-3.1482,-3.1482,-3.1482,-3.1409,-3.0777,-3.0896,-3.1351,-3.0011,-2.9407,-2.917,-2.8312,-2.7417,-2.6782,-2.7351,-2.7484,-2.7351,-2.6714,-2.6533,-2.6533,-2.6533,-2.6533,-2.6533,-2.6533,-2.6533,-2.6533,-2.6533,-2.6533,-2.6533,-2.6521,-2.6,-2.5598,-2.5586,-2.5172,-2.4808,-2.4808,-2.4356,-2.3991,-2.3991,-2.3502,-2.3078,-2.3078,-2.3078,-2.3078,-2.3078,-2.3078,-2.3078,-2.3078,-2.3078,-2.3078,-2.3078,-2.3078,-2.3078,-2.3078,-2.3078,-2.3078,-2.3078,-2.3078,-2.3078,-2.3078,-2.2969,-2.2909,-2.2909,-2.2543,-2.242,-2.2359,-2.1451,-2.0741,-2.0031,-1.9309,-1.8586,-1.8076,-1.8721,-1.8586,-1.8076,-1.8787,-1.8859,-1.8633,-3.5653,-3.5718,-3.5646,-3.4925,-3.4733,-3.4267,-3.323,-3.2766,-3.2347,-3.1884,-3.1601,-3.1482,-3.1482,-3.1482,-3.1482,-3.1482,-3.1482,-3.1482,-3.1482,-3.1482,-3.1482,-3.1482,-3.1482,-3.1482,-3.1482,-3.1482,-3.1482,-3.1482,-3.1482,-3.1482,-3.1482,-3.1482,-3.1482,-3.1482,-3.1482,-3.1482,-3.1482,-3.1482,-3.1482,-3.1482,-3.1482,-3.1482,-3.1467,-3.1278,-3.1351,-3.1467,-3.1029,-3.0598,-3.0086,-2.9752,-2.9142,-2.8468,-2.7986,-2.7417,-2.6905,-2.6714,-2.6589,-2.6533,-2.6533,-2.6533,-2.6533,-2.6533,-2.6533,-2.6533,-2.6533,-2.6533,-2.6352,-2.5937,-2.5724,-2.5485,-2.5121,-2.4607,-2.4243,-2.4243,-2.3766,-2.3389,-2.3389,-2.3178,-2.3078,-2.3078,-2.3078,-2.3078,-2.3078,-2.3078,-2.3078,-2.3078,-2.3078,-2.3078,-2.3078,-2.3078,-2.3078,-2.3078,-2.3078,-2.3078,-2.3078,-2.3078,-2.3078,-2.3078,-2.2969,-2.2848,-2.2739,-2.2482,-2.2359,-2.2247,-2.1588,-2.1135,-2.0741,-2.0139,-1.9759,-1.9507,-1.9704,-1.9309,-1.8721,-1.8911,-1.8677,-1.8193,-3.6243,-3.6013,-3.5599,-3.4721,-3.4147,-3.3547,-3.2632,-3.2287,-3.1988,-3.1526,-3.1482,-3.1482,-3.1482,-3.1482,-3.1482,-3.1482,-3.1482,-3.1482,-3.1482,-3.1482,-3.1482,-3.1482,-3.1482,-3.1482,-3.1482,-3.1482,-3.1482,-3.1482,-3.1482,-3.1482,-3.1482,-3.1482,-3.1482,-3.1482,-3.1482,-3.1482,-3.1482,-3.1482,-3.1482,-3.1482,-3.1482,-3.1482,-3.1482,-3.1482,-3.1482,-3.1467,-3.1219,-3.0837,-3.0404,-3.0025,-2.9594,-2.903,-2.8182,-2.755,-2.7053,-2.6726,-2.6589,-2.6533,-2.6533,-2.6533,-2.6471,-2.6176,-2.6289,-2.6471,-2.6163,-2.6113,-2.5963,-2.541,-2.5109,-2.487,-2.4556,-2.4042,-2.3653,-2.3653,-2.3364,-2.3078,-2.3078,-2.3078,-2.3078,-2.3078,-2.3078,-2.3078,-2.3078,-2.3078,-2.3078,-2.3078,-2.3078,-2.3078,-2.3078,-2.3078,-2.3078,-2.3078,-2.3078,-2.3078,-2.3078,-2.3078,-2.3078,-2.3078,-2.2969,-2.2848,-2.28,-2.2616,-2.2494,-2.2383,-2.1975,-2.1577,-2.1198,-2.0794,-2.0409,-2.0096,-2.0355,-1.989,-1.9044,-1.9309,-1.8854,-1.8008,-3.7037,-3.6282,-3.5502,-3.482,-3.3532,-3.2601,-3.2541,-3.1972,-3.1539,-3.1539,-3.1539,-3.1539,-3.1482,-3.1482,-3.1482,-3.1482,-3.1482,-3.1482,-3.1482,-3.1482,-3.1482,-3.1482,-3.1482,-3.1482,-3.1482,-3.1482,-3.1482,-3.1482,-3.1482,-3.1482,-3.1482,-3.1482,-3.1482,-3.1482,-3.1482,-3.1482,-3.1482,-3.1482,-3.1482,-3.1482,-3.1482,-3.1482,-3.1482,-3.1482,-3.1482,-3.1409,-3.0837,-3.0524,-3.0329,-2.967,-2.9345,-2.9002,-2.8182,-2.7947,-2.7776,-2.6985,-2.6726,-2.6645,-2.6526,-2.6514,-2.6319,-2.5674,-2.5925,-2.6176,-2.5649,-2.5523,-2.5385,-2.4858,-2.4343,-2.3979,-2.3929,-2.3489,-2.3078,-2.3078,-2.3078,-2.3078,-2.3078,-2.3078,-2.3078,-2.3078,-2.3078,-2.3078,-2.3078,-2.3078,-2.3078,-2.3078,-2.3078,-2.3078,-2.3078,-2.3078,-2.3078,-2.3078,-2.3078,-2.3078,-2.3078,-2.3078,-2.3078,-2.3078,-2.2969,-2.2909,-2.2909,-2.2739,-2.269,-2.2678,-2.2482,-2.2037,-2.1451,-2.1262,-2.0869,-2.0355,-2.0933,-2.0344,-1.9177,-1.9835,-1.9187,-1.8008,-3.7086,-3.6821,-3.6262,-3.4857,-3.3989,-3.3367,-3.2841,-3.2267,-3.1826,-3.1727,-3.1727,-3.167,-3.1539,-3.1482,-3.1482,-3.1482,-3.1482,-3.1482,-3.1482,-3.1482,-3.1482,-3.1482,-3.1482,-3.1482,-3.1482,-3.1482,-3.1482,-3.1482,-3.1482,-3.1482,-3.1482,-3.1482,-3.1482,-3.1482,-3.1482,-3.1482,-3.1482,-3.1482,-3.1482,-3.1482,-3.1482,-3.1482,-3.1482,-3.1482,-3.1482,-3.1467,-3.1351,-3.1278,-3.1219,-3.1102,-3.0658,-3.0133,-2.995,-2.947,-2.8917,-2.8725,-2.8195,-2.7565,-2.7,-2.6438,-2.5873,-2.5121,-2.5084,-2.5146,-2.5021,-2.4996,-2.4833,-2.4293,-2.4079,-2.3866,-2.3401,-2.3165,-2.3078,-2.3078,-2.3078,-2.3078,-2.3078,-2.3078,-2.3078,-2.3078,-2.3078,-2.3078,-2.3078,-2.3078,-2.3078,-2.3078,-2.3078,-2.3078,-2.3078,-2.3078,-2.3078,-2.3078,-2.3078,-2.3078,-2.3078,-2.3078,-2.3078,-2.3078,-2.2969,-2.2909,-2.2909,-2.2739,-2.2616,-2.2482,-2.2616,-2.2432,-2.2049,-2.2099,-2.1975,-2.1737,-2.1925,-2.1083,-1.9901,-2.0031,-1.9187,-1.8008,-3.7616,-3.6873,-3.6015,-3.4872,-3.4155,-3.3609,-3.3245,-3.2895,-3.2641,-3.2586,-3.2492,-3.2327,-3.1966,-3.191,-3.1796,-3.1539,-3.1482,-3.1482,-3.1482,-3.1482,-3.1482,-3.1482,-3.1482,-3.1482,-3.1482,-3.1482,-3.1482,-3.1482,-3.1482,-3.1482,-3.1482,-3.1482,-3.1482,-3.1482,-3.1482,-3.1482,-3.1482,-3.1482,-3.1482,-3.1482,-3.1482,-3.1482,-3.1482,-3.1482,-3.1482,-3.1482,-3.1482,-3.1482,-3.1482,-3.1482,-3.1029,-3.0524,-3.0389,-2.9917,-2.9296,-2.9156,-2.8366,-2.7506,-2.7072,-2.6246,-2.5356,-2.5038,-2.4897,-2.4784,-2.4482,-2.4431,-2.4268,-2.3703,-2.359,-2.3489,-2.3188,-2.3078,-2.3078,-2.3078,-2.3078,-2.3078,-2.3078,-2.3078,-2.3078,-2.3078,-2.3078,-2.3078,-2.3078,-2.3078,-2.3078,-2.3078,-2.3078,-2.3078,-2.3078,-2.3078,-2.3078,-2.3078,-2.3078,-2.3078,-2.3078,-2.3078,-2.3078,-2.3078,-2.3017,-2.3017,-2.2957,-2.2909,-2.2787,-2.2665,-2.2678,-2.2567,-2.2309,-2.2309,-2.2247,-2.2197,-2.2197,-2.1537,-2.0549,-2.0549,-1.9901,-1.8988,-3.7969,-3.6788,-3.5646,-3.5047,-3.429,-3.3802,-3.3786,-3.3598,-3.3495,-3.3495,-3.3287,-3.2933,-3.2547,-3.2398,-3.2135,-3.164,-3.1597,-3.1597,-3.1597,-3.1597,-3.1597,-3.1597,-3.1597,-3.1597,-3.1597,-3.1539,-3.1539,-3.1482,-3.1482,-3.1482,-3.1482,-3.1482,-3.1482,-3.1482,-3.1482,-3.1482,-3.1482,-3.1482,-3.1482,-3.1482,-3.1482,-3.1482,-3.1482,-3.1482,-3.1482,-3.1482,-3.1482,-3.1482,-3.1482,-3.1482,-3.1146,-3.0644,-3.0524,-3.0015,-2.9501,-2.9288,-2.8346,-2.7309,-2.7215,-2.6232,-2.5249,-2.515,-2.5064,-2.4826,-2.4381,-2.4149,-2.3838,-2.3238,-2.3078,-2.3078,-2.3078,-2.3078,-2.3078,-2.3078,-2.3078,-2.3078,-2.3078,-2.3078,-2.3078,-2.3078,-2.3078,-2.3078,-2.3078,-2.3078,-2.3078,-2.3078,-2.3078,-2.3078,-2.3078,-2.3078,-2.3078,-2.3078,-2.3078,-2.3078,-2.3078,-2.3078,-2.3078,-2.3078,-2.3078,-2.3078,-2.3078,-2.3078,-2.2957,-2.2848,-2.2739,-2.2555,-2.2359,-2.2247,-2.2197,-2.2197,-2.2197,-2.1726,-2.106,-2.0996,-2.0549,-2.0096,-3.7101,-3.6703,-3.6256,-3.5631,-3.4963,-3.4561,-3.4625,-3.4152,-3.3815,-3.3751,-3.3251,-3.2841,-3.2734,-3.2342,-3.2038,-3.194,-3.194,-3.194,-3.194,-3.194,-3.194,-3.194,-3.194,-3.194,-3.194,-3.1841,-3.167,-3.1482,-3.1482,-3.1482,-3.1482,-3.1482,-3.1482,-3.1482,-3.1482,-3.1482,-3.1482,-3.1482,-3.1482,-3.1482,-3.1482,-3.1482,-3.1482,-3.1482,-3.1482,-3.1482,-3.1482,-3.1482,-3.1482,-3.1482,-3.1409,-3.1351,-3.1351,-3.0877,-3.0345,-3.033,-2.9418,-2.8283,-2.7611,-2.689,-2.6167,-2.5505,-2.5354,-2.5298,-2.5242,-2.4629,-2.387,-2.3271,-2.3078,-2.3078,-2.3078,-2.3078,-2.3078,-2.3078,-2.3078,-2.3078,-2.3078,-2.3078,-2.3078,-2.3078,-2.3078,-2.3078,-2.3078,-2.3078,-2.3078,-2.3078,-2.3078,-2.3078,-2.3078,-2.3078,-2.3078,-2.3078,-2.3078,-2.3078,-2.3078,-2.3078,-2.3078,-2.3078,-2.3078,-2.3078,-2.3078,-2.2969,-2.2848,-2.2739,-2.2543,-2.2371,-2.2247,-2.2197,-2.2197,-2.2197,-2.2197,-2.1726,-2.0996,-2.042,-2.0172,-2.0096,-3.684,-3.6371,-3.5966,-3.5628,-3.5396,-3.5195,-3.5224,-3.4961,-3.4787,-3.4754,-3.4448,-3.3935,-3.3303,-3.2492,-3.1996,-3.1996,-3.1996,-3.1996,-3.1996,-3.1996,-3.1996,-3.1996,-3.1955,-3.1898,-3.1898,-3.1712,-3.1597,-3.1482,-3.1482,-3.1482,-3.1482,-3.1482,-3.1482,-3.1482,-3.1482,-3.1482,-3.1482,-3.1482,-3.1482,-3.1482,-3.1482,-3.1482,-3.1482,-3.1482,-3.1482,-3.1482,-3.1482,-3.1482,-3.1482,-3.1482,-3.1228,-3.0956,-3.0956,-3.0507,-2.9983,-2.9983,-2.9123,-2.8042,-2.7697,-2.6789,-2.6022,-2.6016,-2.596,-2.5906,-2.5906,-2.5618,-2.5007,-2.4002,-2.3424,-2.3078,-2.3078,-2.3078,-2.3078,-2.3078,-2.3078,-2.3078,-2.3078,-2.3078,-2.3078,-2.3078,-2.3078,-2.3078,-2.3078,-2.3078,-2.3078,-2.3078,-2.3078,-2.3078,-2.3078,-2.3078,-2.3078,-2.3078,-2.3078,-2.3078,-2.3078,-2.3078,-2.3078,-2.3078,-2.3078,-2.3078,-2.3078,-2.3017,-2.2909,-2.269,-2.2616,-2.2432,-2.2197,-2.2197,-2.2197,-2.2197,-2.2197,-2.1999,-2.1663,-2.14,-2.1273,-2.121]},{"header":{"parameterUnit":"m.s-1","parameterCategory":1,"la1":30.6,"la2":28.766,"lo1":-90.7593,"lo2":-88.6598,"dy":0.0162,"dx":0.0183,"nx":116,"ny":114,"refTime":"2023-08-08T06:00:00:Z","depth":0,"parameterNumber":3,"parameterNumberName":"V-component_of_WINDS"},"data":[0.0,0.0,0.0,0.0,0.0,0.0,0.0,0.0,0.0,0.0,0.0,0.0,0.0,0.0,0.0,0.0,0.0,0.0,0.0,0.0,0.0,0.0,0.0,0.0,0.0,0.0,0.0,0.0,0.0,0.0,0.0,0.0,0.0,0.0,0.0,0.0,0.0,0.0,0.0,0.0,0.0,0.0,0.0,0.0,0.0,0.0,0.0,0.0,0.0,0.0,0.0,0.0,0.0,0.0,0.0,0.0,0.0,0.0,0.0,0.0,0.0,0.0,0.0,0.0,0.0,0.0,0.0,0.0,0.0,0.0,0.0,0.0,0.0,0.0,0.0,0.0,0.0,0.0,0.0,0.0,0.0,0.0,0.0,0.0,0.0,0.0,0.0,0.0,0.0,0.0,0.0,0.0,0.0,0.0,0.0,0.0,0.0,0.0,0.0,0.0,0.0,0.0,0.0,0.0,0.0,0.0,0.0,0.0,0.0,0.0,0.0,0.0,0.0,0.0,0.0,0.0,0.0,0.0,0.0,0.0,0.0,0.0,0.0,0.0,0.0,0.0,0.0,0.0,0.0,0.0,0.0,0.0,0.0,0.0,0.0,0.0,0.0,0.0,0.0,0.0,0.0,0.0,0.0,0.0,0.0,0.0,0.0,0.0,0.0,0.0,0.0,0.0,0.0,0.0,0.0,0.0,0.0,0.0,0.0,0.0,0.0,0.0,0.0,0.0,0.0,0.0,0.0,0.0,0.0,0.0,0.0,0.0,0.0,0.0,0.0,0.0,0.0,0.0,0.0,0.0,0.0,0.0,0.0,0.0,0.0,0.0,0.0,0.0,0.0,0.0,0.0,0.0,0.0,0.0,0.0,0.0,0.0,0.0,0.0,0.0,0.0,0.0,0.0,0.0,0.0,0.0,0.0,0.0,0.0,0.0,0.0,0.0,0.0,0.0,0.0,0.0,0.0,0.0,0.0,0.0,0.0,0.0,0.0,0.0,0.0,0.0,0.0,0.0,0.0,0.0,0.0,0.0,0.0,0.0,0.0,0.0,0.0,0.0,0.0,0.0,0.0,0.0,0.0,0.0,0.0,0.0,0.0,0.0,0.0,0.0,0.0,0.0,0.0,0.0,0.0,0.0,0.0,0.0,0.0,0.0,0.0,0.0,0.0,0.0,0.0,0.0,0.0,0.0,0.0,0.0,0.0,0.0,0.0,0.0,0.0,0.0,0.0,0.0,0.0,0.0,0.0,0.0,0.0,0.0,0.0,0.0,0.0,0.0,0.0,0.0,0.0,0.0,0.0,0.0,0.0,0.0,0.0,0.0,0.0,0.0,0.0,0.0,0.0,0.0,0.0,0.0,0.0,0.0,0.0,0.0,0.0,0.0,0.0,0.0,0.0,0.0,0.0,0.0,0.0,0.0,0.0,0.0,0.0,0.0,0.0,0.0,0.0,0.0,0.0,0.0,0.0,0.0,0.0,0.0,0.0,0.0,0.0,0.0,0.0,0.0,0.0,0.0,0.0,0.0,0.0,0.0,0.0,0.0,0.0,0.0,0.0,0.0,0.0,0.0,0.0,0.0,0.0,0.0,0.0,0.0,0.0,0.0,0.0,0.0,0.0,0.0,0.0,0.0,0.0,0.0,0.0,0.0,0.0,0.0,0.0,0.0,0.0,0.0,0.0,0.0,0.0,0.0,0.0,0.0,0.0,0.0,0.0,0.0,0.0,0.0,0.0,0.0,0.0,0.0,0.0,0.0,0.0,0.0,0.0,0.0,0.0,0.0,0.0,0.0,0.0,0.0,0.0,0.0,0.0,0.0,0.0,0.0,0.0,0.0,0.0,0.0,0.0,0.0,0.0,0.0,0.0,0.0,0.0,0.0,0.0,0.0,0.0,0.0,0.0,0.0,0.0,0.0,0.0,0.0,0.0,0.0,0.0,0.0,0.0,0.0,0.0,0.0,0.0,0.0,0.0,0.0,0.0,0.0,0.0,0.0,0.0,0.0,0.0,0.0,0.0,0.0,0.0,0.0,0.0,0.0,0.0,0.0,0.0,0.0,0.0,0.0,0.0,0.0,0.0,0.0,0.0,0.0,0.0,0.0,0.0,0.0,0.0,0.0,0.0,0.0,0.0,0.0,0.0,0.0,0.0,0.0,0.0,0.0,0.0,0.0,0.0,0.0,0.0,0.0,0.0,0.0,0.0,0.0,0.0,0.0,0.0,0.0,0.0,0.0,0.0,0.0,0.0,0.0,0.0,0.0,0.0,0.0,0.0,0.0,0.0,0.0,0.0,0.0,0.0,0.0,0.0,0.0,0.0,0.0,0.0,0.0,0.0,0.0,0.0,0.0,0.0,0.0,0.0,0.0,0.0,0.0,0.0,0.0,0.0,0.0,0.0,0.0,0.0,0.0,0.0,0.0,0.0,0.0,0.0,0.0,0.0,0.0,0.0,0.0,0.0,0.0,0.0,0.0,0.0,0.0,0.0,0.0,0.0,0.0,0.0,0.0,0.0,0.0,0.0,0.0,0.0,0.0,0.0,0.0,0.0,0.0,0.0,0.0,0.0,0.0,0.0,0.0,0.0,0.0,0.0,0.0,0.0,0.0,0.0,0.0,0.0,0.0,0.0,0.0,0.0,0.0,0.0,0.0,0.0,0.0,0.0,0.0,0.0,0.0,0.0,0.0,0.0,0.0,0.0,0.0,0.0,0.0,0.0,0.0,0.0,0.0,0.0,0.0,0.0,0.0,0.0,0.0,0.0,0.0,0.0,0.0,0.0,0.0,0.0,0.0,0.0,0.0,0.0,0.0,0.0,0.0,0.0,0.0,0.0,0.0,0.0,0.0,0.0,0.0,0.0,0.0,0.0,0.0,0.0,0.0,0.0,0.0,0.0,0.0,0.0,0.0,0.0,0.0,0.0,0.0,0.0,0.0,0.0,0.0,0.0,0.0,0.0,0.0,0.0,0.0,0.0,0.0,0.0,0.0,0.0,0.0,0.0,0.0,0.0,0.0,0.0,0.0,0.0,0.0,0.0,0.0,0.0,0.0,0.0,0.0,0.0,0.0,0.0,0.0,0.0,0.0,0.0,0.0,0.0,0.0,0.0,0.0,0.0,0.0,0.0,0.0,0.0,0.0,0.0,0.0,0.0,0.0,0.0,0.0,0.0,0.0,0.0,0.0,0.0,0.0,0.0,0.0,0.0,0.0,0.0,0.0,0.0,0.0,0.0,0.0,0.0,0.0,0.0,0.0,0.0,0.0,0.0,0.0,0.0,0.0,0.0,0.0,0.0,0.0,0.0,0.0,0.0,0.0,0.0,0.0,0.0,0.0,0.0,0.0,0.0,0.0,0.0,0.0,0.0,0.0,0.0,0.0,0.0,0.0,0.0,0.0,0.0,0.0,0.0,0.0,0.0,0.0,0.0,0.0,0.0,0.0,0.0,0.0,0.0,0.0,0.0,0.0,0.0,0.0,0.0,0.0,0.0,0.0,0.0,0.0,0.0,0.0,0.0,0.0,0.0,0.0,0.0,0.0,0.0,0.0,0.0,0.0,0.0,0.0,0.0,0.0,0.0,0.0,0.0,0.0,0.0,0.0,0.0,0.0,0.0,0.0,0.0,0.0,0.0,0.0,0.0,0.0,0.0,0.0,0.0,0.0,0.0,0.0,0.0,0.0,0.0,0.0,0.0,0.0,0.0,0.0,0.0,0.0,0.0,0.0,0.0,0.0,0.0,0.0,0.0,0.0,0.0,0.0,0.0,0.0,0.0,0.0,0.0,0.0,0.0,0.0,0.0,0.0,0.0,0.0,0.0,0.0,0.0,0.0,0.0,0.0,0.0,0.0,0.0,0.0,0.0,0.0,0.0,0.0,0.0,0.0,0.0,0.0,0.0,0.0,0.0,0.0,0.0,0.0,0.0,0.0,0.0,0.0,0.0,0.0,0.0,0.0,0.0,0.0,0.0,0.0,0.0,0.0,0.0,0.0,0.0,0.0,0.0,0.0,0.0,0.0,0.0,0.0,0.0,0.0,0.0,0.0,0.0,0.0,0.0,0.0,0.0,0.0,0.0,0.0,0.0,0.0,0.0,0.0,0.0,0.0,0.0,0.0,0.0,0.0,0.0,0.0,0.0,0.0,0.0,0.0,0.0,0.0,0.0,0.0,0.0,0.0,0.0,0.0,0.0,0.0,0.0,0.0,0.0,0.0,0.0,0.0,0.0,0.0,0.0,0.0,0.0,0.0,0.0,0.0,0.0,0.0,0.0,0.0,0.0,0.0,0.0,0.0,0.0,0.0,0.0,0.0,0.0,0.0,0.0,0.0,0.0,0.0,0.0,0.0,0.0,0.0,0.0,0.0,0.0,0.0,0.0,0.0,0.0,0.0,0.0,0.0,0.0,0.0,0.0,0.0,0.0,0.0,0.0,0.0,0.0,0.0,0.0,0.0,0.0,0.0,0.0,0.0,0.0,0.0,0.0,0.0,0.0,0.0,0.0,0.0,0.0,0.0,0.0,0.0,0.0,0.0,0.0,0.0,0.0,0.0,0.0,0.0,0.0,0.0,0.0,0.0,0.0,0.0,0.0,0.0,0.0,0.0,0.0,0.0,0.0,0.0,0.0,0.0,0.0,0.0,0.0,0.0,0.0,0.0,0.0,0.0,0.0,0.0,0.0,0.0,0.0,0.0,0.0,0.0,0.0,0.0,0.0,0.0,0.0,0.0,0.0,0.0,0.0,0.0,0.0,0.0,0.0,0.0,0.0,0.0,0.0,0.0,0.0,0.0,0.0,0.0,0.0,0.0,0.0,0.0,0.0,0.0,0.0,0.0,0.0,0.0,0.0,0.0,0.0,0.0,0.0,0.0,0.0,0.0,0.0,0.0,0.0,0.0,0.0,0.0,0.0,0.0,0.0,0.0,0.0,0.0,0.0,0.0,0.0,0.0,0.0,0.0,0.0,0.0,0.0,0.0,0.0,0.0,0.0,0.0,0.0,0.0,0.0,0.0,0.0,0.0,0.0,0.0,0.0,0.0,0.0,0.0,0.0,0.0,0.0,0.0,0.0,0.0,0.0,0.0,0.0,0.0,0.0,0.0,0.0,0.0,0.0,0.0,0.0,0.0,0.0,0.0,0.0,0.0,0.0,0.0,0.0,0.0,0.0,0.0,0.0,0.0,0.0,0.0,0.0,0.0,0.0,0.0,0.0,0.0,0.0,0.0,0.0,0.0,0.0,0.0,0.0,0.0,0.0,0.0,0.0,0.0,0.0,0.0,0.0,0.0,0.0,0.0,0.0,0.0,0.0,0.0,0.0,0.0,0.0,0.0,0.0,0.0,0.0,0.0,0.0,0.0,0.0,0.0,0.0,0.0,0.0,0.0,0.0,0.0,0.0,0.0,0.0,0.0,0.0,0.0,0.0,0.0,0.0,0.0,0.0,0.0,0.0,0.0,0.0,0.0,0.0,0.0,0.0,0.0,0.0,0.0,0.0,0.0,0.0,0.0,0.0,0.0,0.0,0.0,0.0,0.0,0.0,0.0,0.0,0.0,0.0,0.0,0.0,0.0,0.0,0.0,0.0,0.0,0.0,0.0,0.0,0.0,0.0,0.0,0.0,0.0,0.0,0.0,0.0,0.0,0.0,0.0,0.0,0.0,0.0,0.0,0.0,0.0,0.0,0.0,0.0,0.0,0.0,0.0,0.0,0.0,0.0,0.0,0.0,0.0,0.0,0.0,0.0,0.0,0.0,0.0,0.0,0.0,0.0,0.0,0.0,0.0,0.0,0.0,0.0,0.0,0.0,0.0,0.0,0.0,0.0,0.0,0.0,0.0,0.0,0.0,0.0,0.0,0.0,0.0,0.0,0.0,0.0,0.0,0.0,0.0,0.0,0.0,0.0,0.0,0.0,0.0,0.0,0.0,0.0,0.0,0.0,0.0,0.0,0.0,0.0,0.0,0.0,0.0,0.0,0.0,0.0,0.0,0.0,0.0,0.0,0.0,0.0,0.0,0.0,0.0,0.0,0.0,0.0,0.0,0.0,0.0,0.0,0.0,0.0,0.0,0.0,0.0,0.0,0.0,0.0,0.0,0.0,0.0,0.0,0.0,0.0,0.0,-3.9756,-3.9756,0.0,0.0,0.0,0.0,0.0,0.0,0.0,0.0,0.0,0.0,0.0,0.0,0.0,0.0,0.0,0.0,0.0,0.0,0.0,0.0,0.0,0.0,0.0,0.0,0.0,0.0,0.0,0.0,0.0,0.0,0.0,0.0,0.0,0.0,0.0,0.0,0.0,0.0,0.0,0.0,0.0,0.0,0.0,0.0,0.0,0.0,0.0,0.0,0.0,0.0,0.0,0.0,0.0,0.0,0.0,0.0,0.0,0.0,0.0,0.0,0.0,0.0,0.0,0.0,0.0,0.0,0.0,0.0,0.0,0.0,0.0,0.0,0.0,0.0,0.0,0.0,0.0,0.0,0.0,0.0,0.0,0.0,0.0,0.0,0.0,0.0,0.0,0.0,0.0,0.0,0.0,0.0,0.0,0.0,0.0,0.0,0.0,0.0,0.0,0.0,0.0,0.0,0.0,0.0,0.0,0.0,0.0,0.0,0.0,0.0,0.0,0.0,0.0,0.0,-4.031,-4.031,0.0,0.0,0.0,0.0,0.0,0.0,0.0,0.0,0.0,0.0,0.0,0.0,0.0,0.0,0.0,0.0,0.0,0.0,0.0,0.0,0.0,0.0,0.0,0.0,0.0,0.0,0.0,0.0,0.0,0.0,0.0,0.0,0.0,0.0,0.0,0.0,0.0,0.0,0.0,0.0,0.0,0.0,0.0,0.0,0.0,0.0,0.0,0.0,0.0,0.0,0.0,0.0,0.0,0.0,0.0,0.0,0.0,0.0,0.0,0.0,0.0,0.0,0.0,0.0,0.0,0.0,0.0,0.0,0.0,0.0,0.0,0.0,0.0,0.0,0.0,0.0,0.0,0.0,0.0,0.0,0.0,0.0,0.0,0.0,0.0,0.0,0.0,0.0,0.0,0.0,0.0,0.0,0.0,0.0,0.0,0.0,0.0,0.0,0.0,0.0,0.0,0.0,0.0,0.0,0.0,0.0,0.0,0.0,-4.031,-4.031,-4.031,-4.031,-4.031,-4.031,-4.031,-4.031,-4.031,-4.031,0.0,0.0,0.0,0.0,0.0,0.0,0.0,0.0,0.0,0.0,0.0,0.0,0.0,0.0,0.0,0.0,0.0,0.0,0.0,0.0,0.0,0.0,0.0,0.0,0.0,0.0,0.0,0.0,0.0,0.0,0.0,0.0,0.0,0.0,0.0,0.0,0.0,0.0,0.0,0.0,0.0,0.0,0.0,0.0,0.0,0.0,0.0,0.0,0.0,0.0,0.0,0.0,0.0,0.0,0.0,0.0,0.0,0.0,0.0,0.0,0.0,0.0,0.0,0.0,0.0,0.0,0.0,0.0,0.0,0.0,0.0,0.0,0.0,0.0,0.0,0.0,0.0,0.0,0.0,0.0,0.0,0.0,0.0,0.0,0.0,0.0,-3.7488,-3.7355,0.0,0.0,0.0,0.0,0.0,0.0,0.0,0.0,0.0,0.0,0.0,0.0,0.0,-4.0253,-4.0138,-4.0253,-4.031,-4.031,-4.031,-4.031,-4.031,-4.031,-4.031,-4.031,-4.031,0.0,-4.031,-4.031,0.0,0.0,0.0,0.0,0.0,0.0,0.0,0.0,0.0,0.0,0.0,0.0,0.0,0.0,0.0,0.0,0.0,0.0,0.0,0.0,0.0,0.0,0.0,0.0,0.0,0.0,0.0,0.0,0.0,0.0,0.0,0.0,0.0,0.0,0.0,0.0,0.0,0.0,0.0,0.0,0.0,0.0,0.0,0.0,0.0,0.0,0.0,0.0,0.0,0.0,0.0,0.0,0.0,0.0,0.0,0.0,0.0,0.0,0.0,0.0,0.0,0.0,0.0,0.0,0.0,0.0,0.0,0.0,0.0,0.0,0.0,0.0,0.0,0.0,0.0,0.0,0.0,0.0,0.0,0.0,0.0,0.0,0.0,0.0,0.0,-3.7789,-3.802,-3.888,-3.867,-3.8629,0.0,0.0,0.0,0.0,0.0,0.0,0.0,0.0,0.0,-4.031,-4.031,-4.031,-4.031,-4.031,-4.054,-4.0979,-4.0979,-4.1227,-4.1705,-4.1705,-4.1705,-4.1705,-4.1705,-4.1724,-4.1628,-4.0692,-4.031,-4.031,0.0,0.0,0.0,0.0,-4.0398,-4.0413,0.0,0.0,0.0,0.0,0.0,0.0,0.0,0.0,0.0,0.0,0.0,0.0,0.0,0.0,0.0,0.0,0.0,0.0,0.0,0.0,0.0,0.0,0.0,0.0,0.0,0.0,0.0,0.0,0.0,0.0,0.0,0.0,0.0,0.0,0.0,0.0,0.0,0.0,0.0,0.0,0.0,0.0,0.0,0.0,0.0,0.0,0.0,0.0,0.0,0.0,0.0,0.0,0.0,0.0,0.0,0.0,0.0,0.0,0.0,0.0,0.0,0.0,0.0,0.0,0.0,0.0,0.0,0.0,0.0,0.0,0.0,0.0,0.0,0.0,0.0,0.0,0.0,-3.8593,-3.8821,-4.0043,-3.9681,-3.9603,0.0,0.0,0.0,0.0,0.0,0.0,-4.031,-4.031,-4.0387,-4.0597,-4.0616,-4.0616,-4.0616,-4.0616,-4.0807,-4.1189,-4.1189,-4.1648,-4.2469,-4.2469,-4.2584,-4.2794,-4.2794,-4.2814,-4.2699,-4.1456,-4.0941,-4.0959,-4.0958,-4.0976,-4.0994,-4.1082,-4.1135,-4.1152,0.0,0.0,0.0,0.0,0.0,0.0,0.0,0.0,0.0,0.0,0.0,0.0,0.0,0.0,0.0,0.0,0.0,0.0,0.0,0.0,0.0,0.0,0.0,0.0,0.0,0.0,0.0,0.0,0.0,0.0,0.0,0.0,0.0,0.0,0.0,0.0,0.0,0.0,0.0,0.0,0.0,0.0,0.0,0.0,0.0,0.0,0.0,0.0,0.0,0.0,0.0,0.0,0.0,0.0,0.0,0.0,0.0,0.0,0.0,0.0,0.0,0.0,0.0,0.0,0.0,0.0,0.0,0.0,0.0,0.0,0.0,0.0,0.0,0.0,0.0,0.0,0.0,0.0,0.0,-3.9935,-4.0118,0.0,0.0,0.0,0.0,-4.031,-4.031,-4.031,-4.031,-4.031,-4.0654,-4.1418,-4.1437,-4.1437,-4.1437,-4.1437,-4.1074,-4.0368,-4.0368,-4.0788,-4.1571,-4.1571,-4.2011,-4.2794,-4.2794,-4.2814,-4.2795,-4.2718,-4.2699,-4.2774,-4.2774,-4.2774,-4.2774,-4.2774,-4.2809,-4.2881,0.0,0.0,0.0,0.0,0.0,0.0,0.0,0.0,0.0,0.0,0.0,0.0,0.0,0.0,0.0,0.0,0.0,0.0,0.0,0.0,0.0,0.0,0.0,0.0,0.0,0.0,0.0,0.0,0.0,0.0,0.0,0.0,0.0,0.0,0.0,0.0,0.0,0.0,0.0,0.0,0.0,0.0,0.0,0.0,0.0,0.0,0.0,0.0,0.0,0.0,0.0,0.0,0.0,0.0,0.0,0.0,0.0,0.0,0.0,0.0,0.0,0.0,0.0,0.0,0.0,0.0,0.0,0.0,0.0,0.0,0.0,0.0,0.0,0.0,0.0,0.0,0.0,0.0,0.0,-4.0176,-4.0234,0.0,-4.031,-4.031,-4.031,-4.031,-4.0788,-4.1074,-4.1074,-4.1609,-4.2049,-4.2335,-4.2335,-4.2335,-4.2335,-4.2335,-4.245,-4.2679,-4.2679,-4.3138,-4.394,-4.394,-4.4132,-4.4479,-4.4479,-4.4499,-4.4537,-4.4537,-4.3885,-4.2907,-4.2944,-4.2961,-4.2961,-4.3015,-4.3032,-4.3069,0.0,0.0,0.0,0.0,0.0,0.0,0.0,0.0,0.0,0.0,0.0,0.0,0.0,0.0,0.0,0.0,0.0,0.0,0.0,0.0,0.0,0.0,0.0,0.0,0.0,0.0,0.0,0.0,0.0,0.0,0.0,0.0,0.0,0.0,0.0,0.0,0.0,0.0,0.0,0.0,0.0,0.0,-3.8707,0.0,0.0,0.0,0.0,0.0,0.0,0.0,0.0,0.0,0.0,0.0,0.0,0.0,0.0,0.0,0.0,0.0,0.0,0.0,0.0,0.0,0.0,0.0,0.0,0.0,0.0,0.0,0.0,0.0,0.0,0.0,0.0,0.0,0.0,-4.031,-4.031,-4.031,-4.031,-4.031,-4.031,-4.0559,-4.0711,-4.0711,-4.1476,-4.1934,-4.1934,-4.2488,-4.2928,-4.3195,-4.3195,-4.3195,-4.3195,-4.3195,-4.3348,-4.3615,-4.3615,-4.4036,-4.4857,-4.4857,-4.507,-4.5398,-4.5398,-4.5438,-4.5495,-4.5495,-4.4822,-4.3806,-4.3861,-4.3878,-4.3878,-4.3932,-4.3932,-4.3932,0.0,0.0,0.0,0.0,0.0,0.0,0.0,0.0,0.0,0.0,0.0,0.0,0.0,0.0,0.0,0.0,0.0,0.0,0.0,0.0,0.0,0.0,0.0,0.0,0.0,0.0,0.0,0.0,0.0,0.0,0.0,0.0,0.0,0.0,0.0,0.0,0.0,0.0,0.0,0.0,0.0,0.0,-3.8707,0.0,0.0,0.0,0.0,0.0,0.0,0.0,0.0,0.0,0.0,0.0,0.0,0.0,0.0,0.0,0.0,0.0,0.0,0.0,0.0,0.0,0.0,0.0,0.0,0.0,0.0,0.0,0.0,0.0,0.0,0.0,0.0,0.0,-4.031,-4.031,-4.031,-4.0329,-4.0348,-4.0348,-4.0387,-4.1074,-4.1533,-4.1533,-4.2354,-4.2832,-4.2832,-4.2851,-4.3233,-4.4036,-4.4055,-4.4055,-4.4093,-4.4093,-4.3711,-4.2966,-4.2966,-4.3367,-4.4131,-4.4131,-4.461,-4.5475,-4.5495,-4.5534,-4.5571,-4.5571,-4.5627,-4.5663,-4.5605,-4.5586,-4.5586,-4.5624,-4.5663,-4.5682,0.0,0.0,0.0,0.0,0.0,0.0,0.0,0.0,0.0,0.0,0.0,0.0,0.0,0.0,0.0,0.0,0.0,0.0,0.0,0.0,0.0,0.0,0.0,0.0,0.0,0.0,0.0,0.0,0.0,0.0,0.0,0.0,0.0,0.0,0.0,0.0,0.0,0.0,0.0,0.0,0.0,0.0,-3.8707,0.0,0.0,0.0,0.0,0.0,0.0,0.0,0.0,0.0,0.0,0.0,0.0,0.0,0.0,0.0,0.0,0.0,0.0,0.0,0.0,0.0,0.0,0.0,0.0,0.0,0.0,0.0,0.0,0.0,0.0,0.0,-4.031,-4.031,-4.031,-4.031,-4.052,-4.1094,-4.117,-4.1418,-4.2049,-4.2316,-4.2431,-4.2431,-4.3195,-4.3673,-4.3673,-4.4265,-4.4704,-4.4934,-4.4934,-4.522,-4.5812,-4.5812,-4.6023,-4.6443,-4.6443,-4.6538,-4.6768,-4.6811,-4.7007,-4.7278,-4.7337,-4.7377,-4.7395,-4.7395,-4.7395,-4.7298,-4.6067,-4.5586,-4.5682,-4.6317,-4.6913,-4.7413,0.0,0.0,0.0,0.0,0.0,0.0,0.0,0.0,0.0,0.0,0.0,0.0,0.0,0.0,0.0,0.0,0.0,0.0,0.0,0.0,0.0,0.0,0.0,0.0,0.0,0.0,0.0,0.0,0.0,0.0,0.0,0.0,0.0,0.0,0.0,0.0,0.0,0.0,0.0,0.0,0.0,0.0,-3.8707,-3.8707,-3.8707,-3.8707,-3.8707,-3.8707,-3.8707,-3.8707,0.0,0.0,0.0,0.0,0.0,0.0,0.0,0.0,0.0,0.0,0.0,0.0,0.0,0.0,0.0,0.0,0.0,0.0,0.0,0.0,0.0,0.0,0.0,0.0,-4.0578,-4.0807,-4.0807,-4.0807,-4.0979,-4.1437,-4.182,-4.224,-4.2756,-4.31,-4.331,-4.331,-4.4399,-4.5048,-4.5048,-4.587,-4.6347,-4.6347,-4.6347,-4.6577,-4.7035,-4.7054,-4.7302,-4.7799,-4.7799,-4.7799,-4.7843,-4.7886,-4.7947,-4.8048,-4.8068,-4.8106,-4.8105,-4.8105,-4.8105,-4.8009,0.0,0.0,0.0,0.0,-4.7702,-4.8105,0.0,0.0,0.0,0.0,0.0,0.0,0.0,0.0,0.0,0.0,0.0,0.0,0.0,0.0,0.0,0.0,0.0,0.0,0.0,0.0,0.0,0.0,0.0,0.0,0.0,0.0,0.0,0.0,0.0,0.0,0.0,0.0,0.0,0.0,0.0,0.0,0.0,0.0,0.0,0.0,0.0,0.0,-3.8707,-3.8707,-3.8707,-3.8707,-3.8707,-3.8707,-3.8707,-3.8707,0.0,0.0,0.0,0.0,0.0,0.0,0.0,0.0,0.0,0.0,0.0,0.0,0.0,0.0,0.0,0.0,0.0,0.0,0.0,0.0,0.0,0.0,0.0,0.0,-4.1094,-4.1648,-4.1648,-4.1724,-4.1781,-4.1781,-4.2469,-4.3004,-4.3195,-4.3864,-4.4322,-4.4437,-4.5812,-4.6653,-4.6653,-4.7379,0.0,0.0,0.0,-4.7857,-4.7952,-4.7952,-4.799,-4.8086,-4.8086,-4.813,-4.8173,-4.8194,-4.8276,-4.8375,-4.8375,-4.8395,-4.8394,-4.8394,-4.8394,-4.8375,-4.8182,-4.8163,-4.8259,-4.8259,-4.8317,-4.8394,0.0,0.0,0.0,0.0,0.0,0.0,0.0,0.0,0.0,0.0,0.0,0.0,0.0,0.0,0.0,0.0,0.0,0.0,0.0,0.0,0.0,0.0,0.0,0.0,0.0,0.0,0.0,0.0,0.0,0.0,0.0,0.0,0.0,0.0,0.0,0.0,0.0,0.0,0.0,0.0,0.0,0.0,-3.8707,-3.8707,-3.8707,-3.8707,-3.8707,-3.8707,-3.8707,-3.8707,-3.8707,-3.8707,-3.8707,0.0,0.0,0.0,0.0,0.0,0.0,0.0,0.0,0.0,0.0,0.0,0.0,0.0,0.0,0.0,0.0,0.0,0.0,0.0,0.0,-4.0986,-4.1854,-4.2545,-4.2545,-4.3119,-4.352,-4.352,-4.3673,-4.4303,-4.566,-4.5927,-4.6309,-4.7016,-4.7379,-4.7551,-4.7551,-4.7723,-4.7799,-4.7799,-4.7799,-4.8143,-4.8831,-4.8857,-4.9163,-4.9824,-4.9915,0.0,-4.9915,-5.0021,-5.0083,-5.0123,-5.0163,-5.0202,-5.0202,-5.0202,-5.0202,-5.0048,-4.8644,-4.8529,-4.9144,-4.9144,-4.9586,-5.0202,0.0,0.0,0.0,0.0,0.0,0.0,0.0,0.0,0.0,0.0,0.0,0.0,0.0,0.0,0.0,0.0,0.0,0.0,0.0,0.0,0.0,0.0,0.0,0.0,0.0,0.0,0.0,0.0,0.0,0.0,0.0,0.0,0.0,0.0,0.0,0.0,0.0,0.0,0.0,0.0,0.0,0.0,-3.8707,-3.8707,-3.8707,-3.8707,-3.8707,-3.8707,-3.8707,-3.8707,-3.8707,-3.8707,-3.8707,-3.8707,-3.8707,0.0,0.0,0.0,0.0,0.0,0.0,0.0,0.0,0.0,0.0,0.0,0.0,0.0,0.0,-4.0431,-4.052,0.0,-4.1984,-4.1965,-4.2772,-4.3558,-4.3997,-4.4763,-4.5126,-4.4704,-4.501,-4.5755,-4.7035,-4.715,-4.7341,-4.7805,-4.8223,-4.8452,-4.8455,-4.8834,-4.906,-4.9105,-4.9105,-4.9338,-4.98,-4.9784,-4.9994,-5.0393,-5.0478,-5.05,-5.05,-5.0582,-5.0623,-5.0643,-5.0702,-5.0702,-5.0702,-5.0702,-5.0702,-5.0606,-4.974,-4.9663,-5.0048,-5.0048,-5.0317,-5.0702,0.0,0.0,0.0,0.0,0.0,0.0,0.0,0.0,0.0,0.0,0.0,0.0,0.0,0.0,0.0,0.0,0.0,0.0,0.0,0.0,0.0,0.0,0.0,0.0,0.0,0.0,0.0,0.0,0.0,0.0,0.0,0.0,0.0,0.0,0.0,0.0,0.0,0.0,0.0,0.0,0.0,0.0,-3.8719,-3.8719,-3.8719,-3.8719,-3.8719,-3.8738,-3.8719,-3.8719,-3.8719,-3.8719,-3.8719,-3.8719,-3.8719,-3.8719,-3.8719,0.0,0.0,0.0,0.0,0.0,0.0,0.0,0.0,-3.9322,-3.9541,-3.9868,-4.0604,-4.1241,-4.1355,-4.2183,-4.2917,-4.3193,-4.3959,-4.482,-4.5701,-4.6431,-4.6661,-4.6122,-4.6505,-4.7114,-4.7974,-4.807,-4.8149,-4.8386,-4.9013,-4.9376,-4.9382,-4.9988,-5.0348,-5.0412,-5.0435,-5.0457,-5.05,-5.0521,-5.0521,-5.05,-5.0521,-5.0542,-5.0603,-5.0603,-5.0643,-5.0702,-5.0702,-5.0702,-5.0702,-5.0702,-5.0702,-5.0683,-5.0624,-5.0604,-5.0604,-5.0604,-5.0604,-5.0604,0.0,0.0,0.0,0.0,0.0,0.0,0.0,0.0,0.0,0.0,0.0,0.0,0.0,0.0,0.0,0.0,0.0,0.0,0.0,0.0,0.0,0.0,0.0,0.0,0.0,0.0,0.0,0.0,0.0,0.0,0.0,0.0,0.0,0.0,0.0,0.0,0.0,0.0,0.0,0.0,0.0,0.0,-3.8792,-3.8792,-3.8792,-3.8792,-3.8792,-3.8822,-3.8881,-3.8881,-3.8881,-3.8881,-3.8881,-3.8881,-3.8881,-3.8881,0.0,-3.8881,-3.8881,-3.8822,-3.8762,-3.8719,-3.875,-3.8862,0.0,-3.9805,-4.0416,-4.0696,-4.1594,-4.2253,-4.203,-4.3088,-4.4192,-4.4753,-4.5721,-4.6703,-4.7566,-4.7797,-4.8065,-4.8698,-4.8198,-4.814,-4.8966,-4.9043,-4.9369,-5.0155,-5.0287,-5.0325,-5.0347,-5.0421,-5.0478,-5.05,-5.05,-5.05,-5.05,-5.0562,-5.0562,-5.05,-5.0623,-5.0643,-5.0603,-5.0663,-5.0683,-5.0702,-5.0702,-5.0702,-5.0702,-5.0702,-5.0702,-5.0663,-5.0358,-5.0272,-5.0272,-5.0272,-5.0272,-5.0206,0.0,0.0,0.0,0.0,0.0,0.0,0.0,0.0,0.0,0.0,0.0,0.0,0.0,0.0,0.0,0.0,0.0,0.0,0.0,0.0,0.0,0.0,0.0,0.0,0.0,0.0,0.0,0.0,0.0,0.0,0.0,0.0,0.0,0.0,0.0,0.0,0.0,0.0,0.0,0.0,0.0,0.0,-3.875,-3.8792,-3.8822,-3.8851,-3.8851,-3.8881,0.0,0.0,-3.891,-3.891,-3.891,-3.891,-3.891,-3.891,-3.891,0.0,-3.891,-3.8881,-3.8962,-3.9393,-3.9552,-3.9723,-4.0399,-4.0828,-4.1109,-4.1287,-4.2566,-4.3674,-4.368,-4.5084,-4.635,-4.6715,-4.7162,-4.7739,-4.8564,-4.8739,-4.9085,-4.9909,-4.9758,-4.9681,-4.9946,-4.9944,-5.0119,-5.0523,-5.0521,-5.0521,-5.0562,-5.0521,-5.0521,-5.0562,-5.0562,-5.0582,-5.0623,-5.0643,-5.0643,-5.0623,-5.0663,-5.0702,-5.0643,-5.0702,-5.0702,-5.0702,-5.0702,-5.0702,-5.0683,-5.0483,-5.0421,-5.038,-5.0087,-4.9987,-4.9987,-4.9987,-4.9987,-4.9943,0.0,0.0,0.0,0.0,0.0,0.0,0.0,0.0,0.0,0.0,0.0,0.0,0.0,0.0,0.0,0.0,0.0,0.0,0.0,0.0,0.0,0.0,0.0,0.0,0.0,0.0,0.0,0.0,0.0,0.0,0.0,0.0,0.0,0.0,0.0,0.0,0.0,0.0,0.0,0.0,0.0,0.0,-3.8719,-3.8792,-3.8851,-3.891,-3.891,-3.8921,0.0,0.0,-3.895,-3.895,-3.895,-3.895,-3.895,-3.895,-3.895,-3.895,-3.8921,-3.9087,-3.9401,-3.9963,-4.0307,-4.067,-4.1329,-4.1674,-4.1913,-4.2023,-4.3577,-4.5021,-4.5247,-4.6656,-4.7943,-4.8336,-4.8374,-4.8682,-4.9507,-4.9662,-4.9912,-5.0546,-5.0663,-5.0663,-5.0563,-5.0542,-5.0582,-5.0623,-5.0563,-5.0582,-5.0623,-5.0563,-5.0582,-5.0623,-5.0623,-5.0643,-5.0702,-5.0702,-5.0702,-5.0702,-5.0702,-5.0702,-5.0702,-5.0702,-5.0702,-5.0683,-5.0604,-5.0565,-5.0544,-5.0225,-5.0087,-5.0043,-4.9803,-4.9693,-4.9665,-4.9579,-4.9608,-4.9665,0.0,0.0,0.0,0.0,0.0,0.0,0.0,0.0,0.0,0.0,0.0,0.0,0.0,0.0,0.0,0.0,0.0,0.0,0.0,0.0,0.0,0.0,0.0,0.0,0.0,0.0,0.0,0.0,0.0,0.0,0.0,0.0,0.0,0.0,0.0,0.0,0.0,0.0,0.0,0.0,0.0,0.0,-3.8792,-3.8792,-3.8851,-3.891,-3.891,0.0,0.0,0.0,-3.9101,-3.9101,-3.9101,-3.9101,0.0,-3.9101,-3.9101,-3.9073,-3.9007,-3.9552,-4.0163,-4.0122,-4.0781,-4.1471,-4.1489,-4.2143,-4.2832,-4.309,-4.47,-4.613,-4.6399,-4.7357,-4.8356,-4.9221,-4.9356,-4.9663,-5.0529,-5.0664,-5.0664,-5.0683,-5.0702,-5.0702,-5.0683,-5.0683,-5.0683,-5.0702,-5.0702,-5.0683,-5.0702,-5.0702,-5.0683,-5.0702,-5.0702,-5.0702,-5.0702,-5.0702,-5.0702,-5.0702,-5.0702,-5.0702,-5.0702,-5.0702,-5.0702,-5.0683,-5.0358,-5.0206,-5.0183,-4.9917,-4.9811,-4.9803,-4.9529,-4.9396,-4.9365,-4.9061,-4.9108,-4.9384,0.0,0.0,0.0,0.0,0.0,0.0,0.0,0.0,0.0,0.0,0.0,0.0,0.0,0.0,0.0,0.0,0.0,0.0,0.0,0.0,0.0,0.0,0.0,0.0,0.0,0.0,0.0,0.0,0.0,0.0,0.0,0.0,0.0,0.0,0.0,0.0,0.0,0.0,0.0,0.0,0.0,0.0,-3.8719,-3.8719,-3.8792,-3.891,0.0,0.0,0.0,0.0,0.0,0.0,-3.9101,-3.9101,-3.9101,-3.9101,-3.9101,-3.9231,-3.9779,-4.0131,-4.0566,-4.1642,-4.2124,-4.2507,-4.3045,-4.338,-4.3669,-4.3933,-4.5115,-4.6168,-4.6459,-4.7376,-4.8394,-4.926,-4.9394,-4.9702,-5.0567,-5.0702,-5.0702,-5.0702,-5.0702,-5.0702,-5.0702,-5.0702,-5.0702,-5.0702,-5.0702,-5.0702,-5.0702,-5.0702,-5.0702,-5.0702,-5.0702,-5.0702,-5.0702,-5.0702,-5.0702,-5.0702,-5.0464,-5.0358,-5.0358,-5.0178,-5.0106,-5.0106,-4.9987,-4.9917,-4.9917,-4.9655,-4.9529,-4.9499,-4.9174,-4.9061,-4.9061,-4.8925,-4.8959,-4.9061,0.0,0.0,0.0,0.0,0.0,0.0,0.0,0.0,0.0,0.0,0.0,0.0,0.0,0.0,0.0,0.0,0.0,0.0,0.0,0.0,0.0,0.0,0.0,0.0,0.0,0.0,0.0,0.0,0.0,0.0,0.0,0.0,0.0,0.0,0.0,0.0,0.0,0.0,0.0,0.0,0.0,0.0,-3.875,-3.875,-3.8822,0.0,0.0,0.0,0.0,0.0,0.0,-3.9101,-3.9101,-3.9101,-3.9101,-3.9101,-3.9324,-3.9677,-4.0234,-4.081,-4.1497,-4.2537,-4.302,-4.3355,-4.3875,-4.4079,-4.4221,-4.4493,-4.5458,-4.6329,-4.6585,-4.7453,-4.8279,-4.8836,-4.9202,-4.9606,-5.0164,-5.0491,-5.0702,-5.0702,-5.0702,-5.0702,-5.0702,-5.0702,-5.0702,-5.0702,-5.0702,-5.0702,-5.0702,-5.0702,-5.0702,-5.0702,-5.0702,-5.0702,-5.0702,-5.0702,-5.0624,-5.0504,-5.0294,-5.0159,-5.0043,-4.9884,-4.9803,-4.9784,-4.9693,-4.9655,-4.9608,-4.9346,-4.9225,-4.9193,-4.8993,-4.8909,-4.8909,-4.8909,-4.8909,-4.8909,0.0,0.0,0.0,0.0,0.0,0.0,0.0,0.0,0.0,0.0,0.0,0.0,0.0,0.0,0.0,0.0,0.0,0.0,0.0,0.0,0.0,0.0,0.0,0.0,0.0,0.0,0.0,0.0,0.0,0.0,0.0,0.0,0.0,0.0,0.0,0.0,0.0,0.0,0.0,0.0,0.0,0.0,-3.8766,-3.8862,0.0,0.0,0.0,0.0,0.0,0.0,0.0,-3.9101,-3.9101,-3.9101,-3.9101,-3.9157,-3.9751,-4.042,-4.0494,-4.1627,-4.2816,-4.2853,-4.3448,-4.4005,-4.4005,-4.4192,-4.4465,-4.4751,-4.5677,-4.6527,-4.678,-4.7452,-4.7971,-4.801,-4.8702,-4.9279,-4.9356,-5.0106,-5.0644,-5.0683,-5.0702,-5.0702,-5.0702,-5.0702,-5.0702,-5.0702,-5.0702,-5.0702,-5.0702,-5.0702,-5.0702,-5.0702,-5.0702,-5.0702,-5.0702,-5.0683,-5.0504,-5.0183,-5.0159,-5.0038,-4.9776,-4.9757,-4.973,-4.9749,-4.9469,-4.9384,-4.9352,-4.9027,-4.8909,-4.8909,-4.8909,-4.8909,-4.8909,-4.8909,-4.8909,-4.8909,0.0,0.0,0.0,0.0,0.0,0.0,0.0,0.0,0.0,0.0,0.0,0.0,0.0,0.0,0.0,0.0,0.0,0.0,0.0,0.0,0.0,0.0,0.0,0.0,0.0,0.0,0.0,0.0,0.0,0.0,0.0,0.0,0.0,0.0,0.0,0.0,0.0,0.0,0.0,0.0,0.0,0.0,-3.805,0.0,0.0,0.0,0.0,0.0,0.0,0.0,0.0,0.0,-3.9101,-3.9101,-3.9231,-3.9881,-4.0215,-4.0661,-4.185,-4.2482,-4.2946,-4.354,-4.3856,-4.4005,-4.4005,-4.4192,-4.4465,-4.4751,-4.5201,-4.5628,-4.5877,-4.5937,-4.6144,-4.6816,-4.7103,-4.7677,-4.8941,-4.9469,-4.9971,-5.0606,-5.0702,-5.0702,-5.0702,-5.0702,-5.0702,-5.0702,-5.0702,-5.0702,-5.0702,-5.0702,-5.0702,-5.0702,-5.0702,-5.0702,-5.0702,-5.0442,-5.0183,-4.9891,-4.9712,-4.9558,-4.9499,-4.9252,-4.9123,-4.9123,-4.9061,-4.9027,-4.9027,-4.8943,-4.8909,-4.8909,-4.8909,-4.8909,-4.8909,-4.8909,-4.8909,-4.8909,0.0,0.0,0.0,0.0,0.0,0.0,0.0,0.0,0.0,0.0,0.0,0.0,0.0,0.0,0.0,0.0,0.0,0.0,0.0,0.0,0.0,0.0,0.0,0.0,0.0,0.0,0.0,0.0,0.0,0.0,0.0,0.0,0.0,0.0,0.0,0.0,0.0,0.0,0.0,0.0,0.0,0.0,0.0,0.0,0.0,0.0,0.0,0.0,0.0,0.0,0.0,-3.9101,-3.9101,-3.9101,-3.9268,-4.0141,-4.0643,-4.12,-4.2463,-4.3058,-4.346,-4.4039,-4.4181,-4.4181,-4.4181,-4.4374,-4.4572,-4.4624,-4.4919,-4.5243,-4.54,-4.54,-4.5534,-4.6033,-4.6416,-4.6991,-4.7949,-4.8836,-4.9586,-5.0067,-5.0471,-5.0702,-5.0702,-5.0702,-5.0702,-5.0702,-5.0702,-5.0702,-5.0702,-5.0702,-5.0702,-5.0702,-5.0702,-5.0624,-5.0483,-5.0178,-4.991,-4.9627,-4.9488,-4.9302,-4.9193,-4.9012,-4.8909,-4.8909,-4.8909,-4.8909,-4.8909,-4.8909,-4.8909,-4.8909,-4.8909,-4.8909,-4.8909,-4.8874,-4.8857,-4.8839,0.0,0.0,0.0,0.0,0.0,0.0,0.0,0.0,0.0,0.0,0.0,0.0,0.0,0.0,0.0,0.0,0.0,0.0,0.0,0.0,0.0,0.0,0.0,0.0,0.0,0.0,0.0,0.0,0.0,0.0,0.0,0.0,0.0,0.0,0.0,0.0,0.0,0.0,0.0,0.0,0.0,0.0,0.0,0.0,0.0,0.0,0.0,0.0,0.0,0.0,-3.9045,-3.9101,-3.9101,-3.9101,-3.9268,-4.0141,-4.0958,-4.1776,-4.2575,-4.3404,-4.4091,-4.4346,-4.443,-4.4401,-4.4307,-4.4575,-4.4738,-4.4414,-4.482,-4.5243,-4.5243,-4.5419,-4.555,-4.555,0.0,-4.6723,-4.6838,-4.8221,-4.926,-4.9394,-5.0164,-5.0702,-5.0702,-5.0702,-5.0702,-5.0702,-5.0702,-5.0702,-5.0702,-5.0663,-5.0624,-5.0584,-5.0584,-5.0421,-5.0111,-4.9865,-4.9598,-4.9352,-4.9352,-4.9193,-4.8909,-4.8909,-4.8909,-4.8909,-4.8909,-4.8909,-4.8909,-4.8909,-4.8909,-4.8874,-4.8874,-4.8874,-4.8855,-4.8768,-4.8787,-4.8751,0.0,0.0,0.0,0.0,0.0,0.0,0.0,0.0,0.0,0.0,-2.001,-2.0273,0.0,0.0,0.0,0.0,0.0,0.0,0.0,0.0,0.0,0.0,0.0,0.0,0.0,0.0,0.0,0.0,0.0,0.0,0.0,0.0,0.0,0.0,0.0,0.0,0.0,0.0,0.0,0.0,0.0,0.0,0.0,0.0,0.0,0.0,0.0,0.0,0.0,0.0,-3.9045,-3.9101,-3.9036,-3.9064,-3.9268,-4.0141,-4.0958,-4.1776,-4.2575,-4.3565,-4.4346,-4.4402,-4.4572,-4.4537,-4.3818,-4.4406,0.0,-4.4138,-4.4805,-4.5531,-4.5531,-4.54,-4.5263,-4.5263,-4.5397,-4.5741,-4.6468,-4.7588,-4.8586,-4.9317,-5.0164,-5.0702,-5.0702,-5.0702,-5.0702,-5.0702,-5.0702,-5.0702,-5.0702,-5.0442,-5.0202,-4.9962,-4.9962,-4.9803,-4.9529,-4.9469,-4.9302,-4.9012,-4.9012,-4.8978,-4.8909,-4.8909,-4.8909,-4.8909,-4.8909,-4.8909,-4.8909,-4.8909,-4.8874,-4.8822,-4.8822,-4.8768,-4.866,-4.8642,-4.8623,-4.8642,0.0,0.0,0.0,0.0,0.0,0.0,0.0,0.0,-1.9762,-1.9884,-1.999,-2.015,-2.0426,-2.0811,0.0,0.0,0.0,0.0,0.0,0.0,0.0,0.0,0.0,0.0,0.0,0.0,-2.7503,-2.7586,0.0,0.0,0.0,-3.0057,-3.075,0.0,0.0,0.0,0.0,0.0,0.0,0.0,0.0,0.0,0.0,0.0,0.0,0.0,0.0,0.0,0.0,0.0,-3.9007,-3.9073,-3.9007,-3.9064,-3.9277,-4.028,-4.083,-4.1409,-4.2679,-4.339,-4.3904,-4.4478,-4.4361,-4.4047,-4.3764,0.0,0.0,-4.3808,-4.4609,-4.54,-4.54,-4.54,0.0,-4.5419,-4.5419,-4.5554,-4.5976,-4.6877,-4.7798,-4.8625,-4.949,-5.0124,-5.0404,-5.0604,-5.0624,-5.0442,-5.0442,-5.0442,-5.0442,-5.0155,-4.9917,-4.9784,-4.9665,-4.9529,-4.9415,-4.9225,-4.9061,-4.8909,-4.8909,-4.8909,-4.8909,-4.8874,-4.8874,-4.8909,-4.8785,-4.8785,-4.8839,-4.875,-4.8714,-4.8697,-4.8697,-4.8642,-4.8587,-4.855,-4.855,-4.855,0.0,0.0,0.0,0.0,0.0,0.0,0.0,-1.969,-1.9762,-1.997,-2.0005,-2.0025,-2.015,-2.0561,-2.0974,0.0,0.0,0.0,0.0,0.0,0.0,0.0,0.0,0.0,0.0,0.0,0.0,-2.7038,-2.7688,0.0,0.0,0.0,0.0,0.0,-3.104,-3.1608,0.0,0.0,0.0,0.0,0.0,-3.3606,0.0,0.0,0.0,0.0,0.0,0.0,0.0,0.0,-3.895,-3.9045,-3.8979,-3.9017,-3.9268,-4.0195,-4.0572,-4.1004,-4.2389,-4.293,-4.3316,-4.4142,-4.3893,-4.3409,-4.3444,-4.3599,0.0,-4.3444,-4.426,-4.5052,-4.5264,-4.5476,-4.5586,0.0,-4.5586,-4.5586,-4.5586,-4.6355,-4.7201,-4.8009,-4.8875,-4.9624,-5.0153,-5.0442,-5.0462,-5.0135,-5.0043,-4.9993,-5.0038,-4.983,-4.9693,-4.9608,-4.9408,-4.927,-4.927,-4.9027,-4.8909,-4.8874,-4.8874,-4.8874,-4.882,-4.8768,-4.8768,-4.882,-4.8678,-4.8642,-4.8732,-4.8642,-4.8587,-4.8569,-4.8569,-4.8569,-4.8514,-4.8494,-4.8457,-4.8457,0.0,0.0,0.0,0.0,0.0,0.0,0.0,-1.969,-1.9762,-1.997,-2.0005,-2.0061,-2.027,-2.0595,-2.1071,0.0,0.0,0.0,0.0,0.0,0.0,0.0,0.0,0.0,0.0,0.0,0.0,-2.6926,-2.7043,0.0,0.0,0.0,0.0,0.0,0.0,-3.1263,-3.1434,0.0,0.0,0.0,0.0,0.0,0.0,0.0,0.0,0.0,0.0,0.0,0.0,0.0,0.0,-3.8939,-3.8892,-3.9007,-3.9156,-3.9502,0.0,0.0,-4.118,-4.2012,-4.277,-4.2867,-4.3025,-4.2939,-4.2168,0.0,-4.3167,-4.3131,-4.3801,-4.4626,-4.5414,-4.5586,-4.5586,-4.5586,0.0,-4.5586,-4.5586,-4.6355,-4.7201,-4.8009,-4.8875,-4.9624,-5.0153,-5.023,-5.0135,-4.9857,-4.9502,-4.934,-4.9488,-4.9457,-4.9302,-4.8993,-4.8959,-4.8943,-4.8943,-4.8909,-4.8874,-4.8822,-4.8822,-4.8732,-4.8623,-4.8623,-4.8623,-4.8623,-4.8587,-4.8587,-4.8642,-4.8587,-4.8569,-4.8494,-4.8494,-4.8438,-4.8344,-4.8306,-4.8306,-4.8306,0.0,0.0,0.0,0.0,0.0,0.0,-1.9654,-1.969,-1.9726,-1.9848,-1.9884,-1.9955,-2.0096,-2.0289,-2.0663,0.0,0.0,0.0,0.0,0.0,0.0,0.0,0.0,0.0,0.0,0.0,-2.6825,-2.6893,-2.7103,0.0,0.0,0.0,0.0,0.0,0.0,-3.054,-3.139,-3.2067,0.0,0.0,0.0,0.0,0.0,0.0,0.0,0.0,0.0,0.0,-3.7706,0.0,0.0,0.0,-3.891,-3.895,0.0,0.0,-3.9924,-4.0507,-4.0972,-4.1504,-4.2048,-4.2583,-4.2393,-4.2045,-4.1841,0.0,-4.2316,-4.2316,-4.3374,-4.4412,-4.4739,-4.524,-4.5586,0.0,0.0,0.0,-4.5586,-4.5856,-4.6377,-4.7278,-4.7971,-4.8567,-4.9081,-4.9549,-4.9719,-4.9412,-4.9246,-4.9071,-4.894,-4.8993,-4.9012,-4.8909,-4.8909,-4.8874,-4.8857,-4.8857,-4.8768,-4.8678,-4.8678,-4.8642,-4.8587,-4.855,-4.8569,-4.8587,-4.8476,-4.8458,-4.8513,-4.8458,-4.8382,-4.8363,-4.8363,-4.8363,-4.8306,-4.8306,-4.8306,-4.8306,0.0,0.0,0.0,0.0,0.0,-1.925,-1.9654,-1.969,-1.9726,-1.9797,-1.9797,-1.9848,-2.0005,-2.0025,-2.0395,-2.1166,0.0,0.0,0.0,0.0,0.0,0.0,0.0,0.0,0.0,0.0,-2.6521,-2.6842,-2.7149,-2.7334,0.0,0.0,-2.8649,-2.9269,0.0,0.0,0.0,0.0,0.0,0.0,0.0,0.0,0.0,0.0,0.0,0.0,0.0,0.0,0.0,0.0,0.0,0.0,0.0,0.0,0.0,0.0,-3.9813,-4.0195,-4.0765,-4.1017,-4.1283,-4.1896,-4.1589,-4.1185,0.0,0.0,-4.1489,-4.1758,-4.2951,-4.4028,-4.4259,-4.5009,-4.5586,0.0,0.0,-4.5513,-4.555,-4.5495,-4.5783,-4.6608,-4.7269,-4.78,-4.8211,-4.8886,-4.919,-4.8937,-4.8922,-4.8818,-4.8569,-4.8679,-4.8732,-4.882,-4.882,-4.8804,-4.8732,-4.8732,-4.8697,-4.8569,-4.8569,-4.8569,-4.8514,-4.8476,-4.8476,-4.8514,-4.8382,-4.8363,-4.8419,-4.8363,-4.8306,-4.8306,-4.8306,-4.8306,-4.8306,-4.8306,-4.8306,-4.8306,0.0,0.0,0.0,0.0,0.0,0.0,0.0,-1.969,-1.9726,-1.9797,-1.9797,-1.9848,-2.0005,-2.0005,-2.0308,-2.1039,0.0,0.0,0.0,0.0,0.0,0.0,0.0,0.0,0.0,0.0,-2.5981,-2.6691,-2.7053,-2.7227,-2.7303,-2.7654,-2.7886,-2.8063,0.0,0.0,0.0,0.0,0.0,0.0,0.0,0.0,0.0,0.0,0.0,0.0,0.0,0.0,0.0,0.0,0.0,0.0,0.0,0.0,0.0,0.0,-3.9754,-3.9903,-4.0372,-4.0508,-4.0508,-4.0508,-4.0508,-4.0508,0.0,-4.0508,-4.0758,-4.1623,-4.2508,-4.3355,-4.4143,-4.5009,-4.5586,-4.5513,0.0,0.0,-4.5419,-4.54,-4.5628,-4.6214,-4.7006,-4.7598,-4.7891,-4.8336,-4.8569,-4.8494,-4.8513,-4.8494,-4.8513,-4.8513,-4.8513,-4.8587,-4.8587,-4.8587,-4.8587,-4.8587,-4.8569,-4.8513,-4.8513,-4.8419,-4.8306,-4.8306,-4.8306,-4.8306,-4.8306,-4.8306,-4.8306,-4.8306,-4.8306,-4.8306,-4.8306,-4.8306,-4.8306,-4.8306,-4.8306,-4.8306,0.0,0.0,0.0,0.0,0.0,0.0,0.0,-1.969,-1.9726,-1.9726,-1.9726,-1.9762,-1.9797,-2.008,-2.041,-2.0665,0.0,0.0,0.0,0.0,0.0,0.0,0.0,0.0,0.0,0.0,-2.6061,-2.7053,-2.74,-2.7666,-2.7918,-2.8273,-2.8448,-2.8543,-2.8771,-2.9,0.0,0.0,0.0,0.0,0.0,0.0,-3.3807,0.0,0.0,0.0,0.0,0.0,0.0,0.0,0.0,0.0,0.0,0.0,0.0,0.0,0.0,0.0,-4.0195,-4.0358,-4.0499,-4.0499,-4.0463,-4.043,-4.043,-4.043,-4.0523,-4.0844,-4.1555,-4.2401,-4.3246,-4.411,-4.4879,-4.5342,-4.5243,0.0,0.0,-4.5033,-4.4943,-4.5369,-4.621,-4.7174,-4.8196,-4.8347,-4.8382,-4.8363,-4.8363,-4.8363,-4.8363,-4.8363,-4.8438,-4.8587,-4.8587,-4.8569,-4.8513,-4.8513,-4.8476,-4.8363,-4.8363,-4.8363,-4.8306,-4.8306,-4.8306,-4.8306,-4.8306,-4.8306,-4.8306,-4.8306,-4.8306,-4.8306,-4.8306,-4.8306,-4.8306,-4.8306,-4.8306,-4.8306,0.0,0.0,0.0,0.0,0.0,0.0,0.0,-1.969,-1.969,-1.969,-1.969,-1.969,-1.969,-2.005,-2.0429,-2.0614,0.0,0.0,0.0,0.0,0.0,0.0,0.0,0.0,0.0,-2.5086,-2.5993,-2.6935,-2.7555,-2.7954,-2.8156,-2.85,-2.8712,-2.8761,-2.8619,-2.8669,0.0,0.0,0.0,0.0,0.0,0.0,-3.3807,0.0,0.0,0.0,0.0,0.0,0.0,0.0,0.0,0.0,0.0,0.0,0.0,0.0,-3.9816,-4.0042,0.0,-4.0344,-4.0449,-4.0449,-4.0432,0.0,0.0,0.0,-4.0415,-4.0449,-4.1031,-4.1837,-4.279,-4.3598,-4.4345,-4.5088,-4.503,-4.4938,-4.5011,-4.4701,-4.4718,-4.5421,-4.5935,-4.6794,-4.8291,-4.8363,-4.8306,-4.8306,-4.8306,-4.8306,-4.8306,-4.8306,-4.8344,-4.8476,-4.8495,-4.8458,-4.8401,-4.8401,-4.8363,-4.8306,-4.8306,-4.8306,-4.8306,-4.8306,-4.8306,-4.8306,-4.8306,-4.8306,0.0,-4.8306,-4.8306,-4.8306,-4.8306,-4.8306,-4.8306,-4.8306,-4.8306,-4.8306,0.0,0.0,0.0,0.0,0.0,0.0,0.0,0.0,-1.969,-1.969,-1.969,-1.969,-1.969,-2.0015,-2.0413,-2.0861,0.0,0.0,0.0,0.0,0.0,0.0,0.0,0.0,0.0,-2.4836,-2.577,-2.6542,-2.7591,-2.8102,-2.8129,-2.8448,-2.8637,-2.8694,-2.8694,-2.8737,-2.8864,-2.9777,-3.0656,-3.1476,-3.2339,-3.3128,0.0,0.0,0.0,0.0,0.0,0.0,0.0,0.0,0.0,0.0,0.0,0.0,0.0,0.0,0.0,0.0,0.0,-4.0379,-4.0379,-4.0379,-4.0398,0.0,0.0,0.0,0.0,0.0,0.0,-4.1529,-4.2603,-4.3291,-4.3942,-4.4687,-4.4834,-4.4751,-4.4438,-4.4383,-4.4859,-4.6127,-4.6006,-4.6416,-4.7994,-4.8141,-4.8141,-4.8141,-4.8141,-4.8159,-4.8214,-4.8214,-4.8251,-4.8306,-4.8306,-4.8306,-4.8306,-4.8306,-4.8306,-4.8306,-4.8306,-4.8306,-4.8306,-4.8306,-4.8306,-4.8306,-4.8306,-4.8306,-4.8306,-4.8306,-4.8306,-4.8306,-4.8306,-4.8306,-4.8306,-4.8306,-4.8306,-4.8306,0.0,0.0,0.0,0.0,0.0,0.0,0.0,0.0,0.0,0.0,-1.969,-1.969,-1.969,-2.0273,-2.0712,0.0,0.0,0.0,0.0,0.0,0.0,0.0,0.0,0.0,0.0,-2.4836,-2.5896,-2.6872,-2.77,-2.8228,-2.8492,-2.8562,-2.8612,-2.8637,-2.8687,-2.8785,-2.8973,-3.0405,-3.1169,-3.1513,-3.2944,-3.3755,0.0,0.0,0.0,0.0,-3.4227,-3.5206,0.0,0.0,0.0,0.0,0.0,0.0,0.0,0.0,-3.9739,-3.9916,-3.9998,0.0,-4.0325,-4.0325,-4.0327,-4.031,0.0,0.0,0.0,0.0,0.0,0.0,0.0,0.0,-4.3,-4.3782,-4.4254,-4.4493,-4.4411,-4.4221,-4.4358,-4.5031,-4.502,-4.5369,-4.6379,-4.6452,-4.6452,-4.6452,-4.6452,-4.6728,-4.737,-4.7388,-4.7682,-4.8288,-4.8306,-4.8306,-4.8306,-4.8306,-4.8306,-4.8306,-4.8306,-4.8306,-4.8306,-4.8306,-4.8306,-4.8306,-4.8306,-4.8306,-4.8306,-4.8306,-4.8306,-4.8306,-4.8306,-4.8306,-4.8306,-4.8306,-4.8306,-4.8306,0.0,0.0,0.0,0.0,0.0,0.0,0.0,0.0,0.0,0.0,0.0,0.0,0.0,0.0,0.0,0.0,0.0,0.0,0.0,0.0,0.0,0.0,0.0,-2.3058,-2.3597,-2.5037,-2.604,-2.662,-2.7769,-2.8422,-2.8587,-2.8587,-2.8587,-2.8587,-2.8637,-2.8737,-2.8949,-3.0173,-3.0979,-3.1494,-3.2742,0.0,0.0,0.0,0.0,0.0,-3.4348,-3.5317,0.0,-3.6795,-3.804,-3.9551,0.0,0.0,0.0,0.0,-3.987,-4.0057,-3.9935,-4.0099,-4.0272,-4.0139,-4.0196,-4.0253,0.0,0.0,0.0,0.0,0.0,0.0,0.0,0.0,0.0,-4.324,-4.3849,-4.4162,-4.4011,-4.3873,-4.4011,-4.4617,-4.4709,-4.5021,-4.581,-4.5902,-4.5902,-4.5902,-4.5902,-4.6085,-4.6544,-4.6562,-4.6929,-4.7737,-4.7755,-4.7939,-4.8306,-4.8306,-4.8306,-4.8306,-4.8306,-4.8306,-4.8306,-4.8306,-4.8306,-4.8306,-4.8306,-4.8306,-4.8306,-4.8306,-4.8306,-4.8306,-4.8306,-4.8306,-4.8306,-4.8306,-4.8306,-4.8306,0.0,0.0,0.0,0.0,0.0,0.0,0.0,0.0,0.0,0.0,0.0,0.0,0.0,0.0,0.0,0.0,0.0,0.0,0.0,0.0,0.0,0.0,0.0,-2.3109,-2.3572,-2.5283,-2.6235,-2.6385,-2.7863,-2.8587,-2.8587,-2.8587,-2.8587,-2.8587,-2.8587,-2.8735,-2.9022,-2.9824,-3.0709,-3.1616,-3.2441,0.0,0.0,0.0,0.0,0.0,0.0,0.0,0.0,-3.6726,-3.796,-3.9551,-3.9826,0.0,0.0,0.0,0.0,0.0,-3.987,-3.9996,-4.0176,-3.9975,-4.0077,-4.0176,0.0,0.0,0.0,0.0,0.0,0.0,0.0,-4.1368,0.0,-4.2707,-4.3457,-4.3814,-4.3548,-4.3497,-4.3754,-4.4452,-4.4525,-4.4782,-4.5461,-4.5535,-4.5535,-4.5535,-4.5535,-4.559,-4.5718,-4.5718,-4.6104,-4.6911,-4.6929,-4.7315,-4.8122,-4.8251,-4.8306,-4.8306,-4.8306,-4.8306,-4.8306,-4.8306,-4.8306,-4.8306,-4.8306,-4.8306,-4.8306,-4.8306,-4.8306,-4.8306,-4.8306,-4.8306,-4.8306,-4.8306,-4.8306,-4.8306,0.0,0.0,0.0,0.0,0.0,0.0,0.0,0.0,0.0,0.0,0.0,0.0,0.0,0.0,0.0,0.0,0.0,0.0,0.0,0.0,0.0,0.0,-2.2816,-2.3383,-2.439,-2.553,-2.6483,-2.7236,-2.8135,-2.8587,-2.8587,-2.8587,-2.8587,-2.8587,-2.8587,-2.9018,-2.9766,-3.0592,-3.1445,-3.2338,-3.3122,0.0,0.0,0.0,0.0,0.0,0.0,0.0,0.0,-3.6916,-3.8089,-3.9551,-3.9826,0.0,0.0,0.0,0.0,0.0,-3.9427,-3.958,-3.9935,-3.9914,-3.9935,-3.9935,-3.9914,0.0,0.0,0.0,0.0,0.0,0.0,-4.0734,-4.1545,-4.1712,-4.2783,-4.3548,-4.3532,-4.3497,-4.3534,-4.3663,-4.3681,-4.3718,-4.3846,-4.3864,-4.3864,-4.3864,-4.3864,-4.4158,-4.4856,-4.4892,-4.5259,-4.6067,-4.6085,-4.6471,-4.7297,-4.7976,-4.8306,-4.8306,-4.8306,-4.8306,-4.8306,-4.8306,-4.8306,-4.8306,-4.8306,-4.8306,-4.8306,-4.8306,-4.8306,-4.8306,-4.8306,-4.8306,-4.8306,-4.8306,-4.8306,-4.8306,0.0,0.0,0.0,0.0,0.0,0.0,0.0,0.0,0.0,0.0,0.0,0.0,0.0,0.0,0.0,0.0,0.0,0.0,0.0,0.0,0.0,-2.3246,-2.3344,-2.3806,-2.47,-2.6057,-2.6947,-2.735,-2.8189,-2.8587,-2.8587,-2.8587,-2.8587,-2.8605,-2.9047,-2.9471,-2.9984,-3.122,-3.2019,-3.2466,0.0,0.0,0.0,0.0,0.0,0.0,0.0,0.0,0.0,0.0,-3.8559,-3.9739,-3.987,0.0,0.0,0.0,0.0,0.0,-3.9272,-3.9272,-3.9477,-3.9477,-3.9575,-3.9647,-3.9502,0.0,0.0,0.0,0.0,0.0,0.0,0.0,-4.0923,-4.1796,-4.2809,-4.3497,-4.3497,-4.3497,-4.3497,-4.3497,-4.3497,-4.3497,-4.3497,-4.3497,-4.3497,-4.3497,-4.3497,-4.3644,-4.403,-4.4048,-4.4415,-4.5241,-4.5259,-4.5645,-4.6452,-4.6819,-4.7443,-4.8306,-4.8306,-4.8306,-4.8306,-4.8306,-4.8306,-4.8306,-4.8306,-4.8306,-4.8306,-4.8306,-4.8306,-4.8306,-4.8306,-4.86,-4.9058,-4.9499,-4.9664,-4.9664,0.0,0.0,0.0,0.0,0.0,0.0,0.0,0.0,0.0,0.0,0.0,0.0,0.0,0.0,0.0,0.0,0.0,0.0,0.0,0.0,-2.2733,-2.3746,-2.4274,-2.4796,-2.532,-2.6615,-2.7392,-2.7572,-2.8254,-2.8587,-2.8587,-2.8587,-2.8721,-2.892,-2.9518,-3.0033,-3.0521,-3.1738,-3.2401,-3.2693,0.0,0.0,0.0,0.0,0.0,0.0,0.0,0.0,0.0,0.0,0.0,0.0,0.0,0.0,0.0,-3.9647,-3.9693,-3.9762,-3.9183,-3.9045,-3.9055,-3.897,-3.9173,-3.935,-3.9156,0.0,0.0,0.0,0.0,0.0,0.0,-3.9626,-4.0432,-4.2047,-4.2818,-4.3277,-4.3461,-4.3497,-4.3497,-4.3497,-4.3497,-4.3497,-4.3497,-4.3497,-4.3497,-4.3497,-4.3497,-4.3497,-4.3497,-4.3497,-4.3773,-4.4397,-4.4415,-4.4819,-4.5608,-4.5626,-4.6434,-4.8031,-4.8031,-4.8122,-4.8306,-4.8306,-4.8214,-4.8031,-4.8031,-4.7921,-4.7737,-4.7737,-4.7737,-4.7774,-4.7957,-4.8673,-4.9646,-5.0288,-5.0637,-5.0802,0.0,0.0,0.0,0.0,0.0,0.0,0.0,0.0,0.0,0.0,0.0,0.0,0.0,0.0,0.0,0.0,0.0,0.0,0.0,0.0,-2.3684,-2.3808,-2.5702,-2.6817,-2.6939,-2.7104,-2.7594,-2.8402,-2.8525,-2.8587,-2.8587,-2.8587,-2.9011,-2.9699,-2.9779,-3.0622,-3.2035,-3.2144,-3.2632,-3.3332,-3.3652,0.0,0.0,0.0,0.0,0.0,0.0,0.0,0.0,0.0,0.0,0.0,0.0,0.0,-4.0176,-3.9647,-3.9693,-3.9739,-3.895,-3.8826,-3.8857,-3.8615,-3.8826,0.0,-3.9101,-3.9129,0.0,-3.9129,0.0,0.0,0.0,-3.9381,-4.0432,-4.2047,-4.2359,-4.2653,-4.3387,-4.3497,-4.3497,-4.3497,-4.3497,-4.3497,-4.3497,-4.3497,-4.3497,-4.3497,-4.3497,-4.3497,-4.3497,-4.3497,-4.3516,-4.3571,-4.3589,-4.3975,-4.4782,-4.48,-4.5608,-4.7205,-4.7205,-4.759,-4.8306,-4.8306,-4.7902,-4.7205,-4.7205,-4.6764,-4.6067,-4.6067,-4.6067,-4.6159,-4.6911,-4.8177,-4.9591,-4.9646,-5.016,-5.0802,0.0,0.0,0.0,0.0,0.0,0.0,0.0,0.0,0.0,0.0,0.0,0.0,0.0,0.0,0.0,0.0,0.0,0.0,0.0,0.0,-2.4041,-2.519,-2.6209,-2.7094,-2.7772,-2.7852,-2.8074,-2.8432,-2.8536,-2.8587,-2.8605,-2.9119,-2.95,-2.9826,-3.084,-3.1618,-3.2234,-3.2723,-3.3121,-3.3393,-3.3491,-3.3643,0.0,0.0,0.0,0.0,0.0,0.0,0.0,0.0,-3.9083,-3.9513,0.0,0.0,-3.9807,-3.9216,-3.9136,-3.9109,-3.8634,-3.8585,-3.8628,-3.846,-3.8585,0.0,0.0,-3.8737,-3.8755,-3.8851,-3.878,0.0,-3.859,-3.9255,-4.017,-4.1202,-4.1873,-4.253,-4.3336,-4.3463,-4.3497,-4.3497,-4.3497,-4.3497,-4.3497,-4.3463,-4.3446,-4.3497,-4.3463,-4.3446,-4.3497,-4.3268,-4.3232,-4.3479,-4.3268,-4.3251,-4.3579,-4.3832,-4.44,-4.5235,-4.6011,-4.6396,-4.6439,-4.6689,-4.6353,-4.5549,-4.5867,-4.5645,-4.5098,-4.5098,-4.5098,-4.521,-4.6285,-4.7289,-4.8177,-4.9205,-4.9774,-5.0123,0.0,0.0,0.0,0.0,0.0,0.0,0.0,0.0,0.0,0.0,0.0,0.0,0.0,0.0,0.0,0.0,0.0,0.0,-2.2857,-2.3647,-2.4675,-2.6053,-2.6656,-2.7346,-2.8182,-2.8237,-2.83,-2.8353,-2.851,-2.8688,-2.8941,-2.9536,-3.0087,-3.0604,-3.1709,-3.2343,-3.2614,-3.3176,-3.3393,-3.3411,-3.3491,-3.3779,0.0,0.0,0.0,0.0,0.0,0.0,0.0,0.0,0.0,0.0,0.0,0.0,0.0,0.0,-3.8818,-3.873,-3.8491,-3.8415,-3.8433,0.0,0.0,0.0,-3.8478,-3.851,-3.851,-3.8609,-3.8627,-3.8578,-3.8478,-3.8972,-3.9579,-4.0315,-4.122,-4.2111,-4.29,-4.3281,-4.3463,-4.3463,-4.3428,-4.3428,-4.3428,-4.3358,-4.3376,-4.3393,-4.3358,-4.3286,-4.3196,-4.2939,-4.2902,-4.3032,-4.2808,-4.2673,-4.2673,-4.2939,-4.3211,-4.3502,-4.4356,-4.4922,-4.5294,-4.5451,-4.5034,-4.4246,-4.4556,-4.4371,-4.3846,-4.3846,-4.3989,-4.43,-4.5191,-4.6019,-4.6858,-4.8148,-4.8937,-4.9468,0.0,0.0,0.0,0.0,0.0,0.0,0.0,0.0,0.0,0.0,0.0,0.0,0.0,0.0,0.0,0.0,0.0,0.0,-2.2907,-2.4605,-2.5766,-2.6074,-2.7133,-2.7864,-2.8182,-2.8182,-2.8237,-2.83,-2.8432,-2.8925,-2.9701,-2.9781,-3.0659,-3.2198,-3.2216,-3.2651,-3.3393,-3.3393,-3.3393,-3.3441,-3.3716,-3.4302,-3.5037,0.0,0.0,0.0,0.0,0.0,0.0,0.0,0.0,0.0,0.0,0.0,0.0,0.0,-3.8789,-3.8759,-3.8554,-3.8401,-3.8322,0.0,0.0,0.0,-3.8446,-3.851,-3.851,-3.851,-3.8446,-3.8382,-3.8382,-3.8382,-3.8656,-3.9477,-4.0364,-4.1254,-4.2093,-4.2864,-4.3376,-4.3394,-4.3286,-4.3214,-4.3214,-4.3214,-4.3214,-4.3214,-4.3214,-4.2976,-4.2523,-4.2598,-4.248,-4.2021,-4.2098,-4.2198,-4.2198,-4.2216,-4.2216,-4.2198,-4.2198,-4.3284,-4.5236,-4.4791,-4.4132,-4.3382,-4.3382,-4.2912,-4.2216,-4.2216,-4.2644,-4.3382,-4.3382,-4.4371,-4.5835,-4.6313,-4.7493,-4.8896,0.0,0.0,0.0,0.0,0.0,0.0,0.0,0.0,0.0,0.0,0.0,0.0,0.0,0.0,0.0,0.0,0.0,0.0,-2.4381,-2.5177,-2.5876,-2.65,-2.7043,-2.7522,-2.7836,-2.8081,-2.8237,-2.83,-2.8937,-2.9404,-2.9656,-3.0818,-3.1593,-3.2079,-3.2697,-3.3105,-3.3322,-3.3382,-3.3737,-3.4244,-3.4316,-3.4965,-3.5878,0.0,0.0,0.0,0.0,0.0,0.0,0.0,0.0,0.0,0.0,0.0,0.0,-3.8446,-3.8368,-3.8368,-3.8289,-3.8289,0.0,0.0,0.0,0.0,0.0,-3.8354,0.0,0.0,-3.8415,-3.8401,-3.8354,-3.8322,-3.8594,-3.9345,-3.9722,-4.0427,-4.1812,-4.223,-4.2612,-4.3178,-4.3305,-4.3286,-4.3214,-4.3214,-4.3214,-4.3214,-4.2844,-4.2616,-4.2483,-4.1895,-4.1639,-4.1853,-4.1569,-4.1481,-4.1569,-4.1913,-4.1871,-4.1569,-4.1569,-4.1947,-4.264,-4.275,-4.2369,-4.1677,-4.1832,-4.1683,-4.13,-4.13,-4.1807,-4.2495,-4.22,-4.2569,-4.3346,-4.4068,-4.4612,-4.5252,0.0,0.0,0.0,0.0,0.0,0.0,0.0,0.0,0.0,0.0,0.0,0.0,0.0,0.0,0.0,0.0,0.0,0.0,0.0,-2.5681,-2.6283,-2.6873,-2.7213,-2.7552,-2.7893,-2.8401,-2.8719,-2.8729,-2.9295,-2.9861,-3.0489,-3.1505,-3.2164,-3.2469,-3.3046,-3.331,-3.3328,-3.3725,-3.4172,-3.4643,-3.4969,-3.5672,-3.6541,0.0,0.0,0.0,0.0,0.0,0.0,0.0,0.0,0.0,0.0,0.0,0.0,-3.8241,-3.8192,-3.8225,-3.8241,0.0,0.0,0.0,-3.8274,-3.8241,-3.8241,0.0,0.0,0.0,-3.8336,-3.8322,-3.8274,-3.8241,-3.8404,-3.8826,-3.9254,-3.9849,-4.0797,-4.154,-4.2068,-4.2376,-4.272,-4.2826,-4.2559,-4.2519,-4.2519,-4.2519,-4.2239,-4.1973,-4.181,-4.1348,-4.1094,-4.1213,-4.0972,-4.0879,-4.0972,-4.1276,-4.1276,-4.0972,-4.1036,-4.1082,-4.1192,-4.1383,-4.122,-4.084,-4.1053,-4.1071,-4.0888,-4.0888,-4.1209,-4.1666,-4.1373,-4.1401,-4.1762,-4.242,-4.2835,-4.3365,0.0,0.0,0.0,0.0,0.0,0.0,0.0,0.0,0.0,0.0,0.0,0.0,0.0,0.0,0.0,0.0,0.0,0.0,0.0,0.0,-2.6791,-2.7103,-2.7531,-2.7941,-2.8261,-2.9073,-2.9547,-2.9619,-2.9687,-3.0413,-3.1793,-3.1978,-3.2439,-3.3086,-3.3232,-3.3298,-3.3424,-3.4238,-3.4666,-3.4865,-3.5589,-3.6349,-3.7087,-3.7087,0.0,0.0,0.0,0.0,0.0,0.0,0.0,0.0,0.0,0.0,0.0,-3.8192,-3.8192,-3.8225,-3.8274,0.0,0.0,0.0,-3.8289,0.0,-3.8192,-3.8259,-3.8307,-3.8307,-3.8241,-3.8192,-3.8192,-3.8192,-3.8192,-3.814,-3.8839,-3.9397,-3.9418,-4.0707,-4.1487,-4.1127,-4.1649,-4.1866,-4.142,-4.149,-4.1525,-4.1481,-4.1385,-4.1171,-4.0698,-4.0723,-4.0517,-4.0101,-4.0182,-4.028,-4.028,-4.028,-4.0314,-4.0383,-4.0497,-4.058,-4.0648,-4.0697,-4.0697,-4.0697,-4.084,-4.0918,-4.0965,-4.0935,-4.0918,-4.0965,-4.0918,-4.0888,-4.0918,-4.1328,-4.1928,-4.2703,0.0,0.0,0.0,0.0,0.0,0.0,0.0,0.0,0.0,0.0,0.0,0.0,0.0,0.0,0.0,0.0,0.0,0.0,0.0,0.0,-2.6329,-2.6399,-2.7603,-2.8397,-2.8735,-2.9734,-3.0582,-3.1207,-3.1219,-3.1398,-3.1737,-3.2411,-3.2787,-3.2948,-3.3028,-3.3418,-3.4024,-3.4249,-3.5073,-3.6242,-3.6422,-3.698,-3.7716,-3.7749,-3.7873,0.0,0.0,0.0,0.0,0.0,0.0,0.0,0.0,-3.8192,-3.8192,-3.8192,-3.8192,-3.8192,0.0,-3.8225,0.0,0.0,-3.8207,-3.8192,-3.8192,-3.8225,-3.8225,-3.8225,-3.8225,-3.8192,-3.8192,-3.8192,-3.8088,-3.7721,-3.8111,-3.8558,-3.8851,-3.9173,-3.9584,-4.0134,-4.061,-4.0824,-4.0647,-4.1253,-4.1587,-4.1481,-4.0645,-4.006,-3.9939,-3.908,-3.8506,-3.8427,-3.8427,-3.8506,-3.8601,-3.8601,-3.8908,-3.9486,-3.9486,-3.9793,-4.0238,-4.0551,-4.0697,-4.0697,-4.084,-4.1088,-4.1373,-4.1041,-4.1088,-4.1311,-4.1041,-4.0888,-4.0935,-4.1012,-4.1145,-4.1482,0.0,0.0,0.0,0.0,0.0,0.0,0.0,0.0,0.0,0.0,0.0,0.0,0.0,0.0,0.0,0.0,0.0,0.0,0.0,0.0,-2.6586,-2.7181,-2.8288,-2.8952,-2.9149,-3.0205,-3.0995,-3.1402,-3.2001,-3.2259,-3.2259,-3.2688,-3.2916,-3.2934,-3.3391,-3.3817,-3.4264,-3.5098,-3.5939,-3.673,-3.7126,-3.7539,-3.7899,-3.7967,-3.8002,-3.7985,-3.8054,0.0,0.0,0.0,0.0,0.0,0.0,0.0,-3.8192,-3.8192,-3.8192,-3.8192,0.0,0.0,0.0,0.0,0.0,-3.8192,-3.8192,-3.8192,-3.814,-3.7933,-3.8054,-3.8192,-3.8192,-3.802,-3.7792,-3.7542,-3.7523,-3.7647,-3.7795,-3.8185,-3.8479,-3.8684,-3.9238,-3.9495,-3.9237,-3.96,-3.987,-3.9761,-3.9203,-3.8811,-3.8811,-3.8235,-3.7905,-3.7905,-3.7905,-3.7953,-3.7984,-3.7984,-3.8187,-3.8577,-3.8625,-3.886,-3.9268,-4.0129,-4.0788,-4.1212,-4.0948,-4.0948,-4.1209,-4.1012,-4.1041,-4.1209,-4.0965,-4.0888,-4.0888,-4.0888,-4.0888,-4.1022,0.0,0.0,0.0,0.0,0.0,0.0,0.0,0.0,0.0,0.0,0.0,0.0,0.0,0.0,0.0,0.0,0.0,0.0,0.0,0.0,0.0,-2.8322,-2.9145,-2.9627,-2.9696,-3.0832,-3.1417,-3.1417,-3.24,-3.2916,-3.2916,-3.2916,-3.2955,-3.3148,-3.3859,-3.4339,-3.4661,-3.6036,-3.6716,-3.693,-3.7594,-3.7864,-3.7864,-3.7933,-3.7898,-3.7899,-3.7967,-3.8002,-3.8002,-3.8002,0.0,0.0,0.0,0.0,-3.8192,-3.8192,-3.8192,-3.8192,0.0,0.0,0.0,0.0,-3.814,0.0,-3.8174,-3.8072,-3.7898,-3.7596,-3.781,-3.8054,-3.7985,-3.765,-3.7377,-3.7303,-3.7094,-3.686,-3.6821,-3.7381,-3.7638,-3.7258,-3.7861,-3.8163,-3.775,-3.7838,-3.7905,-3.7905,-3.7787,-3.7719,-3.7719,-3.7584,-3.7516,-3.7516,-3.7516,-3.7516,-3.7516,-3.7516,-3.7584,-3.7719,-3.7933,-3.8193,-3.8457,-3.9421,-4.0421,-4.1334,-4.0903,-4.0745,-4.0823,-4.0871,-4.0888,-4.0888,-4.0888,-4.0888,-4.0888,-4.0888,-4.0888,-4.0974,0.0,0.0,0.0,0.0,0.0,0.0,0.0,0.0,0.0,0.0,0.0,0.0,0.0,0.0,0.0,0.0,0.0,0.0,-2.6733,0.0,0.0,-2.8629,-2.9812,-3.0595,-3.0867,-3.2054,-3.2642,-3.2642,-3.283,-3.2916,0.0,-3.2916,-3.3259,-3.3937,-3.4062,-3.4847,-3.6131,-3.6345,-3.6827,-3.747,-3.7577,-3.7631,-3.7667,-3.7703,-3.7739,-3.7739,-3.7881,-3.7899,-3.7899,-3.7899,-3.7951,0.0,0.0,0.0,-3.8192,-3.8192,-3.8192,-3.8192,0.0,0.0,0.0,0.0,-3.788,-3.7721,0.0,0.0,-3.717,-3.7432,-3.7542,-3.7487,-3.7132,-3.7017,-3.686,-3.6533,-3.6719,-3.6781,-3.6409,-3.6454,-3.6523,-3.6439,-3.6795,-3.7017,-3.6924,-3.7516,-3.7905,-3.7905,-3.7297,-3.6924,-3.6924,-3.6299,-3.5926,-3.5926,-3.5926,-3.5926,-3.5926,-3.5926,-3.6265,-3.6941,-3.7584,-3.8292,-3.8885,-3.8444,-3.8792,-3.9764,-4.0408,-4.0631,-4.0583,-4.0776,-4.084,-4.0745,-4.0823,-4.0888,-4.0888,-4.0888,-4.0888,-4.0888,0.0,0.0,0.0,0.0,0.0,0.0,0.0,0.0,0.0,0.0,0.0,0.0,0.0,0.0,0.0,-2.6319,-2.6368,-2.6684,-2.7486,-2.8216,-2.877,-2.9076,-3.0012,-3.0577,-3.0751,-3.1487,-3.1896,-3.1896,-3.2109,0.0,0.0,-3.2985,-3.3283,-3.4151,-3.5007,-3.5774,-3.6435,-3.6881,-3.7128,-3.7243,-3.7503,-3.7281,-3.69,-3.7468,-3.7504,-3.7301,-3.7685,-3.781,-3.781,-3.781,-3.7881,-3.7951,-3.7951,0.0,0.0,0.0,-3.8088,-3.8088,-3.8174,0.0,0.0,0.0,-3.7632,-3.7505,-3.7504,-3.7188,-3.69,-3.6821,-3.6821,-3.6821,-3.69,-3.6719,-3.6533,-3.6343,-3.6241,-3.6097,-3.5915,-3.5915,-3.5915,-3.5915,-3.6044,-3.6129,-3.6129,-3.6434,-3.662,-3.662,-3.6315,-3.6129,-3.6129,-3.5808,-3.5622,-3.5622,-3.5622,-3.5622,-3.5622,-3.5622,-3.5791,-3.6129,-3.6468,-3.6789,-3.711,-3.7229,-3.8001,-3.9296,-3.9242,-3.9255,-3.9303,-3.9397,-3.9684,-4.0109,-4.0156,-4.0461,-4.0888,-4.084,-4.0793,-4.0793,0.0,0.0,0.0,0.0,0.0,0.0,0.0,0.0,0.0,0.0,0.0,0.0,0.0,0.0,0.0,0.0,-2.6944,-2.7315,-2.8159,-2.8885,-2.9377,-2.9576,-3.0228,-3.0593,-3.0675,-3.1044,-3.1363,-3.155,0.0,0.0,-3.3576,-3.345,-3.3743,0.0,-3.5543,-3.6181,-3.6394,-3.6996,-3.7034,-3.6764,-3.7111,-3.6821,-3.6256,-3.7038,-3.7094,-3.6781,-3.7301,-3.7413,-3.7339,-3.7468,-3.7595,-3.7703,-3.7703,-3.7793,0.0,0.0,0.0,-3.7845,0.0,0.0,0.0,-3.7469,-3.7358,-3.7283,0.0,-3.6741,-3.6516,-3.6343,-3.6216,-3.6199,-3.6498,-3.6308,-3.6131,-3.6131,-3.5827,-3.5622,-3.5622,-3.5622,-3.5622,-3.5622,-3.5622,-3.5622,-3.5622,-3.5622,-3.5622,-3.5622,-3.5622,-3.5622,-3.5622,-3.5622,-3.5622,-3.5622,-3.5622,-3.5622,-3.5622,-3.5622,-3.5622,-3.5622,-3.5622,-3.5622,-3.5639,-3.6214,-3.714,-3.8286,-3.8146,-3.8125,-3.8189,-3.8282,-3.8653,-3.9243,-3.9478,-4.0001,-4.0535,-4.0676,-4.0697,-4.0648,0.0,0.0,0.0,0.0,0.0,0.0,0.0,0.0,0.0,0.0,0.0,0.0,-2.6555,-2.6636,-2.6911,-2.7591,-2.7656,-2.7964,-2.8735,-2.9534,-3.0011,-3.014,-3.0683,0.0,-3.1083,-3.1452,-3.2021,0.0,0.0,0.0,-3.3899,-3.4639,-3.4984,-3.5042,-3.5111,-3.5566,-3.6205,-3.6256,-3.6256,-3.6232,-3.6256,-3.6215,-3.6232,-3.6256,-3.6256,-3.6316,-3.6764,-3.6643,-3.6357,-3.6781,-3.7034,-3.7147,-3.7147,-3.7503,-3.7899,0.0,0.0,0.0,0.0,-3.7246,0.0,-3.7055,-3.6939,0.0,-3.69,-3.6266,-3.5783,-3.6216,-3.5958,-3.5667,-3.565,-3.5667,-3.5622,-3.5622,-3.5622,-3.5622,-3.5622,-3.5622,-3.5622,-3.5622,-3.5622,-3.5622,-3.5622,-3.5622,-3.5622,-3.5622,-3.5622,-3.5622,-3.5622,-3.5622,-3.5622,-3.5622,-3.5622,-3.5622,-3.5622,-3.5622,-3.5622,-3.5622,-3.5622,-3.5622,-3.5622,-3.5656,-3.5723,-3.5876,-3.742,-3.8031,-3.7953,-3.8189,-3.8252,-3.8244,-3.9225,-3.9534,-3.9576,-4.0517,-4.0728,-4.0534,0.0,0.0,0.0,0.0,0.0,0.0,0.0,0.0,0.0,0.0,0.0,0.0,0.0,-2.685,-2.7137,-2.7822,-2.8635,-2.9237,-2.954,-2.98,-3.0033,-3.0189,-3.0384,-3.0767,-3.1332,-3.1541,0.0,0.0,0.0,-3.328,-3.4278,-3.4267,-3.4682,-3.5445,-3.5685,-3.5931,-3.6172,-3.6172,-3.6062,-3.582,-3.6105,-3.5847,-3.5436,-3.5977,-3.602,-3.5864,-3.6316,-3.6357,-3.6232,-3.6381,-3.6481,-3.6522,-3.6522,-3.6643,-3.6821,-3.6921,-3.6865,-3.6808,0.0,0.0,0.0,-3.6597,-3.6516,-3.6451,-3.6139,-3.581,-3.5667,-3.5844,-3.5711,-3.5622,-3.5622,-3.5622,-3.5622,-3.5622,-3.5622,-3.5622,-3.5622,-3.5622,-3.5622,-3.5622,-3.5622,-3.5622,-3.5622,-3.5622,-3.5622,-3.5622,-3.5622,-3.5622,-3.5622,-3.5622,-3.5622,-3.5622,-3.5622,-3.5622,-3.5622,-3.5622,-3.5622,-3.5622,-3.5622,-3.5622,-3.5622,-3.5622,-3.5622,-3.5639,-3.6243,-3.648,-3.6434,-3.6525,-3.6876,-3.7444,-3.7809,-3.8538,-3.9409,-3.9699,-4.0044,-4.0387,0.0,0.0,0.0,0.0,0.0,0.0,0.0,0.0,0.0,-2.5241,0.0,0.0,0.0,0.0,-2.7664,-2.8554,-2.9392,-2.9999,-3.0287,-3.0303,-3.0505,-3.0926,-3.0953,-3.1271,-3.1896,0.0,0.0,0.0,0.0,0.0,0.0,-3.4339,-3.4588,-3.5362,-3.5644,-3.5759,-3.5759,-3.5759,-3.5599,-3.5407,-3.5644,-3.5436,-3.4977,-3.5554,-3.5616,-3.5407,-3.5864,-3.589,-3.5803,-3.5933,-3.5977,-3.5977,-3.5977,-3.6105,-3.6172,-3.619,-3.6215,-3.6256,-3.6232,0.0,0.0,0.0,-3.6191,-3.6174,-3.5711,-3.5622,-3.5622,-3.5622,-3.5622,-3.5622,-3.5622,-3.5622,-3.5622,-3.5622,-3.5622,-3.5622,-3.5622,-3.5622,-3.5622,-3.5622,-3.5622,-3.5622,-3.5622,-3.5622,-3.5622,-3.5622,-3.5622,-3.5622,-3.5622,-3.5622,-3.5622,-3.5622,-3.5622,-3.5622,-3.5622,-3.5622,-3.5622,-3.5622,-3.5622,-3.5622,-3.5622,-3.5622,-3.5622,-3.5622,-3.5622,-3.5622,-3.5622,-3.5622,-3.5972,-3.6571,-3.6888,-3.7631,-3.8564,-3.8789,-3.9302,-3.9881,0.0,0.0,0.0,0.0,0.0,0.0,0.0,0.0,-2.5508,-2.5538,0.0,0.0,0.0,0.0,0.0,-2.9782,-2.9923,-3.0231,-3.0865,-3.105,-3.1495,-3.2351,-3.2426,-3.2562,-3.2713,0.0,0.0,0.0,0.0,0.0,0.0,0.0,-3.4899,-3.4899,-3.4899,-3.4899,-3.4899,-3.4899,-3.4899,-3.4899,-3.4899,-3.4899,-3.4899,-3.4899,-3.4899,-3.493,-3.5407,-3.5287,-3.4977,-3.5407,-3.5571,-3.5571,-3.5571,-3.5864,-3.6105,-3.5854,-3.5783,-3.5694,0.0,0.0,0.0,-3.5611,-3.5905,-3.6174,-3.5694,-3.5622,-3.5622,-3.5622,-3.5622,-3.5622,-3.5622,-3.5622,-3.5622,-3.5622,-3.5622,-3.5622,-3.5622,-3.5622,-3.5622,-3.5622,-3.5622,-3.5622,-3.5622,-3.5622,-3.5622,-3.5622,-3.5622,-3.5622,-3.5622,-3.5622,-3.5622,-3.5622,-3.5622,-3.5622,-3.5622,-3.5622,-3.5622,-3.5622,-3.5622,-3.5622,-3.5622,-3.5622,-3.5622,-3.5622,-3.5622,-3.5622,-3.5622,-3.5622,-3.5622,-3.569,-3.6605,-3.691,-3.692,-3.7882,-3.8567,-3.8971,0.0,0.0,0.0,0.0,0.0,0.0,0.0,0.0,-2.5349,0.0,0.0,0.0,-2.7368,-2.836,-2.9168,-2.9515,-3.0702,-3.1494,-3.1688,-3.1751,-3.1848,-3.2089,-3.2229,-3.2597,-3.3182,0.0,0.0,0.0,0.0,0.0,0.0,0.0,0.0,0.0,-3.4899,-3.4899,-3.4899,-3.4899,-3.4899,-3.4899,-3.4899,-3.4899,-3.4899,-3.4899,-3.4899,-3.4899,-3.5071,-3.5024,-3.4947,-3.5071,-3.5102,-3.5102,-3.5102,-3.5148,-3.5224,-3.5148,-3.5165,-3.5165,-3.5135,0.0,0.0,0.0,0.0,0.0,-3.5622,-3.5622,-3.5622,-3.5622,-3.5622,-3.5622,-3.5622,-3.5622,-3.5622,-3.5622,-3.5622,-3.5622,-3.5622,-3.5622,-3.5622,-3.5622,-3.5622,-3.5622,-3.5622,-3.5622,-3.5622,-3.5622,-3.5622,-3.5622,-3.5622,-3.5622,-3.5622,-3.5622,-3.5622,-3.5622,-3.5622,-3.5622,-3.5622,-3.5622,-3.5622,-3.5622,-3.5622,-3.5622,-3.5622,-3.5622,-3.5622,-3.5622,-3.5622,-3.5622,-3.5622,-3.5639,-3.5904,-3.6327,-3.6852,-3.7102,-3.7614,-3.8294,0.0,0.0,0.0,0.0,0.0,0.0,0.0,-2.5502,-2.5944,0.0,0.0,0.0,-2.8211,-2.8979,-2.9465,-2.972,-3.066,-3.1385,-3.1702,-3.1768,-3.2044,-3.2578,-3.2789,-3.3225,-3.3954,0.0,0.0,0.0,0.0,0.0,0.0,0.0,0.0,0.0,0.0,0.0,-3.4899,-3.4899,-3.4899,-3.4899,-3.4899,-3.4899,-3.4899,-3.4899,-3.4899,-3.4899,-3.4899,-3.4899,-3.4899,-3.4899,-3.4899,-3.4899,-3.4899,-3.4899,-3.4899,-3.4899,-3.4899,-3.4947,-3.5041,-3.5152,-3.5245,-3.5446,0.0,0.0,-3.5577,-3.5622,-3.5622,-3.5622,-3.5622,-3.5622,-3.5622,-3.5622,-3.5622,-3.5622,-3.5622,-3.5622,-3.5622,-3.5622,-3.5622,-3.5622,-3.5622,-3.5622,-3.5622,-3.5622,-3.5622,-3.5622,-3.5622,-3.5622,-3.5622,-3.5622,-3.5622,-3.5622,-3.5622,-3.5622,-3.5622,-3.5622,-3.5622,-3.5622,-3.5622,-3.5622,-3.5622,-3.5622,-3.5622,-3.5622,-3.5622,-3.5622,-3.5622,-3.5622,-3.5622,-3.5622,-3.5622,-3.5893,-3.6299,-3.6299,-3.6772,-3.7499,0.0,0.0,0.0,0.0,0.0,0.0,0.0,-2.646,-2.6895,0.0,-2.7447,-2.8192,-2.9198,-2.9426,-2.9726,-3.0204,-3.0385,-3.0692,-3.139,-3.1528,-3.2095,-3.3271,-3.3531,-3.3919,-3.448,0.0,0.0,0.0,0.0,0.0,0.0,0.0,0.0,0.0,0.0,0.0,-3.4739,-3.4787,-3.4787,-3.4739,-3.4851,-3.4899,-3.4899,-3.4899,-3.4899,-3.4899,-3.4899,-3.4899,-3.4899,-3.4899,-3.4899,-3.4899,-3.4899,-3.4899,-3.4899,-3.4899,-3.4899,-3.4947,-3.5041,-3.5198,-3.5291,-3.5446,-3.5566,0.0,-3.5577,-3.5622,-3.5622,-3.5622,-3.5622,-3.5622,-3.5622,-3.5622,-3.5622,-3.5622,-3.5622,-3.5622,-3.5622,-3.5622,-3.5622,-3.5622,-3.5622,-3.5622,-3.5622,-3.5622,-3.5622,-3.5622,-3.5622,-3.5622,-3.5622,-3.5622,-3.5622,-3.5622,-3.5622,-3.5622,-3.5622,-3.5622,-3.5622,-3.5622,-3.5622,-3.5622,-3.5622,-3.5622,-3.5622,-3.5622,-3.5622,-3.5622,-3.5622,-3.5622,-3.5622,-3.5622,-3.5622,-3.5622,-3.5622,-3.5622,-3.6062,-3.6671,-2.3817,0.0,0.0,0.0,0.0,0.0,0.0,-2.7142,-2.7534,-2.7534,-2.81,-2.8592,-2.882,-2.9692,-3.0323,-3.0418,-3.1372,-3.2044,-3.2182,-3.2198,-3.2353,-3.2586,-3.2749,-3.2949,-3.3161,-3.3124,0.0,0.0,0.0,0.0,0.0,0.0,0.0,0.0,0.0,0.0,-3.3563,-3.4068,-3.3968,-3.3614,-3.4529,-3.4899,-3.4899,-3.4899,-3.4899,-3.4899,-3.4899,-3.4899,-3.4899,-3.4899,-3.4899,-3.4899,-3.4899,-3.4899,-3.4899,-3.4899,-3.4899,-3.4947,-3.5041,-3.5105,-3.5198,-3.5446,-3.5492,0.0,-3.5577,-3.5622,-3.5622,-3.5622,-3.5622,-3.5622,-3.5622,-3.5622,-3.5622,-3.5622,-3.5622,-3.5622,-3.5622,-3.5622,-3.5622,-3.5622,-3.5622,-3.5622,-3.5622,-3.5622,-3.5622,-3.5622,-3.5622,-3.5622,-3.5622,-3.5622,-3.5622,-3.5622,-3.5622,-3.5622,-3.5622,-3.5622,-3.5622,-3.5622,-3.5622,-3.5622,-3.5622,-3.5622,-3.5622,-3.5622,-3.5622,-3.5622,-3.5622,-3.5622,-3.5622,-3.5622,-3.5622,-3.5622,-3.5622,-3.5622,-3.5723,-3.5943,-2.4419,0.0,0.0,0.0,0.0,0.0,0.0,0.0,-2.8202,-2.8202,-2.8753,-2.9276,-2.9595,-3.0177,-3.0527,-3.0527,-3.1113,-3.148,-3.148,-3.148,-3.1652,-3.1936,-3.2089,-3.2351,-3.2788,-3.2895,0.0,0.0,0.0,0.0,0.0,0.0,0.0,0.0,0.0,0.0,0.0,-3.3527,-3.3475,-3.3303,-3.4415,-3.4578,-3.4102,-3.4382,-3.4497,-3.4497,-3.4497,-3.4691,-3.4899,-3.4899,-3.4899,-3.4899,-3.4899,-3.4899,-3.4899,-3.4899,-3.4899,-3.4947,-3.5041,-3.5152,-3.5245,-3.5446,-3.552,0.0,0.0,-3.5622,-3.5622,-3.5622,-3.5622,-3.5622,-3.5622,-3.5622,-3.5622,-3.5622,-3.5622,-3.5622,-3.5622,-3.5622,-3.5622,-3.5622,-3.5622,-3.5622,-3.5622,-3.5622,-3.5622,-3.5622,-3.5622,-3.5622,-3.5622,-3.5622,-3.5622,-3.5622,-3.5622,-3.5622,-3.5622,-3.5622,-3.5622,-3.5622,-3.5622,-3.5622,-3.5622,-3.5622,-3.5622,-3.5622,-3.5622,-3.5622,-3.5622,-3.5622,-3.5622,-3.5622,-3.5622,-3.5622,-3.5622,-3.5622,-3.5622,-3.5673,-2.5154,0.0,0.0,0.0,0.0,0.0,0.0,0.0,-2.8898,-2.9029,-2.9493,-3.0001,-3.051,-3.0568,-3.0568,-3.0568,-3.0568,-3.0568,-3.0568,-3.0568,-3.0807,-3.1321,-3.148,-3.1864,-3.2477,-3.2516,-3.268,0.0,0.0,0.0,0.0,0.0,0.0,0.0,0.0,0.0,0.0,-3.2986,-3.2986,-3.2986,-3.4102,-3.4036,-3.3251,-3.3748,-3.3933,-3.3933,-3.3933,-3.4234,-3.4578,-3.4691,-3.4691,-3.4626,-3.4835,-3.4851,-3.4756,-3.4851,-3.4899,-3.4947,-3.5041,-3.5198,-3.5291,-3.5446,-3.552,-3.5577,0.0,0.0,0.0,-3.5622,-3.5622,-3.5622,-3.5622,-3.5622,-3.5622,-3.5622,-3.5622,-3.5622,-3.5622,-3.5622,-3.5622,-3.5622,-3.5622,-3.5622,-3.5622,-3.5622,-3.5622,-3.5622,-3.5622,-3.5622,-3.5622,-3.5622,-3.5622,-3.5622,-3.5622,-3.5622,-3.5622,-3.5622,-3.5622,-3.5622,-3.5622,-3.5622,-3.5622,-3.5622,-3.5622,-3.5622,-3.5622,-3.5622,-3.5622,-3.5622,-3.5622,-3.5622,-3.5622,-3.5622,-3.5622,-3.5622,-3.5622,-3.5622,-2.5788,-2.6792,0.0,0.0,0.0,0.0,0.0,0.0,-2.9726,-3.0277,-3.0422,-3.0495,-3.0568,-3.0568,-3.0568,-3.0568,-3.0568,-3.0568,-3.0568,-3.0568,-3.0628,-3.0687,-3.0999,-3.119,-3.1292,-3.1394,-3.1838,0.0,0.0,0.0,0.0,0.0,0.0,0.0,-3.1682,-3.1682,-3.1739,-3.2272,-3.2176,-3.1796,-3.2933,-3.3303,-3.3198,-3.3303,-3.3303,-3.3303,-3.3303,-3.3355,-3.3459,-3.4018,-3.3866,-3.3563,-3.4578,-3.4546,-3.43,-3.4739,-3.4899,-3.4947,-3.5041,-3.5088,-3.5182,-3.5446,-3.5492,-3.552,-3.5577,0.0,-3.5622,-3.5622,0.0,-3.5622,-3.5622,0.0,0.0,-3.5622,-3.5622,-3.5622,-3.5622,-3.5622,-3.5622,-3.5622,-3.5622,-3.5622,-3.5622,-3.5622,-3.5622,-3.5622,-3.5622,-3.5622,-3.5622,-3.5622,-3.5622,-3.5622,-3.5622,-3.5622,-3.5622,-3.5622,-3.5622,-3.5622,-3.5622,-3.5622,-3.5622,-3.5622,-3.5622,-3.5622,-3.5622,-3.5622,-3.5622,-3.5622,-3.5622,-3.5622,-3.5622,-3.5622,-3.5622,-3.5622,-3.5622,-3.5622,-2.6283,-2.7067,0.0,0.0,0.0,0.0,0.0,0.0,-3.0277,-3.0539,-3.0568,-3.0568,-3.0568,-3.0568,-3.0568,-3.0568,-3.0568,-3.0568,-3.0568,-3.0568,-3.0568,-3.0568,-3.0702,-3.0895,-3.1087,-3.1132,-3.1409,0.0,-3.1724,0.0,0.0,0.0,0.0,0.0,-3.1482,-3.1482,-3.1539,-3.1739,-3.1739,-3.1524,-3.1992,-3.2201,-3.2256,-3.2571,-3.2749,-3.2803,-3.3093,-3.3182,-3.3251,-3.3475,-3.3407,-3.3287,-3.3767,-3.3732,-3.3697,-3.4284,-3.4448,-3.4497,-3.4899,-3.4787,-3.4706,-3.5135,-3.5102,-3.5085,-3.5458,-3.5594,-3.5622,-3.5622,0.0,0.0,0.0,0.0,0.0,0.0,-3.5622,-3.5622,-3.5622,-3.5622,-3.5622,-3.5622,-3.5622,-3.5622,-3.5622,-3.5622,-3.5622,-3.5622,-3.5622,-3.5622,-3.5622,-3.5622,-3.5622,-3.5622,-3.5622,-3.5622,-3.5622,-3.5622,-3.5622,-3.5622,-3.5622,-3.5622,-3.5622,-3.5622,-3.5622,-3.5622,-3.5622,-3.5622,-3.5622,-3.5622,-3.5622,-3.5622,-3.5622,-3.5622,-3.5622,-3.5622,-3.5622,-3.5622,-2.6783,-2.7446,-2.8119,0.0,0.0,0.0,0.0,-3.0277,-3.0568,-3.0568,-3.0568,-3.0568,-3.0568,-3.0568,-3.0568,-3.0568,-3.0568,-3.0568,-3.0568,-3.0568,-3.0568,-3.0568,-3.0642,-3.0762,-3.1014,-3.1087,-3.119,0.0,0.0,0.0,0.0,0.0,0.0,0.0,0.0,-3.1482,-3.1482,-3.1482,-3.1482,-3.1482,-3.1482,-3.1482,-3.1539,-3.1966,-3.2176,-3.2231,-3.2571,-3.2718,-3.2772,-3.2933,-3.2879,-3.2772,-3.3093,-3.3093,-3.3108,-3.3697,-3.3866,-3.3917,-3.4317,-3.4202,-3.4086,-3.4723,-3.469,-3.4704,-3.5367,-3.5549,-3.5622,-3.5622,-3.5622,0.0,0.0,0.0,-3.5622,-3.5622,0.0,-3.5622,-3.5622,-3.5622,-3.5622,-3.5622,-3.5622,-3.5622,-3.5622,-3.5622,-3.5622,-3.5622,-3.5622,-3.5622,-3.5622,-3.5622,-3.5622,-3.5622,-3.5622,-3.5622,-3.5622,-3.5622,-3.5622,-3.5622,-3.5622,-3.5622,-3.5622,-3.5622,-3.5622,-3.5622,-3.5622,-3.5622,-3.5622,-3.5622,-3.5622,-3.5622,-3.5622,-3.5622,-3.5622,-3.5622,-3.5622,-3.5622,-2.7365,-2.8053,-2.8802,-2.9454,-3.0147,-3.0539,-3.0539,-3.0568,-3.0568,-3.0568,-3.0568,-3.0568,-3.0568,-3.0568,-3.0568,-3.0568,-3.0568,-3.0568,-3.0568,-3.0568,-3.0568,-3.0568,-3.0702,-3.0821,-3.0821,-3.1014,-3.119,-3.1278,0.0,0.0,0.0,0.0,0.0,0.0,-3.1482,-3.1482,-3.1482,-3.1482,-3.1482,-3.1482,-3.1482,-3.1482,-3.1482,-3.1524,-3.1524,-3.1524,-3.1524,-3.1524,-3.164,-3.2231,-3.2023,-3.1739,-3.2826,-3.2841,-3.2547,-3.3093,-3.3251,-3.3251,-3.3235,-3.3235,-3.3391,-3.407,-3.4333,-3.4593,-3.5337,-3.5549,-3.5622,-3.5622,-3.5622,-3.5622,-3.5622,-3.5622,-3.5622,-3.5622,-3.5622,0.0,0.0,-3.5622,-3.5622,-3.5622,-3.5622,-3.5622,-3.5622,-3.5622,-3.5622,-3.5622,-3.5622,-3.5622,-3.5622,-3.5622,-3.5622,-3.5622,-3.5622,-3.5622,-3.5622,-3.5622,-3.5622,-3.5622,-3.5622,-3.5622,-3.5622,-3.5622,-3.5622,-3.5622,-3.5622,-3.5622,-3.5622,-3.5622,-3.5622,-3.5622,-3.5622,-3.5622,-3.5622,-3.5622,-3.5622,-3.5622,-2.6782,-2.7393,-2.8224,-2.9393,-3.0129,-3.0568,-3.0568,-3.0568,-3.0568,-3.0568,-3.0568,-3.0568,-3.0568,-3.0568,-3.0568,-3.0568,-3.0568,-3.0568,-3.0568,-3.0568,-3.0568,-3.0568,-3.0642,-3.0702,-3.0821,-3.1014,-3.119,-3.1278,-3.1278,0.0,0.0,0.0,0.0,0.0,0.0,-3.1482,-3.1482,-3.1482,-3.1482,-3.1482,-3.1482,-3.1482,-3.1482,-3.1482,-3.1482,-3.1482,-3.1482,-3.1482,-3.1524,-3.1754,-3.1697,-3.1582,-3.1951,-3.1951,-3.191,-3.2477,-3.2695,-3.2749,-3.3093,-3.2949,-3.2788,-3.3407,-3.3649,-3.3919,-3.4496,-3.5102,-3.552,-3.552,-3.5594,-3.5622,-3.5622,-3.5622,-3.5622,-3.5622,-3.5622,-3.5622,0.0,-3.5622,-3.5622,-3.5622,-3.5622,-3.5622,-3.5622,-3.5622,-3.5622,-3.5622,-3.5622,-3.5622,-3.5622,-3.5622,-3.5622,-3.5622,-3.5622,-3.5622,-3.5622,-3.5622,-3.5622,-3.5622,-3.5622,-3.5622,-3.5622,-3.5622,-3.5622,-3.5622,-3.5622,-3.5622,-3.5622,-3.5622,-3.5622,-3.5622,-3.5622,-3.5622,-3.5622,-3.5622,-3.5622,-3.5622,-2.6533,-2.704,-2.7802,-2.8712,-2.9608,-3.0312,-3.0568,-3.0568,-3.0568,-3.0568,-3.0568,-3.0568,-3.0568,-3.0568,-3.0568,-3.0568,-3.0568,-3.0568,-3.0568,-3.0568,-3.0568,-3.0568,-3.0568,-3.0642,-3.0702,-3.0895,-3.1073,-3.1234,-3.1292,-3.1351,0.0,0.0,0.0,0.0,0.0,-3.1482,-3.1482,-3.1482,-3.1482,-3.1482,-3.1482,-3.1482,-3.1482,-3.1482,-3.1482,-3.1482,-3.1482,-3.1482,-3.1482,-3.1482,-3.1482,-3.1482,-3.1482,-3.1482,-3.1582,-3.1966,-3.2079,-3.2176,-3.2516,-3.2312,-3.2216,-3.2788,-3.3039,-3.3339,-3.4036,-3.4754,-3.5274,-3.5492,-3.5549,-3.5532,-3.5362,-3.547,-3.5532,-3.5333,-3.547,-3.5622,0.0,-3.5622,-3.5622,-3.5622,-3.5622,-3.5622,-3.5622,-3.5622,-3.5622,-3.5622,-3.5622,-3.5622,-3.5622,-3.5622,-3.5622,-3.5622,-3.5622,-3.5622,-3.5622,-3.5622,-3.5622,-3.5622,-3.5622,-3.5622,-3.5622,-3.5622,-3.5622,-3.5622,-3.5622,-3.5622,-3.5622,-3.5622,-3.5622,-3.5622,-3.5622,-3.5622,-3.5622,-3.5622,-3.5622,-3.5622,-2.6533,-2.704,-2.7484,-2.7484,-2.8648,-2.9808,-3.0447,-3.0568,-3.0568,-3.0568,-3.0568,-3.0568,-3.0568,-3.0568,-3.0568,-3.0568,-3.0568,-3.0568,-3.0568,-3.0568,-3.0568,-3.0568,-3.0568,-3.0568,-3.0568,-3.0702,-3.0895,-3.1087,-3.1234,0.0,0.0,0.0,0.0,0.0,-3.1482,-3.1482,-3.1482,-3.1482,-3.1482,-3.1482,-3.1482,-3.1482,-3.1482,-3.1482,-3.1482,-3.1482,-3.1482,-3.1482,-3.1482,-3.1482,-3.1482,-3.1482,-3.1482,-3.1482,-3.1482,-3.1482,-3.1482,-3.1482,-3.1482,-3.1482,-3.164,-3.2231,-3.2586,-3.3002,-3.3919,-3.4431,-3.488,-3.5337,-3.5503,-3.5424,-3.488,-3.5224,-3.5424,-3.4927,-3.527,-3.5622,-3.5622,-3.5622,-3.5622,-3.5622,-3.5622,-3.5622,-3.5622,-3.5622,-3.5622,-3.5622,-3.5622,-3.5622,-3.5622,-3.5622,-3.5622,-3.5622,-3.5622,-3.5577,-3.5577,-3.5577,-3.5577,-3.5577,-3.5577,-3.5577,-3.5577,-3.5577,-3.5577,-3.5577,-3.5577,-3.5577,-3.5622,-3.5622,-3.5622,-3.5622,-3.5622,-3.5622,-3.5622,-3.5622,-3.5622,-3.5622,-2.6533,-2.6658,-2.6905,-2.7417,-2.8648,-2.9685,-2.9808,-3.0251,-3.0568,-3.0568,-3.0568,-3.0568,-3.0568,-3.0568,-3.0568,-3.0568,-3.0568,-3.0568,-3.0568,-3.0568,-3.0568,-3.0568,-3.0568,-3.0568,-3.0568,-3.0702,-3.0821,-3.0895,-3.1176,-3.1351,-3.1351,0.0,0.0,0.0,0.0,-3.1482,-3.1482,-3.1482,-3.1482,-3.1482,-3.1482,-3.1482,-3.1482,-3.1482,-3.1482,-3.1482,-3.1482,-3.1482,-3.1482,-3.1482,-3.1482,-3.1482,-3.1482,-3.1482,-3.1482,-3.1482,-3.1482,-3.1482,-3.1482,-3.1482,-3.1539,-3.1697,-3.212,-3.2602,-3.2949,-3.3495,-3.3969,-3.4234,-3.4658,-3.4975,-3.4833,-3.5224,-3.556,-3.5424,-3.5515,-3.5622,-3.5622,-3.5622,-3.5622,-3.5622,-3.5622,-3.5622,-3.5622,-3.5622,-3.5622,-3.5622,-3.5622,-3.5622,-3.5622,-3.5622,-3.5622,-3.5622,-3.5622,-3.5424,-3.5021,-3.5424,-3.5424,-3.5021,-3.5424,-3.5379,-3.5021,-3.5021,-3.5021,-3.5021,-3.5021,-3.5224,-3.5622,-3.5622,-3.5622,-3.5622,-3.5622,-3.5622,-3.5622,-3.5622,-3.5622,-3.5622,-2.6533,-2.6533,-2.6589,-2.6973,-2.7934,-2.8776,-2.9093,-2.9732,-3.019,-3.019,-3.019,-3.0151,-3.019,-2.9909,-2.9734,-2.9769,-2.9755,-2.9856,-3.0147,-3.0161,-3.0277,-3.0568,-3.0568,-3.0568,-3.0568,-3.0702,-3.0762,-3.0821,-3.0999,-3.1176,-3.1278,0.0,0.0,0.0,0.0,-3.1482,-3.1482,-3.1482,-3.1482,-3.1482,-3.1482,-3.1482,0.0,-3.1482,-3.1482,-3.1482,-3.1482,-3.1482,-3.1482,-3.1482,-3.1482,-3.1482,-3.1482,-3.1482,-3.1482,-3.1482,-3.1482,-3.1482,-3.1482,-3.1482,-3.1482,-3.1482,-3.1811,-3.2191,-3.2453,-3.2949,-3.3407,-3.3697,-3.4136,-3.4366,-3.4169,-3.4721,-3.5333,-3.5577,-3.5622,-3.5622,-3.5622,-3.5622,-3.5622,-3.5622,-3.5622,-3.5622,-3.5622,-3.5622,-3.5622,-3.5622,-3.5622,-3.5515,-3.527,-3.527,-3.5131,-3.4927,-3.488,-3.4785,-3.4431,-3.4738,-3.488,-3.4769,-3.488,-3.488,-3.4769,-3.4577,-3.4577,-3.4769,-3.4769,-3.5115,-3.5622,-3.5622,-3.5622,-3.5622,-3.5622,-3.5622,-3.5622,-3.5622,-3.5622,-3.5622,-2.6533,-2.6533,-2.6533,-2.6533,-2.6973,-2.7537,-2.8182,-2.8903,-2.9456,-2.9448,-2.9372,-2.9379,-2.945,-2.8819,-2.8488,-2.8668,-2.8624,-2.8856,-2.9464,-2.9493,-2.9784,-3.0422,-3.0451,-3.0495,-3.0568,-3.0568,-3.0642,-3.0762,-3.0762,-3.094,0.0,0.0,0.0,0.0,0.0,0.0,-3.1482,-3.1482,-3.1482,-3.1482,-3.1482,-3.1482,-3.1482,-3.1482,-3.1482,-3.1482,-3.1482,-3.1482,-3.1482,-3.1482,-3.1482,-3.1482,-3.1482,-3.1482,-3.1482,-3.1482,-3.1482,-3.1482,-3.1482,-3.1482,-3.1482,-3.1482,-3.1597,-3.1841,-3.2247,-3.2602,-3.2986,-3.3339,-3.3665,-3.3767,-3.3303,-3.402,-3.4833,-3.5316,-3.5379,-3.5379,-3.5379,-3.5379,-3.5379,-3.5379,-3.547,0.0,-3.5487,-3.5577,-3.5622,-3.5622,-3.5622,-3.5379,-3.4833,-3.4769,-3.4577,-3.4036,-3.3986,-3.3986,-3.3986,-3.3986,-3.4235,-3.4673,-3.4235,-3.4235,-3.4577,-3.4136,-3.4169,-3.4577,-3.4673,-3.5021,-3.5515,-3.5577,-3.5622,-3.5622,-3.5622,-3.5622,-3.5622,-3.5622,-3.5622,-3.5622,-2.6533,-2.6533,-2.6533,-2.6533,-2.6589,-2.6714,-2.685,-2.7934,-2.8711,-2.8736,-2.8346,-2.8232,-2.8785,-2.7888,-2.7611,-2.8624,-2.8254,-2.8182,-2.884,-2.884,-2.9131,-2.9755,-2.9798,-3.0031,-3.0568,-3.0568,-3.0628,-3.0642,-3.0762,-3.0881,0.0,0.0,0.0,0.0,0.0,0.0,-3.1482,-3.1482,-3.1482,-3.1482,-3.1482,-3.1482,-3.1482,-3.1482,-3.1482,-3.1482,-3.1482,-3.1482,-3.1482,-3.1482,-3.1482,-3.1482,-3.1482,-3.1482,-3.1482,-3.1482,-3.1482,-3.1482,-3.1482,-3.1482,-3.1482,-3.1482,-3.1539,-3.1597,-3.1826,-3.2053,-3.2247,-3.2398,-3.2895,-3.3303,-3.3251,-3.3716,-3.4185,-3.4268,-3.4284,-3.4284,-3.4284,-3.4284,-3.4284,-3.4284,-3.4673,-3.4927,-3.4927,-3.5316,-3.5622,-3.5622,-3.5622,-3.5379,-3.4833,-3.4769,-3.4577,-3.4036,-3.3986,-3.3986,-3.3986,-3.3986,-3.4036,-3.4136,-3.402,-3.3818,-3.3495,-3.3391,-3.3391,-3.3495,-3.3969,-3.4431,-3.4975,-3.5424,-3.5622,-3.5622,-3.5622,-3.5622,-3.5622,-3.5622,-3.5622,-3.5622,-2.6533,-2.6533,-2.6533,-2.6533,-2.6533,-2.6533,-2.6533,-2.704,-2.7473,-2.7579,-2.7117,-2.6871,-2.7227,-2.6412,-2.6113,-2.6722,-2.6524,-2.6592,-2.72,-2.7228,-2.7509,-2.8201,-2.8229,-2.863,-2.9568,-2.9643,-2.9921,-3.0568,-3.0642,-3.0762,-3.0955,-3.1132,0.0,0.0,0.0,-3.1482,-3.1482,-3.1482,-3.1482,-3.1482,-3.1482,-3.1482,-3.1482,-3.1482,-3.1482,-3.1482,-3.1482,-3.1482,-3.1482,-3.1482,-3.1482,-3.1482,-3.1482,-3.1482,-3.1482,-3.1482,-3.1482,-3.1482,-3.1482,-3.1482,-3.1482,-3.1482,-3.1482,-3.1539,-3.1597,-3.1784,-3.194,-3.2038,-3.2398,-3.2803,-3.3039,-3.3355,-3.3665,-3.3853,-3.3969,-3.3986,-3.3986,-3.3986,-3.3986,-3.3986,-3.4235,-3.448,-3.4769,-3.5021,-3.5178,-3.5178,-3.5178,-3.4816,-3.4003,-3.3953,-3.37,-3.3161,-3.3161,-3.3161,-3.3161,-3.3161,-3.3303,-3.3563,-3.3303,-3.3198,-3.3182,-3.2895,-3.2949,-3.3251,-3.3767,-3.4136,-3.4431,-3.4975,-3.5333,-3.5622,-3.5622,-3.5622,-3.5622,-3.5622,-3.5622,-3.5622,-2.6533,-2.6533,-2.6533,-2.6533,-2.6533,-2.6571,-2.6615,-2.6596,-2.6523,-2.6635,-2.6102,-2.5857,-2.6045,-2.5335,-2.4983,-2.5314,-2.5108,-2.5229,-2.5805,-2.5782,-2.5986,-2.6671,-2.6699,-2.7212,-2.8316,-2.8442,-2.8993,-2.9975,-3.024,-3.0447,-3.0568,-3.0895,-3.1117,-3.1278,-3.1409,-3.1467,-3.1482,-3.1482,-3.1482,-3.1482,-3.1482,-3.1482,-3.1482,-3.1482,-3.1482,-3.1482,-3.1482,-3.1482,-3.1482,-3.1482,-3.1482,-3.1482,-3.1482,-3.1482,-3.1482,-3.1482,-3.1482,-3.1482,-3.1482,-3.1482,-3.1482,-3.1482,-3.1482,-3.1482,-3.1482,-3.167,-3.1841,-3.1996,-3.2094,-3.2342,-3.2734,-3.2895,-3.3093,-3.3391,-3.3563,-3.363,-3.363,-3.363,-3.363,-3.363,-3.3716,-3.402,-3.4415,-3.4673,-3.4721,-3.4464,-3.4673,-3.4366,-3.3391,-3.3235,-3.2933,-3.2453,-3.2398,-3.2453,-3.2547,-3.2398,-3.2586,-3.3182,-3.2641,-3.2586,-3.3002,-3.2586,-3.2695,-3.3251,-3.3767,-3.4136,-3.4382,-3.4785,-3.5224,-3.5622,-3.5622,-3.5622,-3.5622,-3.5622,-3.5622,-3.5622,-2.6533,-2.6533,-2.6533,-2.6533,-2.6533,-2.6697,-2.713,-2.6779,-2.6511,-2.6518,-2.601,-2.5871,-2.6472,-2.5519,-2.5255,-2.6324,-2.5495,-2.5157,-2.5774,-2.5331,-2.5361,-2.5959,-2.5986,-2.6331,-2.7018,-2.7537,-2.7824,-2.794,-2.9142,-2.9747,-2.9931,-3.0507,-3.0999,-3.1278,-3.1278,-3.1409,-3.1482,-3.1482,-3.1482,-3.1482,-3.1482,-3.1482,-3.1482,-3.1482,-3.1482,-3.1482,-3.1482,-3.1482,-3.1482,-3.1482,-3.1482,-3.1482,-3.1482,-3.1482,-3.1482,-3.1482,-3.1482,-3.1482,-3.1482,-3.1482,-3.1482,-3.1482,-3.1482,-3.1482,-3.1482,-3.167,-3.1841,-3.1996,-3.2094,-3.2191,-3.2247,-3.2302,-3.2302,-3.2342,-3.2342,-3.2342,-3.2342,-3.2342,-3.2342,-3.2342,-3.2895,-3.3287,-3.3339,-3.4219,-3.4415,-3.3443,-3.4268,-3.4529,-3.3986,-3.3459,-3.2933,-3.2453,-3.2302,-3.2492,-3.3145,-3.2398,-3.2453,-3.3182,-3.2547,-3.2302,-3.2492,-3.2453,-3.2695,-3.3251,-3.3767,-3.4577,-3.547,-3.5515,-3.556,-3.5622,-3.5622,-3.5622,-3.5622,-3.5622,-3.5622,-3.5622,-2.6892,-2.6954,-2.7055,-2.7394,-2.7444,-2.7519,-2.7745,-2.7595,-2.744,-2.7481,-2.6665,-2.6089,-2.6013,-2.5586,-2.5342,-2.551,-2.5089,-2.482,-2.4706,-2.4533,-2.4352,-2.4222,-2.4209,-2.4721,-2.5735,-2.6307,-2.6948,-2.7672,-2.8524,-2.9219,-2.9685,-3.0068,-3.0568,-3.1176,-3.1292,-3.1351,-3.1409,-3.1467,-3.1482,-3.1482,-3.1482,-3.1482,-3.1482,-3.1482,-3.1482,-3.1482,-3.1482,-3.1482,-3.1482,-3.1482,-3.1482,-3.1482,-3.1482,-3.1482,-3.1482,-3.1482,-3.1482,-3.1482,-3.1482,-3.1482,-3.1482,-3.1482,-3.1482,-3.1482,-3.1482,-3.1539,-3.1655,-3.1841,-3.1996,-3.2053,-3.1996,-3.2053,-3.2038,-3.1996,-3.2053,-3.2094,-3.2094,-3.2094,-3.2094,-3.2094,-3.2302,-3.2641,-3.3039,-3.3443,-3.37,-3.3665,-3.407,-3.3969,-3.3108,-3.2749,-3.2492,-3.2302,-3.215,-3.2191,-3.2492,-3.2247,-3.2247,-3.2492,-3.2398,-3.2302,-3.2302,-3.2342,-3.2857,-3.3716,-3.3935,-3.4625,-3.5577,-3.527,-3.5316,-3.5622,-3.5622,-3.5622,-3.5622,-3.5622,-3.5622,-3.5622,-2.7444,-2.7519,-2.7645,-2.8034,-2.8109,-2.816,-2.8323,-2.8348,-2.8411,-2.8574,-2.7921,-2.7092,-2.6189,-2.6088,-2.5875,-2.5347,-2.5146,-2.4883,-2.4494,-2.4318,-2.4054,-2.3653,-2.3566,-2.3974,-2.4693,-2.5249,-2.5981,-2.6867,-2.7568,-2.8343,-2.8967,-2.9484,-3.019,-3.1014,-3.1176,-3.1234,-3.1278,-3.1409,-3.1482,-3.1482,-3.1482,-3.1482,-3.1482,-3.1482,-3.1482,-3.1482,-3.1482,-3.1482,-3.1482,-3.1482,-3.1482,-3.1482,-3.1482,-3.1482,-3.1482,-3.1482,-3.1482,-3.1482,-3.1482,-3.1482,-3.1482,-3.1482,-3.1482,-3.1482,-3.1482,-3.1482,-3.1539,-3.1727,-3.1898,-3.1883,-3.1841,-3.1898,-3.1883,-3.1799,-3.1898,-3.194,-3.194,-3.194,-3.194,-3.194,-3.1996,-3.2191,-3.2641,-3.2841,-3.3039,-3.3371,-3.3563,-3.3303,-3.2586,-3.2342,-3.2191,-3.215,-3.1996,-3.194,-3.1996,-3.1981,-3.1981,-3.1996,-3.2135,-3.2191,-3.2191,-3.2492,-3.3055,-3.3767,-3.407,-3.4673,-3.5333,-3.5131,-3.527,-3.5622,-3.5622,-3.5622,-3.5622,-3.5622,-3.5622,-3.5622,-2.8097,-2.8097,-2.8097,-2.8109,-2.8109,-2.8285,-2.8837,-2.8925,-2.9126,-2.9691,-2.9767,-2.9114,-2.7444,-2.7268,-2.7042,-2.6559,-2.5912,-2.5586,-2.5573,-2.5096,-2.4808,-2.4808,-2.4808,-2.4556,-2.4004,-2.4531,-2.482,-2.4833,-2.6116,-2.6987,-2.755,-2.8967,-3.0007,-3.0821,-3.1014,-3.119,-3.1278,-3.1409,-3.1482,-3.1482,-3.1482,-3.1482,-3.1482,-3.1482,-3.1482,-3.1482,-3.1482,-3.1482,-3.1482,-3.1482,-3.1482,-3.1482,-3.1482,-3.1482,-3.1482,-3.1482,-3.1482,-3.1482,-3.1482,-3.1482,-3.1482,-3.1482,-3.1482,-3.1482,-3.1482,-3.1482,-3.1539,-3.1727,-3.1799,-3.1799,-3.1799,-3.1799,-3.1799,-3.1799,-3.1799,-3.1799,-3.1799,-3.1799,-3.1799,-3.1799,-3.194,-3.1996,-3.1996,-3.2492,-3.2602,-3.2038,-3.2492,-3.2895,-3.2986,-3.2492,-3.215,-3.1996,-3.1898,-3.1841,-3.1996,-3.164,-3.164,-3.1996,-3.1841,-3.194,-3.2247,-3.2895,-3.3182,-3.3287,-3.4317,-3.4769,-3.4864,-3.5379,-3.5577,-3.5622,-3.5622,-3.5622,-3.5622,-3.5622,-3.5622,-3.5622,-2.8586,-2.8662,-2.88,-2.9189,-2.9252,-2.9315,-2.949,-2.9515,-2.9578,-2.9767,-2.9792,-2.9302,-2.7984,-2.7846,-2.7469,-2.6609,-2.6289,-2.6013,-2.5624,-2.5435,-2.5197,-2.4845,-2.482,-2.4745,-2.4569,-2.5071,-2.5347,-2.5347,-2.6168,-2.686,-2.755,-2.8441,-2.9282,-3.0007,-3.0222,-3.0673,-3.119,-3.1424,-3.1482,-3.1482,-3.1482,-3.1482,-3.1482,-3.1482,-3.1482,-3.1482,-3.1482,-3.1482,-3.1482,-3.1482,-3.1482,-3.1482,-3.1482,-3.1482,-3.1482,-3.1482,-3.1482,-3.1482,-3.1482,-3.1482,-3.1482,-3.1482,-3.1482,-3.1482,-3.1482,-3.1482,-3.1539,-3.1597,-3.1597,-3.1597,-3.1597,-3.1597,-3.1597,-3.1597,-3.1597,-3.1597,-3.1597,-3.1597,-3.1597,-3.1597,-3.1655,-3.1712,-3.1841,-3.2053,-3.215,-3.215,-3.2287,-3.2342,-3.2342,-3.215,-3.1996,-3.1841,-3.1841,-3.1727,-3.1655,-3.1246,-3.102,-3.1005,-3.1147,-3.1612,-3.2247,-3.2788,-3.3093,-3.3235,-3.3969,-3.4235,-3.4284,-3.4816,-3.5068,-3.5068,-3.547,-3.5622,-3.5622,-3.5622,-3.5622,-3.5622,-2.9189,-2.9252,-2.9365,-2.9729,-2.9792,-2.9792,-2.9792,-2.9792,-2.9792,-2.9792,-2.9792,-2.9365,-2.8235,-2.8109,-2.7657,-2.6553,-2.6533,-2.637,-2.5937,-2.5925,-2.5774,-2.5448,-2.5435,-2.5335,-2.5121,-2.5435,-2.5598,-2.5598,-2.6176,-2.685,-2.7484,-2.792,-2.8505,-2.9219,-2.9718,-3.0222,-3.0747,-3.1219,-3.1467,-3.1482,-3.1482,-3.1482,-3.1482,-3.1482,-3.1482,-3.1482,-3.1482,-3.1482,-3.1482,-3.1482,-3.1482,-3.1482,-3.1482,-3.1482,-3.1482,-3.1482,-3.1482,-3.1482,-3.1482,-3.1482,-3.1482,-3.1482,-3.1482,-3.1482,-3.1482,-3.1482,-3.1482,-3.1482,-3.1482,-3.1482,-3.1482,-3.1482,-3.1482,-3.1482,-3.1482,-3.1482,-3.1482,-3.1482,-3.1482,-3.1482,-3.1482,-3.1539,-3.167,-3.167,-3.1769,-3.1925,-3.1667,-3.1531,-3.1434,-3.1561,-3.1505,-3.1336,-3.111,-3.0919,-3.0806,-3.0498,-3.0288,-3.0163,-3.0452,-3.0828,-3.1402,-3.2052,-3.2413,-3.2572,-3.3348,-3.3818,-3.4036,-3.4577,-3.4927,-3.5115,-3.547,-3.5622,-3.5622,-3.5622,-3.5622,-3.5622,-2.9792,-2.9792,-2.9792,-2.9792,-2.9792,-2.9792,-2.9792,-2.9792,-2.9792,-2.9792,-2.9792,-2.9365,-2.8235,-2.8109,-2.7657,-2.6553,-2.6533,-2.6533,-2.6533,-2.6533,-2.6533,-2.6533,-2.6533,-2.6214,-2.5661,-2.5649,-2.5649,-2.5649,-2.6189,-2.685,-2.7417,-2.7417,-2.7802,-2.8505,-2.9282,-2.9732,-2.995,-3.0777,-3.1219,-3.1351,-3.1409,-3.1409,-3.1409,-3.1467,-3.1482,-3.1482,-3.1482,-3.1482,-3.1482,-3.1482,-3.1482,-3.1482,-3.1482,-3.1482,-3.1482,-3.1482,-3.1482,-3.1482,-3.1482,-3.1482,-3.1482,-3.1482,-3.1482,-3.1482,-3.1482,-3.1482,-3.1482,-3.1482,-3.1482,-3.1482,-3.1482,-3.1482,-3.1482,-3.1482,-3.1482,-3.1482,-3.1482,-3.1482,-3.1482,-3.1482,-3.1482,-3.1482,-3.1482,-3.1482,-3.1524,-3.1465,-3.0866,-3.0477,-3.0447,-3.0694,-3.0694,-3.0447,-2.9879,-2.9633,-2.9579,-2.9535,-2.9505,-2.9505,-2.9651,-2.9841,-3.0023,-3.0792,-3.1159,-3.1404,-3.2625,-3.3431,-3.3905,-3.456,-3.5068,-3.5577,-3.5577,-3.5622,-3.5622,-3.5622,-3.5622,-3.5622,-2.9792,-2.9792,-2.9792,-2.9792,-2.9792,-2.9792,-2.9792,-2.9792,-2.9792,-2.9792,-2.9792,-2.9365,-2.8235,-2.8109,-2.7657,-2.6553,-2.6533,-2.6533,-2.6533,-2.6533,-2.6533,-2.6533,-2.6533,-2.6402,-2.6264,-2.6319,-2.6319,-2.6319,-2.6458,-2.6589,-2.6714,-2.6714,-2.7095,-2.7736,-2.8065,-2.8519,-2.9093,-2.9393,-2.9566,-2.9628,-3.0329,-3.0584,-3.0644,-3.1278,-3.1482,-3.1482,-3.1482,-3.1482,-3.1482,-3.1482,-3.1482,-3.1482,-3.1482,-3.1482,-3.1482,-3.1482,-3.1482,-3.1482,-3.1482,-3.1482,-3.1482,-3.1482,-3.1482,-3.1482,-3.1482,-3.1482,-3.1482,-3.1482,-3.1482,-3.1482,-3.1482,-3.1482,-3.1482,-3.1482,-3.1482,-3.1482,-3.1482,-3.1482,-3.1482,-3.1482,-3.1482,-3.1482,-3.1482,-3.1482,-3.133,-3.0975,-3.0835,-3.0533,-2.9967,-2.9577,-2.9493,-2.9789,-2.9748,-2.9726,-2.9579,-2.9086,-2.8831,-2.8831,-2.8884,-2.9298,-3.0008,-3.0213,-3.038,-3.0689,-3.1898,-3.2491,-3.2727,-3.4202,-3.488,-3.5021,-3.5424,-3.5622,-3.5622,-3.5622,-3.5622,-3.5622,-2.9792,-2.9792,-2.9792,-2.9792,-2.9792,-2.9792,-2.9792,-2.9792,-2.9792,-2.9792,-2.9792,-2.9365,-2.8235,-2.8109,-2.7657,-2.6553,-2.6533,-2.6533,-2.6533,-2.6533,-2.6533,-2.6533,-2.6533,-2.6533,-2.6533,-2.6533,-2.6533,-2.6533,-2.6533,-2.6533,-2.6533,-2.6533,-2.6714,-2.704,-2.7417,-2.7868,-2.8325,-2.8698,-2.8953,-2.9066,-2.9504,-2.969,-2.9827,-3.0644,-3.097,-3.1029,-3.1351,-3.1482,-3.1482,-3.1482,-3.1482,-3.1482,-3.1482,-3.1482,-3.1482,-3.1482,-3.1482,-3.1482,-3.1482,-3.1482,-3.1482,-3.1482,-3.1482,-3.1482,-3.1482,-3.1482,-3.1482,-3.1482,-3.1482,-3.1482,-3.1482,-3.1482,-3.1482,-3.1482,-3.1482,-3.1482,-3.1482,-3.1482,-3.1482,-3.1482,-3.1482,-3.1347,-3.1091,-3.1061,-3.0791,-3.0313,-2.9982,-2.9666,-2.9237,-2.8643,-2.8531,-2.9101,-2.8922,-2.8756,-2.8719,-2.8308,-2.8128,-2.8128,-2.8195,-2.8529,-2.9097,-2.9453,-2.9745,-2.9997,-3.0954,-3.1628,-3.2158,-3.3453,-3.4225,-3.4755,-3.5335,-3.5622,-3.5622,-3.5622,-3.5622,-3.5622,-2.9792,-2.9792,-2.9792,-2.9792,-2.9792,-2.9792,-2.9792,-2.9792,-2.9792,-2.9792,-2.9716,-2.9264,-2.8222,-2.8034,-2.757,-2.6622,-2.6533,-2.6533,-2.6533,-2.6533,-2.6533,-2.6533,-2.6533,-2.6533,-2.6533,-2.6533,-2.6533,-2.6533,-2.6533,-2.6533,-2.6533,-2.6533,-2.6533,-2.6521,-2.7095,-2.7417,-2.7537,-2.8208,-2.8519,-2.862,-2.8748,-2.8876,-2.9079,-2.995,-3.0329,-3.0524,-3.1219,-3.1482,-3.1482,-3.1482,-3.1482,-3.1482,-3.1482,-3.1482,-3.1482,-3.1482,-3.1482,-3.1482,-3.1482,-3.1482,-3.1482,-3.1482,-3.1482,-3.1482,-3.1482,-3.1482,-3.1482,-3.1482,-3.1482,-3.1482,-3.1482,-3.1482,-3.1482,-3.1482,-3.1482,-3.1482,-3.1482,-3.1482,-3.1437,-3.139,-3.1375,-3.1106,-3.0432,-3.0357,-3.0103,-2.949,-2.8921,-2.8562,-2.8442,-2.7889,-2.7844,-2.8427,-2.7874,-2.7625,-2.7625,-2.7625,-2.7625,-2.7625,-2.774,-2.784,-2.8035,-2.8732,-2.9092,-2.9304,-3.0017,-3.0869,-3.1707,-3.2514,-3.3373,-3.43,-3.5059,-3.5346,-3.547,-3.5571,-3.5622,-3.5622,-2.9792,-2.9792,-2.9792,-2.9792,-2.9792,-2.9792,-2.9792,-2.9792,-2.9792,-2.9792,-2.9365,-2.8812,-2.8172,-2.7695,-2.7155,-2.6584,-2.6533,-2.6533,-2.6533,-2.6533,-2.6533,-2.6533,-2.6533,-2.6533,-2.6533,-2.6533,-2.6533,-2.6533,-2.6533,-2.6533,-2.6533,-2.6533,-2.6533,-2.6533,-2.6589,-2.6658,-2.6714,-2.6782,-2.685,-2.6973,-2.7604,-2.826,-2.8917,-2.9903,-3.0644,-3.1161,-3.1409,-3.1482,-3.1482,-3.1482,-3.1482,-3.1482,-3.1482,-3.1482,-3.1482,-3.1482,-3.1482,-3.1482,-3.1482,-3.1482,-3.1482,-3.1482,-3.1482,-3.1482,-3.1482,-3.1482,-3.1482,-3.1482,-3.1482,-3.1482,-3.1482,-3.1482,-3.1482,-3.1482,-3.1482,-3.1482,-3.1482,-3.1482,-3.1315,-3.0731,-3.0672,-3.0417,-2.9789,-2.9729,-2.946,-2.8801,-2.8667,-2.8353,-2.7769,-2.7685,-2.767,-2.7724,-2.7619,-2.7625,-2.7625,-2.7625,-2.7625,-2.7625,-2.7625,-2.774,-2.802,-2.8111,-2.8305,-2.8596,-2.9718,-3.0339,-3.0577,-3.1691,-3.2495,-3.3056,-3.3806,-3.4331,-3.4742,-3.5385,-3.5622,-3.5622,-2.9792,-2.9792,-2.9792,-2.9792,-2.9792,-2.9792,-2.9792,-2.9792,-2.9792,-2.9792,-2.9289,-2.8712,-2.816,-2.7607,-2.7055,-2.6584,-2.6533,-2.6533,-2.6533,-2.6533,-2.6533,-2.6533,-2.6533,-2.6533,-2.6533,-2.6533,-2.6533,-2.6533,-2.6533,-2.6533,-2.6533,-2.6533,-2.6533,-2.6533,-2.6533,-2.6533,-2.6533,-2.6533,-2.6533,-2.6589,-2.7284,-2.7802,-2.826,-2.9642,-3.0329,-3.0703,-3.1278,-3.1482,-3.1482,-3.1482,-3.1482,-3.1482,-3.1482,-3.1482,-3.1482,-3.1482,-3.1482,-3.1482,-3.1482,-3.1482,-3.1482,-3.1482,-3.1482,-3.1482,-3.1482,-3.1482,-3.1482,-3.1482,-3.1482,-3.1482,-3.1482,-3.1482,-3.1482,-3.1482,-3.1482,-3.1347,-3.1031,-3.0986,-3.0731,-3.0088,-3.0013,-2.9759,-2.9116,-2.9056,-2.8771,-2.8098,-2.8053,-2.7904,-2.764,-2.7625,-2.7625,-2.7625,-2.7625,-2.7625,-2.7625,-2.7625,-2.7625,-2.7725,-2.779,-2.794,-2.8103,-2.8201,-2.8266,-2.8427,-2.8995,-2.9343,-2.9658,-3.0639,-3.1486,-3.2177,-3.2907,-3.3472,-3.3998,-3.4742,-3.5013,-3.5064,-2.9792,-2.9792,-2.9792,-2.9792,-2.9792,-2.9792,-2.9792,-2.9679,-2.9591,-2.9591,-2.8988,-2.8386,-2.7959,-2.7419,-2.6917,-2.6559,-2.6533,-2.6533,-2.6533,-2.6533,-2.6533,-2.6533,-2.6533,-2.6533,-2.6533,-2.6533,-2.6533,-2.6533,-2.6533,-2.6533,-2.6533,-2.6533,-2.6533,-2.6533,-2.6533,-2.6533,-2.6533,-2.6533,-2.6533,-2.6521,-2.704,-2.7351,-2.767,-2.9129,-2.9704,-2.9827,-3.0777,-3.1161,-3.1161,-3.1219,-3.1351,-3.1467,-3.1482,-3.1482,-3.1482,-3.1482,-3.1482,-3.1482,-3.1482,-3.1482,-3.1482,-3.1482,-3.1482,-3.1482,-3.1482,-3.1482,-3.1482,-3.1482,-3.1482,-3.1482,-3.1482,-3.1482,-3.1482,-3.1482,-3.1405,-3.1106,-3.0582,-3.0372,-3.0058,-2.943,-2.9355,-2.9086,-2.8427,-2.8368,-2.8143,-2.7655,-2.7625,-2.7625,-2.7625,-2.7625,-2.7625,-2.7625,-2.7625,-2.7625,-2.7625,-2.7625,-2.7625,-2.774,-2.7855,-2.8005,-2.8137,-2.825,-2.8299,-2.8348,-2.8477,-2.8795,-2.9167,-2.9846,-3.0619,-3.1447,-3.216,-3.272,-3.3237,-3.3964,-3.4336,-3.4573,-2.9792,-2.9792,-2.9792,-2.9792,-2.9792,-2.9792,-2.9792,-2.934,-2.8988,-2.8988,-2.8059,-2.7394,-2.7344,-2.6854,-2.6571,-2.6533,-2.6533,-2.6533,-2.6533,-2.6533,-2.6533,-2.6533,-2.6533,-2.6533,-2.6533,-2.6533,-2.6533,-2.6533,-2.6533,-2.6533,-2.6533,-2.6533,-2.6533,-2.6533,-2.6533,-2.6533,-2.6533,-2.6533,-2.6533,-2.6533,-2.6521,-2.6973,-2.7617,-2.8532,-2.8917,-2.898,-2.9842,-3.0133,-3.0133,-3.0329,-3.0777,-3.1351,-3.1467,-3.1482,-3.1482,-3.1482,-3.1482,-3.1482,-3.1482,-3.1482,-3.1482,-3.1482,-3.1482,-3.1482,-3.1482,-3.1482,-3.1482,-3.1482,-3.1482,-3.1482,-3.1482,-3.1482,-3.1482,-3.1482,-3.1001,-3.0567,-3.0507,-3.0013,-2.94,-2.8742,-2.8667,-2.8397,-2.776,-2.7649,-2.7619,-2.7625,-2.7625,-2.7625,-2.7625,-2.7625,-2.7625,-2.7625,-2.7625,-2.7625,-2.7625,-2.7625,-2.7625,-2.7625,-2.7625,-2.7675,-2.784,-2.7955,-2.8103,-2.8235,-2.8811,-2.909,-2.9136,-2.9637,-3.0136,-3.0667,-3.1414,-3.1968,-3.2459,-3.3203,-3.3914,-3.4506,-2.9792,-2.9792,-2.9792,-2.9792,-2.9792,-2.9666,-2.9315,-2.9063,-2.88,-2.8461,-2.7758,-2.7281,-2.7281,-2.6791,-2.6533,-2.6533,-2.6533,-2.6533,-2.6533,-2.6533,-2.6533,-2.6533,-2.6533,-2.6533,-2.6533,-2.6533,-2.6533,-2.6533,-2.6533,-2.6533,-2.6533,-2.6533,-2.6533,-2.6533,-2.6533,-2.6533,-2.6533,-2.6533,-2.6533,-2.6521,-2.6973,-2.7297,-2.7617,-2.8468,-2.8803,-2.8853,-2.9268,-2.9628,-3.0011,-3.0208,-3.0777,-3.1351,-3.1467,-3.1482,-3.1482,-3.1482,-3.1482,-3.1482,-3.1482,-3.1482,-3.1482,-3.1482,-3.1482,-3.1482,-3.1482,-3.1482,-3.1482,-3.1482,-3.1482,-3.1482,-3.1482,-3.118,-3.0896,-3.0896,-3.0357,-2.9789,-2.9385,-2.9116,-2.8727,-2.8038,-2.7964,-2.7859,-2.764,-2.7625,-2.7625,-2.7625,-2.7625,-2.7625,-2.7625,-2.7625,-2.7625,-2.7625,-2.7625,-2.7625,-2.7625,-2.7625,-2.7625,-2.774,-2.774,-2.784,-2.8039,-2.8088,-2.8201,-2.8348,-2.8858,-2.9074,-2.9136,-2.9617,-3.0097,-3.0551,-3.0833,-3.1199,-3.1698,-3.2442,-3.2882,-3.3186,-2.9792,-2.9792,-2.9792,-2.9792,-2.9641,-2.939,-2.8988,-2.8637,-2.8285,-2.7896,-2.7369,-2.703,-2.703,-2.6691,-2.6533,-2.6533,-2.6533,-2.6533,-2.6533,-2.6533,-2.6533,-2.6533,-2.6533,-2.6533,-2.6533,-2.6533,-2.6533,-2.6533,-2.6533,-2.6533,-2.6533,-2.6533,-2.6533,-2.6533,-2.6533,-2.6533,-2.6533,-2.6533,-2.6533,-2.6521,-2.6973,-2.7162,-2.7297,-2.8078,-2.8274,-2.8143,-2.8634,-2.9192,-2.9704,-3.0072,-3.0703,-3.1278,-3.1219,-3.1219,-3.1219,-3.1409,-3.1482,-3.1482,-3.1482,-3.1482,-3.1482,-3.1482,-3.1482,-3.1482,-3.1482,-3.1482,-3.1482,-3.1482,-3.1302,-3.121,-3.121,-3.0672,-3.0223,-3.0223,-2.9684,-2.9116,-2.8667,-2.8412,-2.8098,-2.7619,-2.7625,-2.7625,-2.7625,-2.7625,-2.7625,-2.7625,-2.7625,-2.7625,-2.7625,-2.7625,-2.7625,-2.7625,-2.7625,-2.7625,-2.7625,-2.7625,-2.7625,-2.774,-2.779,-2.789,-2.8088,-2.8137,-2.8235,-2.8348,-2.8873,-2.9166,-2.9348,-2.9837,-3.0309,-3.0699,-3.0559,-3.0797,-3.1258,-3.1611,-3.1989,-3.2357,-2.9792,-2.9792,-2.9792,-2.9779,-2.9315,-2.8925,-2.8925,-2.7984,-2.7281,-2.7268,-2.6804,-2.6533,-2.6533,-2.6533,-2.6533,-2.6533,-2.6533,-2.6533,-2.6533,-2.6533,-2.6533,-2.6533,-2.6533,-2.6533,-2.6533,-2.6533,-2.6533,-2.6533,-2.6533,-2.6533,-2.6533,-2.6533,-2.6533,-2.6533,-2.6533,-2.6533,-2.6533,-2.6533,-2.6533,-2.6533,-2.6533,-2.6533,-2.6589,-2.7229,-2.7095,-2.6658,-2.7986,-2.8648,-2.8917,-2.9704,-3.0584,-3.1219,-3.0644,-3.0524,-3.0644,-3.1278,-3.1482,-3.1482,-3.1482,-3.1482,-3.1482,-3.1482,-3.1482,-3.1482,-3.1482,-3.1482,-3.1482,-3.1467,-3.0986,-3.0507,-3.0492,-2.9998,-2.9564,-2.9564,-2.9026,-2.8592,-2.8592,-2.8008,-2.7625,-2.7625,-2.7625,-2.7625,-2.7625,-2.7625,-2.7625,-2.7625,-2.7625,-2.7625,-2.7625,-2.7625,-2.7625,-2.7625,-2.7625,-2.7625,-2.7625,-2.7625,-2.7625,-2.7625,-2.774,-2.779,-2.779,-2.8088,-2.8186,-2.8235,-2.8858,-2.9348,-2.9837,-3.0309,-3.0781,-3.1151,-3.0699,-3.0781,-3.1151,-3.0658,-3.1232,-3.2273,-2.9521,-2.9443,-2.9254,-2.9176,-2.8887,-2.85,-2.7883,-2.7494,-2.7143,-2.6753,-2.6634,-2.6533,-2.6533,-2.6533,-2.6533,-2.6533,-2.6533,-2.6533,-2.6533,-2.6533,-2.6533,-2.6533,-2.6533,-2.6533,-2.6533,-2.6533,-2.6533,-2.6533,-2.6533,-2.6533,-2.6533,-2.6533,-2.6533,-2.6533,-2.6533,-2.6533,-2.6533,-2.6533,-2.6533,-2.6533,-2.6533,-2.6533,-2.6521,-2.6714,-2.6658,-2.6521,-2.6973,-2.743,-2.7934,-2.8233,-2.8889,-2.9608,-3.0011,-3.0584,-3.1087,-3.1278,-3.1409,-3.1482,-3.1482,-3.1482,-3.1482,-3.1482,-3.1482,-3.1482,-3.1482,-3.1482,-3.1405,-3.0911,-3.0657,-3.0372,-2.9939,-2.9325,-2.8891,-2.8891,-2.8323,-2.7874,-2.7874,-2.7745,-2.7625,-2.7625,-2.7625,-2.7625,-2.7625,-2.7625,-2.7625,-2.7625,-2.7625,-2.7625,-2.7625,-2.7625,-2.7625,-2.7625,-2.7625,-2.7625,-2.7625,-2.7625,-2.7625,-2.7625,-2.774,-2.784,-2.7955,-2.8137,-2.8235,-2.8348,-2.8779,-2.909,-2.9348,-2.9717,-2.9995,-3.0182,-3.0054,-3.0309,-3.0699,-3.0559,-3.0931,-3.1512,-2.87,-2.8518,-2.8443,-2.8749,-2.84,-2.79,-2.7381,-2.7092,-2.6841,-2.6571,-2.6533,-2.6533,-2.6533,-2.6533,-2.6533,-2.6533,-2.6533,-2.6533,-2.6533,-2.6533,-2.6533,-2.6533,-2.6533,-2.6533,-2.6533,-2.6533,-2.6533,-2.6533,-2.6533,-2.6533,-2.6533,-2.6533,-2.6533,-2.6533,-2.6533,-2.6533,-2.6533,-2.6533,-2.6533,-2.6533,-2.6533,-2.6533,-2.6533,-2.6533,-2.6533,-2.6521,-2.6782,-2.7162,-2.7617,-2.7999,-2.8454,-2.903,-2.9827,-3.0464,-3.0984,-3.1292,-3.1409,-3.1482,-3.1482,-3.1482,-3.1407,-3.1195,-3.133,-3.1407,-3.118,-3.112,-3.0941,-3.0283,-2.9924,-2.9639,-2.9265,-2.8652,-2.8188,-2.8188,-2.7844,-2.7625,-2.7625,-2.7625,-2.7625,-2.7625,-2.7625,-2.7625,-2.7625,-2.7625,-2.7625,-2.7625,-2.7625,-2.7625,-2.7625,-2.7625,-2.7625,-2.7625,-2.7625,-2.7625,-2.7625,-2.7625,-2.7625,-2.7625,-2.774,-2.784,-2.7905,-2.8054,-2.8152,-2.8266,-2.851,-2.8764,-2.9044,-2.9287,-2.9556,-2.9793,-2.9617,-2.9908,-3.0477,-3.0309,-3.0617,-3.119,-2.7406,-2.734,-2.7365,-2.8071,-2.7642,-2.7114,-2.7064,-2.6709,-2.6465,-2.6465,-2.6465,-2.6465,-2.6533,-2.6533,-2.6533,-2.6533,-2.6533,-2.6533,-2.6533,-2.6533,-2.6533,-2.6533,-2.6533,-2.6533,-2.6533,-2.6533,-2.6533,-2.6533,-2.6533,-2.6533,-2.6533,-2.6533,-2.6533,-2.6533,-2.6533,-2.6533,-2.6533,-2.6533,-2.6533,-2.6533,-2.6533,-2.6533,-2.6533,-2.6533,-2.6533,-2.6589,-2.7162,-2.7484,-2.767,-2.8403,-2.8712,-2.9002,-2.9827,-3.0101,-3.0312,-3.1043,-3.1292,-3.1336,-3.1334,-3.1319,-3.1228,-3.0597,-3.0896,-3.1195,-3.0567,-3.0417,-3.0253,-2.9624,-2.9011,-2.8577,-2.8517,-2.7993,-2.7625,-2.7625,-2.7625,-2.7625,-2.7625,-2.7625,-2.7625,-2.7625,-2.7625,-2.7625,-2.7625,-2.7625,-2.7625,-2.7625,-2.7625,-2.7625,-2.7625,-2.7625,-2.7625,-2.7625,-2.7625,-2.7625,-2.7625,-2.7625,-2.7625,-2.7625,-2.774,-2.779,-2.779,-2.7955,-2.802,-2.8005,-2.8137,-2.8462,-2.8858,-2.8997,-2.9257,-2.9617,-2.9212,-2.9601,-3.0393,-2.9968,-3.041,-3.119,-2.5968,-2.5902,-2.5746,-2.5325,-2.5612,-2.5719,-2.5314,-2.5667,-2.6119,-2.627,-2.627,-2.6339,-2.6465,-2.6533,-2.6533,-2.6533,-2.6533,-2.6533,-2.6533,-2.6533,-2.6533,-2.6533,-2.6533,-2.6533,-2.6533,-2.6533,-2.6533,-2.6533,-2.6533,-2.6533,-2.6533,-2.6533,-2.6533,-2.6533,-2.6533,-2.6533,-2.6533,-2.6533,-2.6533,-2.6533,-2.6533,-2.6533,-2.6533,-2.6533,-2.6533,-2.6521,-2.6658,-2.6714,-2.6782,-2.6918,-2.7364,-2.7855,-2.8051,-2.8583,-2.917,-2.9359,-2.9842,-3.0214,-2.9856,-3.0147,-3.0428,-2.9939,-2.9894,-2.9968,-2.9819,-2.9789,-2.9594,-2.8951,-2.8697,-2.8442,-2.7889,-2.773,-2.7625,-2.7625,-2.7625,-2.7625,-2.7625,-2.7625,-2.7625,-2.7625,-2.7625,-2.7625,-2.7625,-2.7625,-2.7625,-2.7625,-2.7625,-2.7625,-2.7625,-2.7625,-2.7625,-2.7625,-2.7625,-2.7625,-2.7625,-2.7625,-2.7625,-2.7625,-2.774,-2.779,-2.779,-2.7955,-2.8054,-2.8137,-2.8054,-2.8201,-2.8477,-2.8414,-2.851,-2.8716,-2.8573,-2.9152,-2.9924,-2.9837,-3.041,-3.119,-2.4662,-2.4406,-2.4179,-2.4191,-2.4362,-2.4418,-2.4154,-2.4564,-2.4933,-2.5004,-2.5158,-2.537,-2.5886,-2.5955,-2.6094,-2.6465,-2.6533,-2.6533,-2.6533,-2.6533,-2.6533,-2.6533,-2.6533,-2.6533,-2.6533,-2.6533,-2.6533,-2.6533,-2.6533,-2.6533,-2.6533,-2.6533,-2.6533,-2.6533,-2.6533,-2.6533,-2.6533,-2.6533,-2.6533,-2.6533,-2.6533,-2.6533,-2.6533,-2.6533,-2.6533,-2.6533,-2.6533,-2.6533,-2.6533,-2.6533,-2.6973,-2.7484,-2.7604,-2.8143,-2.8789,-2.8903,-2.9246,-2.9497,-2.9287,-2.9535,-2.9688,-2.8803,-2.8641,-2.8764,-2.9047,-2.9116,-2.8921,-2.8248,-2.8113,-2.7993,-2.7634,-2.7625,-2.7625,-2.7625,-2.7625,-2.7625,-2.7625,-2.7625,-2.7625,-2.7625,-2.7625,-2.7625,-2.7625,-2.7625,-2.7625,-2.7625,-2.7625,-2.7625,-2.7625,-2.7625,-2.7625,-2.7625,-2.7625,-2.7625,-2.7625,-2.7625,-2.7625,-2.7625,-2.7675,-2.7675,-2.7725,-2.779,-2.789,-2.7989,-2.8005,-2.8118,-2.8299,-2.8299,-2.8348,-2.8411,-2.8411,-2.8842,-2.9483,-2.9483,-2.9924,-3.0535,-2.3267,-2.2876,-2.2709,-2.3307,-2.3348,-2.3231,-2.322,-2.3526,-2.3672,-2.3672,-2.3963,-2.448,-2.5087,-2.5312,-2.5676,-2.6314,-2.6396,-2.6396,-2.6396,-2.6396,-2.6396,-2.6396,-2.6396,-2.6396,-2.6396,-2.6465,-2.6465,-2.6533,-2.6533,-2.6533,-2.6533,-2.6533,-2.6533,-2.6533,-2.6533,-2.6533,-2.6533,-2.6533,-2.6533,-2.6533,-2.6533,-2.6533,-2.6533,-2.6533,-2.6533,-2.6533,-2.6533,-2.6533,-2.6533,-2.6533,-2.6837,-2.7351,-2.7484,-2.7867,-2.8241,-2.8407,-2.847,-2.8528,-2.8429,-2.8627,-2.8539,-2.7446,-2.7233,-2.7451,-2.7924,-2.8151,-2.8159,-2.7694,-2.7625,-2.7625,-2.7625,-2.7625,-2.7625,-2.7625,-2.7625,-2.7625,-2.7625,-2.7625,-2.7625,-2.7625,-2.7625,-2.7625,-2.7625,-2.7625,-2.7625,-2.7625,-2.7625,-2.7625,-2.7625,-2.7625,-2.7625,-2.7625,-2.7625,-2.7625,-2.7625,-2.7625,-2.7625,-2.7625,-2.7625,-2.7625,-2.7625,-2.7625,-2.7725,-2.784,-2.7955,-2.8103,-2.8235,-2.8348,-2.8411,-2.8411,-2.8411,-2.87,-2.912,-2.9166,-2.9483,-2.9793,-2.1637,-2.162,-2.157,-2.1093,-2.1741,-2.2231,-2.2059,-2.282,-2.335,-2.3305,-2.4047,-2.4636,-2.4779,-2.5382,-2.5828,-2.598,-2.598,-2.598,-2.598,-2.598,-2.598,-2.598,-2.598,-2.598,-2.598,-2.6131,-2.6339,-2.6533,-2.6533,-2.6533,-2.6533,-2.6533,-2.6533,-2.6533,-2.6533,-2.6533,-2.6533,-2.6533,-2.6533,-2.6533,-2.6533,-2.6533,-2.6533,-2.6533,-2.6533,-2.6533,-2.6533,-2.6533,-2.6533,-2.6533,-2.6589,-2.6658,-2.6658,-2.6371,-2.6031,-2.6019,-2.6142,-2.6144,-2.5748,-2.6081,-2.6396,-2.5841,-2.5689,-2.5744,-2.5799,-2.6412,-2.7099,-2.7488,-2.7625,-2.7625,-2.7625,-2.7625,-2.7625,-2.7625,-2.7625,-2.7625,-2.7625,-2.7625,-2.7625,-2.7625,-2.7625,-2.7625,-2.7625,-2.7625,-2.7625,-2.7625,-2.7625,-2.7625,-2.7625,-2.7625,-2.7625,-2.7625,-2.7625,-2.7625,-2.7625,-2.7625,-2.7625,-2.7625,-2.7625,-2.7625,-2.7625,-2.774,-2.784,-2.7955,-2.8088,-2.825,-2.8348,-2.8411,-2.8411,-2.8411,-2.8411,-2.87,-2.9166,-2.9572,-2.9766,-2.9793,-2.1269,-2.1105,-2.0869,-2.0673,-2.0954,-2.1252,-2.1165,-2.1634,-2.1949,-2.1928,-2.2371,-2.3106,-2.3975,-2.5158,-2.591,-2.591,-2.591,-2.591,-2.591,-2.591,-2.591,-2.591,-2.5992,-2.6062,-2.6062,-2.6258,-2.6396,-2.6533,-2.6533,-2.6533,-2.6533,-2.6533,-2.6533,-2.6533,-2.6533,-2.6533,-2.6533,-2.6533,-2.6533,-2.6533,-2.6533,-2.6533,-2.6533,-2.6533,-2.6533,-2.6533,-2.6533,-2.6533,-2.6533,-2.6533,-2.6319,-2.5975,-2.5975,-2.5598,-2.5159,-2.5159,-2.5205,-2.5249,-2.5048,-2.5311,-2.5461,-2.4905,-2.4851,-2.4908,-2.4908,-2.5175,-2.5783,-2.6774,-2.7306,-2.7625,-2.7625,-2.7625,-2.7625,-2.7625,-2.7625,-2.7625,-2.7625,-2.7625,-2.7625,-2.7625,-2.7625,-2.7625,-2.7625,-2.7625,-2.7625,-2.7625,-2.7625,-2.7625,-2.7625,-2.7625,-2.7625,-2.7625,-2.7625,-2.7625,-2.7625,-2.7625,-2.7625,-2.7625,-2.7625,-2.7625,-2.7625,-2.7675,-2.779,-2.802,-2.8054,-2.8201,-2.8411,-2.8411,-2.8411,-2.8411,-2.8411,-2.8541,-2.8748,-2.892,-2.9013,-2.9059]}]]